[[{"header":{"parameterUnit":"m.s-1","parameterCategory":1,"la1":30.6,"la2":29.2853,"lo1":-89.7004,"lo2":-87.6739,"dx":0.0162,"dy":0.0183,"nx":112,"ny":82,"refTime":"2022-11-11T18:00:00:Z","depth":0,"parameterNumber":2,"parameterNumberName":"U-component_of_WINDS"},"data":[0.0,0.0,0.0,0.0,0.0,0.0,0.0,0.0,0.0,0.0,0.0,0.0,0.0,0.0,0.0,0.0,0.0,0.0,0.0,0.0,0.0,0.0,0.0,0.0,0.0,0.0,0.0,0.0,0.0,0.0,0.0,0.0,0.0,0.0,0.0,0.0,0.0,0.0,0.0,0.0,0.0,0.0,0.0,0.0,0.0,0.0,0.0,0.0,0.0,0.0,0.0,0.0,0.0,0.0,0.0,0.0,0.0,0.0,0.0,0.0,0.0,0.0,0.0,0.0,0.0,0.0,0.0,0.0,0.0,0.0,0.0,0.0,0.0,0.0,0.0,0.0,0.0,0.0,0.0,0.0,0.0,0.0,0.0,0.0,0.0,0.0,0.0,0.0,0.0,0.0,-1.4292,-1.6356,-1.8239,-1.9425,-1.9425,-1.8657,-1.7555,-1.5993,0.0,0.0,0.0,0.0,0.0,0.0,0.0,0.0,0.0,0.0,0.0,0.0,0.0,0.0,0.0,0.0,0.0,0.0,0.0,0.0,0.0,0.0,0.0,0.0,0.0,0.0,0.0,0.0,0.0,0.0,0.0,0.0,0.0,0.0,0.0,0.0,0.0,0.0,0.0,0.0,0.0,0.0,0.0,0.0,0.0,0.0,0.0,0.0,0.0,0.0,0.0,0.0,0.0,0.0,0.0,0.0,0.0,0.0,0.0,0.0,0.0,0.0,0.0,0.0,0.0,0.0,0.0,0.0,0.0,0.0,0.0,0.0,0.0,0.0,0.0,0.0,0.0,0.0,0.0,0.0,0.0,0.0,0.0,0.0,0.0,0.0,0.0,0.0,0.0,0.0,0.0,0.0,0.0,0.0,0.0,0.0,0.0,0.0,0.0,0.0,0.0,0.0,0.0,0.0,-1.4825,-1.8424,-1.939,-1.983,-1.983,-1.9401,-1.8665,-1.7569,0.0,0.0,0.0,0.0,0.0,0.0,0.0,0.0,0.0,0.0,0.0,0.0,0.0,0.0,0.0,0.0,0.0,0.0,0.0,0.0,0.0,0.0,0.0,0.0,0.0,0.0,0.0,0.0,0.0,0.0,0.0,0.0,0.0,0.0,0.0,0.0,0.0,0.0,0.0,0.0,0.0,0.0,0.0,0.0,0.0,0.0,0.0,0.0,0.0,0.0,0.0,0.0,0.0,0.0,0.0,0.0,0.0,0.0,0.0,0.0,0.0,0.0,0.0,0.0,0.0,0.0,0.0,0.0,0.0,0.0,0.0,0.0,0.0,0.0,0.0,0.0,0.0,0.0,0.0,0.0,0.0,0.0,0.0,0.0,0.0,0.0,0.0,0.0,0.0,0.0,0.0,0.0,0.0,0.0,0.0,0.0,0.0,0.0,0.0,0.0,0.0,0.0,0.0,-1.4427,-1.6376,-1.9286,-2.0033,-2.0256,-2.0256,-1.9849,-1.9023,-1.7491,-1.5269,0.0,0.0,0.0,0.0,0.0,0.0,0.0,0.0,0.0,0.0,0.0,0.0,0.0,0.0,0.0,0.0,0.0,0.0,0.0,0.0,0.0,0.0,0.0,0.0,0.0,0.0,0.0,0.0,0.0,0.0,0.0,0.0,0.0,0.0,0.0,0.0,0.0,0.0,0.0,0.0,0.0,0.0,0.0,0.0,0.0,0.0,0.0,0.0,0.0,0.0,0.0,0.0,0.0,0.0,0.0,0.0,0.0,0.0,0.0,0.0,0.0,0.0,0.0,0.0,0.0,0.0,0.0,0.0,0.0,0.0,0.0,0.0,0.0,0.0,0.0,0.0,0.0,0.0,0.0,0.0,0.0,0.0,0.0,0.0,0.0,0.0,0.0,0.0,0.0,0.0,0.0,0.0,0.0,0.0,0.0,0.0,0.0,0.0,0.0,0.0,0.0,0.0,-1.6466,-1.7977,-1.9706,-2.044,-2.0664,-2.0644,-2.0246,-1.9298,-1.7487,-1.5648,0.0,0.0,0.0,0.0,0.0,0.0,0.0,0.0,0.0,0.0,0.0,0.0,0.0,0.0,0.0,0.0,0.0,0.0,0.0,0.0,0.0,0.0,0.0,0.0,0.0,0.0,0.0,0.0,0.0,0.0,0.0,0.0,0.0,0.0,0.0,0.0,0.0,0.0,0.0,0.0,0.0,0.0,0.0,0.0,0.0,0.0,0.0,0.0,0.0,0.0,0.0,0.0,0.0,0.0,0.0,0.0,0.0,0.0,0.0,0.0,0.0,0.0,0.0,0.0,0.0,0.0,0.0,0.0,0.0,0.0,0.0,0.0,0.0,0.0,0.0,0.0,0.0,0.0,0.0,0.0,0.0,0.0,0.0,0.0,0.0,0.0,0.0,0.0,0.0,0.0,0.0,0.0,0.0,0.0,0.0,0.0,0.0,0.0,0.0,0.0,0.0,0.0,-1.7338,-1.9303,-1.983,-2.0654,-2.0976,-2.0654,-2.0557,-1.9985,-1.857,-1.6071,0.0,0.0,0.0,0.0,0.0,0.0,0.0,0.0,0.0,0.0,0.0,0.0,0.0,0.0,0.0,0.0,0.0,0.0,0.0,0.0,0.0,0.0,0.0,0.0,0.0,0.0,0.0,0.0,0.0,0.0,0.0,0.0,0.0,0.0,0.0,0.0,0.0,0.0,0.0,0.0,0.0,0.0,0.0,0.0,0.0,0.0,0.0,0.0,0.0,0.0,0.0,0.0,0.0,0.0,0.0,0.0,0.0,0.0,0.0,0.0,0.0,0.0,0.0,0.0,0.0,0.0,0.0,0.0,0.0,0.0,0.0,0.0,0.0,0.0,0.0,0.0,0.0,0.0,0.0,0.0,0.0,0.0,0.0,0.0,0.0,0.0,0.0,0.0,0.0,0.0,0.0,0.0,0.0,0.0,0.0,0.0,0.0,0.0,0.0,0.0,0.0,0.0,-1.6922,-1.882,-2.0547,-2.0976,-2.1303,-2.1415,-2.1172,-2.0246,-1.8542,0.0,0.0,0.0,0.0,0.0,0.0,0.0,0.0,0.0,0.0,0.0,0.0,0.0,0.0,0.0,0.0,0.0,0.0,0.0,0.0,0.0,0.0,0.0,0.0,0.0,0.0,0.0,0.0,0.0,0.0,0.0,0.0,0.0,0.0,0.0,0.0,0.0,0.0,0.0,0.0,0.0,0.0,0.0,0.0,0.0,0.0,0.0,0.0,0.0,0.0,0.0,0.0,0.0,0.0,0.0,0.0,0.0,0.0,0.0,0.0,0.0,0.0,0.0,0.0,0.0,0.0,0.0,0.0,0.0,0.0,0.0,0.0,0.0,0.0,0.0,0.0,0.0,0.0,0.0,0.0,0.0,0.0,0.0,0.0,0.0,0.0,0.0,0.0,0.0,0.0,0.0,0.0,0.0,0.0,0.0,0.0,0.0,0.0,0.0,0.0,0.0,0.0,-1.506,-1.7068,-1.8939,-2.0957,-2.144,-2.1651,-2.1898,-2.1723,-2.0586,-1.8275,0.0,0.0,0.0,0.0,0.0,0.0,0.0,0.0,0.0,0.0,0.0,0.0,0.0,0.0,0.0,0.0,0.0,0.0,0.0,0.0,0.0,0.0,0.0,0.0,0.0,0.0,0.0,0.0,0.0,0.0,0.0,0.0,0.0,0.0,0.0,0.0,0.0,0.0,0.0,0.0,0.0,0.0,0.0,0.0,0.0,0.0,0.0,0.0,0.0,0.0,0.0,0.0,0.0,0.0,0.0,0.0,0.0,0.0,0.0,0.0,0.0,0.0,0.0,0.0,0.0,0.0,0.0,0.0,0.0,0.0,0.0,0.0,0.0,0.0,0.0,0.0,0.0,0.0,0.0,0.0,0.0,0.0,0.0,0.0,0.0,0.0,0.0,0.0,0.0,0.0,0.0,0.0,0.0,0.0,0.0,0.0,0.0,0.0,0.0,0.0,0.0,0.0,-1.5213,-1.8055,-2.027,-2.1139,-2.1969,-2.2339,-2.1992,-2.2233,-2.1135,0.0,0.0,0.0,0.0,0.0,0.0,0.0,0.0,0.0,0.0,0.0,0.0,0.0,0.0,0.0,0.0,0.0,0.0,0.0,0.0,0.0,0.0,0.0,0.0,0.0,0.0,0.0,0.0,0.0,0.0,0.0,0.0,0.0,0.0,0.0,0.0,0.0,0.0,0.0,0.0,0.0,0.0,0.0,0.0,0.0,0.0,0.0,0.0,0.0,0.0,0.0,0.0,0.0,0.0,0.0,0.0,0.0,0.0,0.0,0.0,0.0,0.0,0.0,0.0,0.0,0.0,0.0,0.0,0.0,0.0,0.0,0.0,0.0,0.0,0.0,0.0,0.0,0.0,0.0,0.0,0.0,0.0,0.0,0.0,0.0,0.0,0.0,0.0,0.0,0.0,0.0,0.0,0.0,0.0,0.0,0.0,0.0,0.0,0.0,0.0,0.0,0.0,0.0,-1.5199,-1.8351,-2.0733,-2.1569,-2.2197,-2.2572,-2.2698,-2.2572,-2.1092,-1.7748,0.0,0.0,0.0,0.0,0.0,0.0,0.0,0.0,0.0,0.0,0.0,0.0,0.0,0.0,0.0,0.0,0.0,0.0,0.0,0.0,0.0,0.0,0.0,0.0,0.0,0.0,0.0,0.0,0.0,0.0,0.0,0.0,0.0,0.0,0.0,0.0,0.0,0.0,0.0,0.0,0.0,0.0,0.0,0.0,0.0,0.0,0.0,0.0,0.0,0.0,0.0,0.0,0.0,0.0,0.0,0.0,0.0,0.0,0.0,0.0,0.0,0.0,0.0,0.0,0.0,0.0,0.0,0.0,0.0,0.0,0.0,0.0,0.0,0.0,0.0,0.0,0.0,0.0,0.0,0.0,0.0,0.0,0.0,0.0,0.0,0.0,0.0,0.0,0.0,0.0,0.0,0.0,0.0,0.0,0.0,0.0,0.0,0.0,0.0,0.0,0.0,0.0,-1.5683,-1.8787,-2.1192,-2.2093,-2.2476,-2.2814,-2.3047,-2.2911,-2.1477,-1.8606,0.0,0.0,0.0,0.0,0.0,0.0,0.0,0.0,0.0,0.0,0.0,0.0,0.0,0.0,0.0,0.0,0.0,0.0,0.0,0.0,0.0,0.0,0.0,0.0,0.0,0.0,0.0,0.0,0.0,0.0,0.0,0.0,0.0,0.0,0.0,0.0,0.0,0.0,0.0,0.0,0.0,0.0,0.0,0.0,0.0,0.0,0.0,0.0,0.0,0.0,0.0,0.0,0.0,0.0,0.0,0.0,0.0,0.0,0.0,0.0,0.0,0.0,0.0,0.0,0.0,0.0,0.0,0.0,0.0,0.0,0.0,0.0,0.0,0.0,0.0,0.0,0.0,0.0,0.0,0.0,0.0,0.0,0.0,0.0,0.0,0.0,0.0,0.0,0.0,0.0,0.0,0.0,0.0,0.0,0.0,0.0,0.0,0.0,0.0,0.0,0.0,0.0,-1.6403,-1.9347,-2.158,-2.2393,-2.2891,-2.3135,-2.3135,-2.3135,-2.2217,-2.0049,0.0,0.0,0.0,0.0,0.0,0.0,0.0,0.0,0.0,0.0,0.0,0.0,0.0,0.0,0.0,0.0,0.0,0.0,0.0,0.0,0.0,0.0,0.0,0.0,0.0,0.0,0.0,0.0,0.0,0.0,0.0,0.0,0.0,0.0,0.0,0.0,0.0,0.0,0.0,0.0,0.0,0.0,0.0,0.0,0.0,0.0,0.0,0.0,0.0,0.0,0.0,0.0,0.0,0.0,0.0,0.0,0.0,0.0,0.0,0.0,-0.8885,-0.8174,0.0,0.0,0.0,0.0,0.0,0.0,0.0,0.0,0.0,0.0,0.0,0.0,0.0,0.0,0.0,0.0,0.0,0.0,0.0,0.0,0.0,0.0,0.0,0.0,0.0,0.0,0.0,0.0,0.0,0.0,0.0,0.0,0.0,0.0,0.0,0.0,0.0,0.0,0.0,0.0,-1.6432,-1.9674,-2.1948,-2.2451,-2.2891,-2.3135,-2.3135,-2.3135,-2.2217,-2.0049,-1.9092,0.0,0.0,0.0,0.0,0.0,0.0,0.0,0.0,0.0,0.0,0.0,0.0,0.0,0.0,0.0,0.0,0.0,0.0,0.0,0.0,0.0,0.0,0.0,0.0,0.0,0.0,0.0,0.0,0.0,0.0,0.0,0.0,0.0,0.0,0.0,0.0,0.0,0.0,0.0,0.0,0.0,0.0,0.0,0.0,0.0,0.0,0.0,0.0,0.0,0.0,0.0,0.0,0.0,0.0,0.0,0.0,0.0,0.0,0.0,-1.0732,-1.0264,0.0,0.0,0.0,0.0,0.0,0.0,0.0,0.0,0.0,0.0,0.0,0.0,0.0,0.0,0.0,0.0,0.0,0.0,0.0,0.0,0.0,0.0,0.0,0.0,0.0,0.0,0.0,0.0,0.0,0.0,0.0,0.0,0.0,0.0,0.0,0.0,0.0,0.0,0.0,0.0,-1.7119,-2.0176,-2.2344,-2.2773,-2.3008,-2.3135,-2.3135,-2.3135,-2.2656,-2.1533,-2.0283,0.0,0.0,0.0,0.0,0.0,0.0,0.0,0.0,0.0,0.0,0.0,0.0,0.0,0.0,0.0,0.0,0.0,0.0,0.0,0.0,0.0,0.0,0.0,0.0,0.0,0.0,0.0,0.0,0.0,0.0,0.0,0.0,0.0,0.0,0.0,0.0,0.0,0.0,0.0,0.0,0.0,0.0,0.0,0.0,0.0,0.0,0.0,0.0,0.0,0.0,0.0,0.0,0.0,-0.9328,-0.9875,-1.0547,-1.0694,-1.1658,-1.3264,-1.2572,-1.2635,-1.3072,-1.165,0.0,0.0,0.0,0.0,0.0,0.0,0.0,0.0,0.0,0.0,0.0,0.0,0.0,0.0,0.0,0.0,0.0,0.0,0.0,0.0,0.0,0.0,-1.5618,-1.7116,-1.788,-1.7661,-1.584,0.0,0.0,0.0,0.0,0.0,0.0,0.0,0.0,0.0,0.0,0.0,-1.8203,-2.083,-2.2705,-2.3203,-2.3252,-2.3281,-2.335,-2.3291,-2.3252,-2.3252,-2.1504,-2.0185,0.0,0.0,0.0,0.0,0.0,0.0,0.0,0.0,0.0,0.0,0.0,0.0,0.0,0.0,0.0,0.0,0.0,0.0,0.0,0.0,0.0,0.0,0.0,0.0,0.0,0.0,0.0,0.0,0.0,0.0,0.0,0.0,-0.8257,-0.8385,0.0,0.0,0.0,0.0,0.0,0.0,0.0,0.0,0.0,0.0,0.0,0.0,0.0,-0.7634,-0.8187,-0.8697,-0.9618,-1.096,-1.1479,-1.2073,-1.2719,-1.3428,-1.3429,-1.2979,-1.4328,0.0,-1.5007,-1.442,0.0,0.0,0.0,0.0,0.0,0.0,0.0,0.0,0.0,0.0,0.0,0.0,0.0,0.0,0.0,0.0,0.0,0.0,0.0,0.0,0.0,0.0,-1.9882,-2.0505,-2.0953,-2.1244,-2.0957,-1.8203,-1.5742,-1.5576,-1.5117,-1.4297,0.0,0.0,0.0,0.0,0.0,0.0,-1.9863,-2.1562,-2.2822,-2.3623,-2.3701,-2.3848,-2.4219,-2.3916,-2.3701,-2.3701,-2.3086,-2.2012,-2.0459,-1.9756,0.0,0.0,0.0,0.0,0.0,0.0,0.0,0.0,0.0,0.0,0.0,0.0,0.0,0.0,0.0,0.0,0.0,0.0,0.0,0.0,0.0,0.0,0.0,0.0,0.0,0.0,0.0,0.0,0.0,-0.8031,-0.8112,-0.8458,-0.7698,-0.6711,0.0,0.0,0.0,0.0,0.0,0.0,0.0,0.0,0.0,-0.8242,-0.868,-0.9251,-0.9837,-1.0242,-1.0913,-1.1869,-1.2137,-1.2572,-1.3149,-1.3498,-1.3725,-1.3882,-1.4587,-1.527,-1.5674,-1.5455,-1.4874,-1.4148,0.0,0.0,0.0,0.0,-1.4224,-1.4231,-1.6076,-1.6675,-1.6594,-1.615,0.0,0.0,0.0,0.0,0.0,0.0,0.0,-1.6637,-1.8389,-1.949,-2.0485,-2.1684,-2.213,-2.2264,-2.2493,-2.125,-1.9609,-1.8154,-1.7519,-1.6445,-1.4004,-1.4394,0.0,0.0,0.0,-1.916,-2.0742,-2.249,-2.3721,-2.4102,-2.4141,-2.4219,-2.4404,-2.4248,-2.4141,-2.4141,-2.374,-2.3164,-2.2412,-2.1025,-1.9365,0.0,0.0,0.0,0.0,0.0,0.0,0.0,0.0,0.0,0.0,0.0,0.0,0.0,0.0,0.0,0.0,0.0,0.0,0.0,0.0,0.0,0.0,0.0,0.0,0.0,0.0,0.0,0.0,-0.8503,-0.8549,-0.8671,-0.8403,-0.7581,0.0,0.0,0.0,0.0,0.0,0.0,-0.7487,-0.8364,-0.9067,-0.9544,-1.014,-1.0673,-1.1234,-1.1517,-1.1901,-1.2445,-1.2522,-1.2778,-1.3336,-1.327,-1.3729,-1.4431,-1.4431,-1.528,-1.6484,-1.6436,-1.621,-1.6087,-1.6333,-1.5501,-1.4542,-1.6602,-1.6997,-1.6763,-1.903,-1.9638,-1.9423,-1.9128,-1.8736,-1.8215,-1.6836,0.0,0.0,0.0,0.0,-1.858,-2.0137,-2.0649,-2.1089,-2.2339,-2.2678,-2.2698,-2.3038,-2.3135,-2.2568,-2.0644,-2.001,-1.8936,-1.624,-1.6855,0.0,-1.6562,-1.8591,-2.0636,-2.1851,-2.3073,-2.4073,-2.457,-2.458,-2.4629,-2.4746,-2.4648,-2.458,-2.458,-2.4189,-2.3906,-2.3799,-2.2246,-2.0977,-2.0098,0.0,0.0,0.0,0.0,0.0,0.0,0.0,0.0,0.0,0.0,0.0,0.0,0.0,0.0,0.0,0.0,0.0,0.0,0.0,0.0,0.0,0.0,0.0,0.0,0.0,0.0,0.0,0.0,0.0,-0.9573,-0.9409,0.0,0.0,0.0,0.0,-0.6923,-0.7793,-0.844,-0.868,-0.9517,-1.0186,-1.0539,-1.1082,-1.15,-1.1879,-1.2088,-1.2417,-1.276,-1.3015,-1.3286,-1.3608,-1.3601,-1.3743,-1.4092,-1.4092,-1.557,-1.7869,-1.8101,-1.7647,-1.7054,-1.8554,-1.8576,-1.789,-1.8852,-1.9416,-1.9783,-2.0734,-2.141,-2.1755,-2.1745,-2.0857,-1.9748,-1.9255,-1.8501,0.0,0.0,-2.0042,-2.077,-2.1992,-2.2678,-2.2931,-2.3038,-2.3047,-2.3047,-2.3135,-2.3135,-2.3096,-2.2969,-2.293,-2.2344,-2.0547,0.0,-2.0498,-2.0859,-1.9984,-2.0455,-2.3803,-2.3206,-2.3137,-2.4896,-2.5029,-2.5205,-2.5635,-2.5273,-2.5029,-2.5029,-2.4629,-2.4209,-2.3809,-2.3691,-2.2646,-2.0576,-1.9629,0.0,0.0,0.0,0.0,0.0,0.0,0.0,0.0,0.0,0.0,0.0,0.0,0.0,0.0,0.0,0.0,0.0,0.0,0.0,0.0,0.0,0.0,0.0,0.0,0.0,0.0,0.0,0.0,-0.945,-0.957,0.0,-0.7921,-0.8184,-0.8419,-0.8412,-0.9072,-0.9637,-0.9964,-1.0415,-1.0926,-1.1398,-1.1627,-1.197,-1.2472,-1.2587,-1.2825,-1.3353,-1.3447,-1.3628,-1.3925,-1.3895,-1.399,-1.4088,-1.4277,-1.5339,-1.7022,-1.8288,-1.8886,-1.9225,-2.0463,-2.0373,-1.9605,-2.0894,-2.1485,-2.1655,-2.2224,-2.2562,-2.2688,-2.2688,-2.2339,-2.1895,-2.178,-2.154,-2.1425,-2.1876,-2.2108,-2.233,-2.2795,-2.3028,-2.3154,-2.3495,-2.3564,-2.3667,-2.3869,-2.3957,-2.3965,-2.3965,-2.374,-2.3096,-2.166,-2.2314,-2.2447,-2.0569,-2.1101,-2.179,-2.2188,-2.2806,-2.3517,-2.4161,-2.4986,-2.5566,-2.5723,-2.5596,-2.5498,-2.5498,-2.4814,-2.4346,-2.4199,-2.3662,-2.3008,-2.2236,-2.1136,-1.8937,0.0,0.0,0.0,0.0,0.0,0.0,0.0,0.0,0.0,0.0,0.0,0.0,0.0,0.0,0.0,0.0,0.0,0.0,0.0,0.0,0.0,0.0,0.0,0.0,0.0,-0.9705,-0.9772,-0.8799,-0.9425,-0.9479,-0.8193,-0.8925,-0.9507,-0.9482,-1.0061,-1.0485,-1.0701,-1.108,-1.1517,-1.1907,-1.1982,-1.2298,-1.2802,-1.2878,-1.3127,-1.3607,-1.3704,-1.3893,-1.4088,-1.4088,-1.4179,-1.4277,-1.4853,-1.5891,-1.7324,-1.9042,-2.0316,-2.1222,-2.2001,-2.1876,-2.1319,-2.2339,-2.2463,-2.2157,-2.2416,-2.2795,-2.3135,-2.3135,-2.3135,-2.3135,-2.3135,-2.3135,-2.3135,-2.3135,-2.3135,-2.3144,-2.3281,-2.3378,-2.3485,-2.3867,-2.4023,-2.404,-2.4375,-2.4492,-2.4639,-2.4639,-2.4297,-2.373,-2.2891,-2.3672,-2.3741,-2.1614,-2.2251,-2.2885,-2.2487,-2.2731,-2.3384,-2.4304,-2.4716,-2.5226,-2.5635,-2.5332,-2.5205,-2.5488,-2.4687,-2.4209,-2.4209,-2.3379,-2.2793,-2.25,-2.1235,-1.8834,-1.5184,0.0,0.0,0.0,0.0,0.0,0.0,0.0,0.0,0.0,0.0,0.0,0.0,0.0,0.0,0.0,0.0,0.0,0.0,0.0,0.0,0.0,0.0,0.0,-0.8829,-0.9731,-0.9877,-0.7814,-0.918,-0.9781,-0.8594,-0.9485,-1.0129,-1.0129,-1.0694,-1.1002,-1.1037,-1.1607,-1.189,-1.189,-1.2157,-1.2499,-1.2836,-1.3043,-1.3328,-1.3613,-1.3899,-1.4088,-1.4088,-1.4179,-1.4277,-1.4572,-1.5871,-1.7432,-1.9233,-2.0436,-2.177,-2.3135,-2.3135,-2.3135,-2.3135,-2.3135,-2.2377,-2.1318,-2.1396,-2.2117,-2.3135,-2.3135,-2.3135,-2.3135,-2.3135,-2.3135,-2.3135,-2.3135,-2.3135,-2.3164,-2.372,-2.3789,-2.3937,-2.4301,-2.44,-2.4447,-2.4411,-2.4762,-2.5088,-2.5088,-2.4746,-2.4453,-2.4453,-2.4361,-2.4361,-2.4361,-2.3539,0.0,-2.4784,-2.3036,-2.2659,-2.5314,-2.4492,-2.4285,-2.5616,-2.456,-2.4189,-2.5039,-2.4297,-2.3828,-2.3828,-2.3018,-2.2178,-2.1247,-2.0051,-1.7963,-1.5034,0.0,0.0,0.0,0.0,0.0,0.0,0.0,0.0,0.0,0.0,0.0,0.0,0.0,0.0,0.0,0.0,0.0,0.0,0.0,0.0,0.0,-0.9904,-1.0606,-1.0109,-1.0432,-1.0432,-0.9649,-0.9717,-0.9821,-0.9643,-1.0112,-1.0555,-1.0764,-1.0911,-1.1218,-1.1622,-1.1801,-1.197,-1.2211,-1.2477,-1.2784,-1.3057,-1.3339,-1.3613,-1.3984,-1.4082,-1.4088,-1.4179,-1.524,-1.5247,-1.462,-1.7258,-1.8589,-1.9223,-2.0571,-2.1895,-2.3135,-2.3135,-2.3135,-2.3135,-2.3135,-2.2911,-2.2587,-2.2629,-2.2804,-2.3135,-2.3135,-2.3135,-2.3135,-2.3135,-2.3135,-2.3135,-2.3135,-2.3135,-2.3164,-2.372,-2.3832,-2.4023,-2.4772,-2.49,-2.4946,-2.5286,-2.5411,-2.5557,-2.5557,-2.5459,-2.5371,-2.5371,-2.4562,-2.3855,-2.3855,-2.1945,-2.0702,-2.1099,-2.1492,-2.1854,-2.2279,-2.3745,-2.4842,-2.5244,-2.4922,-2.4961,-2.5518,-2.5029,-2.4717,-2.4717,-2.4189,-2.3185,-2.1836,-2.007,-1.836,0.0,0.0,0.0,0.0,0.0,0.0,0.0,0.0,0.0,0.0,0.0,0.0,0.0,0.0,0.0,0.0,0.0,0.0,0.0,0.0,0.0,0.0,-1.0545,-1.0986,-1.0743,-1.0499,-1.0246,-0.9904,-0.9758,-0.9814,-1.01,-1.0396,-1.0701,-1.0989,-1.1088,-1.1355,-1.1851,-1.1977,-1.2137,-1.2305,-1.2639,-1.2896,-1.3209,-1.3474,-1.3741,-1.4088,-1.4565,-1.4558,-1.4179,-1.6124,-1.6422,-1.5634,-1.8596,-1.9912,-2.0105,-2.1443,-2.2456,-2.3135,0.0,0.0,0.0,0.0,-2.2677,-2.3047,-2.2492,-2.2677,-2.3135,-2.3135,-2.3135,-2.3135,-2.3135,-2.3271,-2.3435,-2.3435,-2.3553,-2.3791,-2.4177,-2.4339,-2.4482,-2.5227,-2.5363,-2.5373,-2.5625,-2.5742,-2.5742,-2.5742,-2.5742,0.0,-2.5742,-2.502,-2.4445,-2.4268,-2.3079,-2.2114,-2.1953,-2.2264,-2.2681,-2.2965,-2.3934,-2.4746,-2.5342,-2.4844,0.0,0.0,0.0,-2.4453,-2.4268,-2.3276,0.0,0.0,0.0,-1.9424,-1.8717,-1.7236,0.0,0.0,-1.3827,-1.3727,0.0,0.0,0.0,0.0,0.0,0.0,0.0,0.0,0.0,0.0,0.0,0.0,0.0,0.0,0.0,0.0,-1.1389,-1.1547,-1.0771,-1.0198,-0.9694,-0.9312,-0.9525,-0.9879,-1.0154,-1.0423,-1.0728,-1.1015,-1.1299,-1.1573,-1.1964,-1.2137,0.0,0.0,0.0,-1.2928,-1.322,-1.3592,-1.3905,-1.4088,-1.5303,-1.5343,-1.4343,-1.7075,-1.7766,-1.7167,-1.992,-2.1169,-2.1425,-2.2581,-2.3135,-2.3135,-2.3135,-2.3135,-2.296,-2.1933,-2.2217,-2.296,-2.1845,0.0,0.0,-2.3135,-2.3135,-2.3154,-2.3193,-2.3502,-2.3769,-2.3846,-2.4108,-2.4492,-2.4937,-2.5137,-2.5227,-2.5616,-2.5742,-2.5742,-2.5742,-2.5742,-2.5742,-2.5742,-2.5742,-2.5742,-2.5742,-2.5538,-2.5402,-2.5205,-2.5179,-2.5179,-2.4995,-2.417,-2.4177,-2.5256,-2.4436,0.0,-2.5557,-2.46,-2.4287,-2.5098,-2.4434,-2.3838,-2.3447,-2.1831,-2.1074,-2.1162,-2.1116,-2.1068,-2.0954,-2.0954,-2.0979,-2.0937,-1.7616,-1.7329,0.0,0.0,0.0,0.0,0.0,0.0,0.0,0.0,0.0,0.0,0.0,0.0,0.0,0.0,0.0,-1.0713,-1.1287,-1.1384,-1.0163,-1.0121,-1.005,-0.9663,-0.9826,-1.014,-1.0483,-1.0577,-1.0819,-1.1296,-1.1388,-1.1642,-1.2191,-1.2298,-1.2305,-1.2305,-1.2859,-1.3141,-1.32,-1.46,-1.4864,-1.4088,-1.6079,0.0,-1.5487,-1.8411,-1.9127,-1.828,-2.1344,-2.212,-2.1425,-2.2581,-2.3135,-2.3135,-2.3135,-2.3135,-2.3047,-2.2862,-2.2862,-2.3047,-2.2862,-2.2862,-2.3135,-2.3135,-2.3135,-2.3203,-2.3555,-2.3769,0.0,-2.415,-2.4313,-2.4523,-2.4986,-2.5102,-2.5227,-2.5616,-2.5742,-2.5742,-2.5742,-2.5742,-2.5742,-2.5742,-2.5742,-2.5742,-2.5742,-2.4815,-2.4482,-2.5412,-2.3845,-2.2841,-2.3889,-2.3845,-2.3664,-2.3542,-2.4296,-2.4899,-2.5195,-2.4971,-2.5049,-2.5576,-2.5449,-2.5322,-2.5244,-2.4607,-2.4179,-2.4272,-2.3842,-2.3121,-2.2123,-2.2218,-2.2378,-2.2558,-2.0644,-2.0079,0.0,0.0,0.0,0.0,0.0,0.0,0.0,0.0,0.0,0.0,0.0,-1.025,-1.0557,0.0,-1.1881,-1.1753,-1.1787,-1.1663,-1.1207,-1.0763,-1.0321,-0.978,-0.9953,-1.0248,-1.0591,-1.0624,-1.0802,-1.1383,-1.1365,-1.1636,-1.2278,-1.2732,-1.3025,-1.3025,-1.3923,-1.426,-1.3888,-1.542,-1.5754,-1.4894,-1.7097,-1.7552,-1.6594,-1.9688,-2.0395,-1.9451,-2.2001,-2.2795,-2.2233,-2.2814,-2.3135,-2.3135,-2.3135,-2.3135,-2.3135,-2.3135,-2.3135,-2.3135,-2.3135,-2.3135,-2.3135,-2.3135,-2.3135,-2.3223,-2.3662,-2.3935,-2.4219,-2.4672,-2.4888,-2.5121,-2.5305,-2.5373,-2.5479,-2.5625,-2.5742,-2.5742,-2.5742,-2.5742,-2.5742,-2.5742,-2.5742,-2.5742,-2.5742,-2.5118,-2.4922,-2.5635,-2.4609,-2.389,-2.4609,-2.4716,-2.4632,-2.4425,-2.4996,-2.54,-2.54,-2.54,-2.5498,-2.5723,-2.5118,-2.502,-2.5635,-2.4908,-2.4697,-2.54,-2.5185,-2.4688,-2.4096,-2.4096,-2.42,-2.43,-2.3593,-2.3299,0.0,0.0,0.0,0.0,0.0,0.0,0.0,-0.9634,-0.9781,-1.0338,-1.0814,-1.1296,-1.1778,-1.2132,-1.2457,-1.2861,-1.2391,-1.2122,-1.2452,-1.1688,-1.0932,-1.0356,-1.0227,-1.0282,-1.0598,-1.0724,-1.1077,-1.1675,-1.1819,-1.2184,-1.2851,-1.3593,-1.3954,-1.3954,-1.5073,-1.5351,-1.4941,-1.628,-1.6636,-1.6034,-1.8263,-1.869,-1.7692,-2.0618,-2.1436,-2.062,-2.2311,-2.3135,-2.3135,-2.3135,-2.3135,-2.3135,-2.3135,-2.3135,-2.3135,-2.3135,-2.3135,-2.3135,-2.3135,-2.3135,-2.3135,-2.3135,-2.3135,-2.3232,-2.376,-2.415,-2.4521,-2.5049,-2.5459,-2.5742,-2.5742,-2.5742,-2.5742,-2.5742,-2.5742,-2.5742,-2.5742,-2.5742,-2.5742,-2.5742,-2.5742,-2.5742,-2.5742,-2.5742,-2.5742,-2.5742,-2.5742,-2.5742,-2.5742,-2.5742,-2.5742,-2.5742,-2.5742,-2.5742,-2.5742,-2.5742,-2.5742,-2.5742,-2.4716,-2.4609,-2.5635,-2.4609,-2.4609,-2.5635,-2.5742,-2.5538,-2.5323,-2.5538,-2.5576,-2.5448,-2.5664,-2.5859,-1.2253,-1.1418,-1.0616,-1.0541,-1.0518,-1.077,0.0,-1.1925,-1.1862,-1.1915,-1.2332,-1.2665,-1.2763,-1.2812,-1.2861,-1.2871,-1.2832,-1.2721,-1.2504,-1.2573,-1.2556,-1.229,-1.1243,-1.0577,-1.0618,-1.1257,-1.1939,-1.2709,-1.3377,-1.411,-1.4846,-1.495,-1.5021,-1.5021,-1.5364,-1.5716,-1.5992,-1.7449,-1.7769,-1.718,-1.939,-1.9872,-1.8877,-2.0918,-2.1816,-2.1749,-2.2698,-2.3135,-2.3135,-2.3135,-2.3135,-2.3135,-2.3135,-2.3135,-2.3135,-2.3135,-2.3135,-2.3135,-2.3135,-2.3135,-2.3135,-2.3135,-2.3135,-2.3291,-2.4102,-2.4375,-2.459,-2.543,-2.5703,-2.5742,-2.5742,-2.5742,-2.5742,-2.5742,-2.5742,-2.5742,-2.5742,-2.5742,-2.5742,-2.5742,-2.5742,-2.5742,-2.5742,-2.5742,-2.5742,-2.5742,-2.5742,-2.5742,-2.5742,-2.5742,-2.5742,-2.5742,-2.5742,-2.5742,-2.5742,-2.5742,-2.5742,-2.5742,-2.5538,-2.5538,-2.5732,-2.5538,-2.5538,-2.5742,-2.5742,-2.5118,-2.3899,-2.5118,-2.5309,-2.4509,-2.5781,-2.6318,-1.3627,-1.287,-1.2005,-1.2133,-1.2159,-1.2249,-1.267,-1.2704,-1.2646,-1.2609,-1.2754,-1.2881,-1.2881,-1.2881,-1.2881,-1.2881,-1.2881,-1.3016,-1.3404,-1.3149,-1.3052,-1.3464,-1.2623,-1.1971,-1.1996,-1.2313,-1.2833,-1.3541,-1.3917,-1.4445,-1.5122,-1.572,-1.6,-1.6,-1.6668,-1.6982,-1.7076,-1.8313,-1.865,-1.831,-1.9835,-2.0401,-1.9951,-2.1296,-2.2193,-2.2591,-2.294,-2.3135,-2.3135,-2.3135,-2.3135,-2.3135,-2.3135,-2.3135,-2.3135,-2.3135,-2.3135,-2.3135,-2.3135,-2.3135,-2.3135,-2.3135,-2.3271,-2.3584,-2.4187,-2.4625,-2.4967,-2.5508,-2.5742,-2.5742,-2.5742,-2.5742,-2.5742,-2.5742,-2.5742,-2.5742,-2.5742,-2.5742,-2.5742,-2.5742,-2.5742,-2.5742,-2.5742,-2.5742,-2.5742,-2.5742,-2.5742,-2.5742,-2.5742,-2.5742,-2.5742,-2.5742,-2.5742,-2.5742,-2.5742,-2.5742,-2.5742,-2.5742,-2.5742,-2.5742,-2.5742,-2.5742,-2.5742,-2.5742,-2.5742,-2.5556,-2.5282,-2.5807,-2.6019,-2.5888,-2.6435,-2.6894,-1.3852,-1.3358,-1.304,-1.3183,-1.3423,-1.3619,-1.3517,-1.3479,-1.3445,-1.3429,-1.3238,-1.3152,-1.3152,-1.3152,-1.3104,-1.2929,-1.2881,-1.3174,-1.4014,-1.3584,-1.3561,-1.4414,-1.3992,-1.3631,-1.3653,-1.3449,-1.3639,-1.4423,-1.4707,-1.5135,-1.5904,-1.6645,-1.6991,-1.6991,-1.7647,-1.8059,-1.8147,-1.8912,-1.9333,-1.9441,-2.0245,-2.0566,-2.0596,-2.1484,-2.2344,-2.3135,-2.3135,-2.3135,-2.3135,-2.3135,-2.3135,-2.3135,-2.3135,-2.3135,-2.3135,-2.3135,-2.3135,-2.3135,-2.3135,-2.3135,-2.3135,-2.3135,-2.3398,-2.3897,-2.4265,-2.4766,-2.5222,-2.5624,-2.5742,-2.5742,-2.5742,-2.5742,-2.5742,-2.5742,-2.5742,-2.5742,-2.5742,-2.5742,-2.5742,-2.5742,-2.5742,-2.5742,-2.5742,-2.5742,-2.5742,-2.5742,-2.5742,-2.5742,-2.5742,-2.5742,-2.5538,-2.5226,-2.5128,-2.502,-2.4609,-2.4609,-2.4609,-2.4609,-2.4922,-2.5128,-2.5128,-2.5528,-2.5742,-2.5742,-2.5742,-2.5947,-2.6387,-2.6387,-2.666,-2.7197,-2.7197,-2.7422,-1.2427,-1.2369,-1.304,-1.3183,-1.4036,-1.4848,-1.475,-1.4683,-1.4664,-1.4652,-1.419,-1.3768,-1.3768,-1.3768,-1.36,-1.3027,-1.2881,-1.3174,-1.4014,-1.4077,-1.4398,-1.5255,-1.5352,-1.5362,-1.5303,-1.4606,-1.4543,-1.5368,-1.6158,-1.6986,-1.7901,-1.794,-1.794,-1.794,-1.8008,-1.8418,-1.9204,-1.9287,-1.9717,-2.0557,-2.0566,-2.0566,-2.0596,-2.1484,-2.2344,-2.3135,-2.3135,-2.3135,-2.3135,-2.3135,-2.3135,-2.3135,-2.3135,-2.3135,-2.3135,-2.3135,-2.3135,-2.3135,-2.3135,-2.3135,-2.3135,-2.3135,-2.3398,-2.3889,-2.4261,-2.4759,-2.5222,-2.5624,-2.5742,-2.5742,-2.5742,-2.5742,-2.5742,-2.5742,-2.5742,-2.5742,-2.5742,-2.5742,-2.5742,-2.5742,-2.5742,-2.5742,-2.5742,-2.5742,-2.5742,-2.5742,-2.5742,-2.5742,-2.5742,-2.5742,-2.5226,-2.389,-2.3791,-2.3276,-2.1954,-2.1853,-2.1853,-2.1853,-2.3076,-2.3791,-2.3791,-2.502,-2.5742,-2.5742,-2.5742,-2.5947,-2.6387,-2.6387,-2.6826,-2.7646,-2.7646,-2.7871,-1.2997,-1.295,-1.3192,-1.4094,-1.4639,-1.4985,-1.5277,-1.5292,-1.5186,-1.4789,-1.4236,-1.3909,-1.4329,-1.405,-1.3732,-1.3552,-1.3515,-1.3628,-1.4067,-1.4119,-1.4405,-1.5293,-1.541,-1.541,-1.541,-1.5177,-1.5234,-1.584,-1.6413,-1.6967,-1.7542,-1.7833,-1.8008,-1.8008,-1.8008,-1.8418,-1.9277,-1.9991,-2.072,-2.1517,-2.1517,-2.1544,-2.1445,-2.1748,-2.2344,-2.3135,-2.3135,-2.3135,-2.3135,-2.3135,-2.3135,-2.3135,-2.3135,-2.3135,-2.3135,-2.3135,-2.3135,-2.3135,-2.3135,-2.3135,-2.3135,-2.3135,-2.3577,-2.4192,-2.4345,-2.4919,-2.5496,-2.5664,-2.5742,-2.5742,-2.5742,-2.5742,-2.5742,-2.5742,-2.5742,-2.5742,-2.5742,-2.5742,-2.5742,-2.5742,-2.5742,-2.5742,-2.5742,-2.5742,-2.543,-2.451,-2.4402,-2.4402,-2.4402,-2.3592,-2.2868,-2.2466,-2.2366,-2.2156,-2.1752,-2.1752,-2.1752,-2.1752,-2.2156,-2.2767,-2.3692,-2.4097,-2.4815,-2.5635,-2.5742,-2.6084,-2.6807,-2.6807,-2.7246,-2.8086,-2.8086,-2.8154,-1.3587,-1.3517,-1.3624,-1.4824,-1.5171,-1.5312,-1.5801,-1.5764,-1.5543,-1.5377,-1.4688,-1.4349,-1.4892,-1.437,-1.3864,-1.4005,-1.3828,-1.3851,-1.4297,-1.435,-1.4597,-1.5312,-1.541,-1.541,-1.541,-1.541,-1.5576,-1.6045,-1.6445,-1.6879,-1.7339,-1.7755,-1.8008,-1.8008,-1.8269,-1.8893,-1.9847,-2.0744,-2.17,-2.2553,-2.2553,-2.26,-2.2744,-2.2898,-2.3371,-2.3985,-2.3816,-2.3714,-2.3714,-2.3299,-2.3135,-2.3135,-2.3135,-2.3135,-2.3135,-2.3135,-2.3135,-2.3135,-2.3135,-2.3135,-2.3135,-2.3135,-2.3712,-2.4356,-2.4356,-2.4985,-2.5742,-2.5742,-2.5742,-2.5742,-2.5742,-2.5742,-2.5742,-2.5742,-2.5742,-2.5742,-2.5742,-2.5742,-2.5742,-2.5742,-2.5742,-2.5742,-2.5742,-2.5742,-2.5226,-2.389,-2.3276,-2.2976,-2.2976,-2.2257,-2.155,-2.1041,-2.0939,-2.0735,-2.0333,-2.0231,-2.0231,-2.0231,-2.1143,-2.2055,-2.2976,-2.3899,-2.4815,-2.5635,-2.5742,-2.6084,-2.6797,-2.6943,-2.7373,-2.8066,-2.8223,-2.8291,-1.4051,-1.4062,-1.4239,-1.5233,-1.562,-1.5872,-1.6384,-1.6051,-1.5796,-1.6305,-1.5545,-1.4903,-1.5393,-1.4601,-1.4005,-1.4344,-1.3912,-1.3876,-1.4681,-1.477,-1.4923,-1.5342,-1.541,-1.541,-1.541,-1.541,-1.5576,-1.6035,-1.6448,-1.691,-1.7369,-1.7745,-1.8018,-1.8095,-1.8865,-1.9817,-2.0832,-2.1757,-2.2666,-2.3565,-2.3565,-2.3824,-2.4243,-2.4735,-2.524,-2.5583,-2.508,-2.4872,-2.4702,-2.3627,-2.3135,-2.3135,-2.3135,-2.3135,-2.3135,-2.3135,-2.3135,-2.3135,-2.3135,-2.3135,-2.3135,-2.3135,-2.3693,-2.4406,-2.4416,-2.4965,-2.5742,-2.5742,-2.5742,-2.5742,-2.5742,-2.5742,-2.5742,-2.5742,-2.5742,-2.5742,-2.5742,-2.5742,-2.5742,-2.5742,-2.5742,-2.5742,-2.5742,-2.5742,-2.5226,-2.3791,-2.2567,-2.1752,-2.1651,-2.155,-2.0939,-1.9627,-1.9531,-1.902,-1.7687,-1.7582,-1.7582,-1.7582,-2.0128,-2.1651,-2.1752,-2.4196,-2.5635,-2.5742,-2.5742,-2.5967,-2.6426,-2.6816,-2.7246,-2.7705,-2.8105,-2.8291,-1.4498,-1.5036,-1.5524,-1.5522,-1.5917,-1.6334,-1.6469,-1.638,-1.6101,-1.5454,-1.4728,-1.4118,-1.384,-1.3906,-1.4022,-1.4098,-1.4295,-1.4514,-1.4972,-1.4592,-1.454,-1.5321,-1.541,-1.541,-1.541,-1.541,-1.542,-1.5566,-1.628,-1.6748,-1.6859,-1.7571,-1.8291,-1.8937,-1.9209,-2.0044,-2.1704,-2.3409,-2.4341,-2.46,-2.46,-2.4484,-2.4246,-2.4746,-2.5236,-2.5583,-2.592,-2.5546,-2.4787,-2.4457,-2.3887,-2.3135,-2.3135,-2.3135,-2.3135,-2.3135,-2.3135,-2.3135,-2.3135,-2.3135,-2.3135,-2.3135,-2.3648,-2.4426,-2.4402,-2.5025,-2.5742,-2.5742,-2.5742,-2.5742,-2.5742,-2.5742,-2.5742,-2.5742,-2.5742,-2.5742,-2.5742,-2.5742,-2.5742,-2.5742,-2.5742,-2.5742,-2.5742,-2.5742,-2.4922,-2.2567,-2.2767,-2.2466,-2.0436,-1.9213,-1.8499,-1.8199,-1.8094,-1.7989,-1.7582,-1.7582,-1.7582,-1.7582,-1.9213,-2.0641,-2.1651,-2.3285,-2.4707,-2.5635,-2.5742,-2.6103,-2.6855,-2.6963,-2.7402,-2.8135,-2.8242,-2.8291,-1.5391,-1.6025,-1.6564,-1.5928,-1.6319,-1.6664,-1.5954,-1.5793,-1.548,-1.4387,-1.3692,-1.3277,-1.3204,-1.3435,-1.3745,-1.4205,-1.4642,-1.5037,-1.5346,-1.5049,-1.4938,-1.537,-1.541,-1.541,-1.541,-1.541,-1.5488,-1.5722,-1.629,-1.6677,-1.6686,-1.791,-1.8761,-1.9301,-2.0034,-2.137,-2.3228,-2.4816,-2.5667,-2.5635,-2.5635,-2.5501,-2.5252,-2.6034,-2.6497,-2.6705,-2.7047,-2.6871,-2.6191,-2.5703,-2.4882,-2.3887,-2.3887,-2.3551,-2.3135,-2.3135,-2.3135,-2.3135,-2.3135,-2.3135,-2.3135,-2.3135,-2.3703,-2.4364,-2.4423,-2.5024,-2.5742,-2.5742,-2.5742,-2.5742,-2.5742,-2.5742,-2.5742,-2.5742,-2.5742,-2.5742,-2.5742,-2.5742,-2.5742,-2.5742,-2.5226,-2.4815,-2.4815,-2.4304,-2.3176,-2.1143,-2.1456,-2.1151,-1.9013,-1.861,-1.8304,-1.7687,-1.7582,-1.7582,-1.7582,-1.7582,-1.7582,-1.7582,-1.942,-2.0837,-2.1651,-2.3583,-2.4922,-2.5645,-2.5928,-2.626,-2.6738,-2.7119,-2.7549,-2.8027,-2.8203,-2.8291,-1.6496,-1.7105,-1.7515,-1.6585,-1.6896,-1.6994,-1.5478,-1.4992,-1.4576,-1.3336,-1.268,-1.2404,-1.2697,-1.2912,-1.33,-1.424,-1.488,-1.5378,-1.5842,-1.571,-1.5576,-1.5566,-1.5488,-1.541,-1.541,-1.541,-1.5566,-1.5966,-1.6514,-1.6917,-1.6955,-1.8466,-1.9406,-1.966,-2.1373,-2.3067,-2.4803,-2.595,-2.6533,-2.6533,-2.6533,-2.6533,-2.6559,-2.7645,-2.8079,-2.8122,-2.8281,-2.8231,-2.8024,-2.714,-2.6075,-2.4988,-2.4861,-2.4211,-2.3299,-2.3135,-2.3135,-2.3135,-2.3135,-2.3135,-2.3135,-2.3135,-2.373,-2.4442,-2.4384,-2.4977,-2.5742,-2.5742,-2.5742,-2.5742,-2.5742,-2.5742,-2.5742,-2.5742,-2.5742,-2.5742,-2.5742,-2.5742,-2.5635,-2.5226,-2.4402,-2.3692,-2.3484,-2.2458,-2.1245,-1.9834,-1.9731,-1.9324,-1.7786,-1.8603,-1.8916,-1.7681,-1.7582,-1.7582,-1.7582,-1.7582,-1.7687,-1.7891,-2.0333,-2.1752,-2.1954,-2.4402,-2.5762,-2.582,-2.6191,-2.6445,-2.6553,-2.7305,-2.7695,-2.7754,-2.8125,-2.8291,-1.762,-1.8294,-1.8812,-1.784,-1.7772,-1.7637,-1.6493,-1.5531,-1.4462,-1.2881,-1.2115,-1.1475,-1.0634,-1.1597,-1.2725,-1.3334,-1.4268,-1.5372,-1.6675,-1.588,-1.5488,-1.6212,-1.58,-1.541,-1.541,-1.541,-1.542,-1.5498,-1.6914,-1.7955,-1.8261,-1.8927,-1.9952,-2.1407,-2.3304,-2.4431,-2.4791,-2.5903,-2.6533,-2.6533,-2.6533,-2.6533,-2.6502,-2.7613,-2.8074,-2.8185,-2.9126,-2.9012,-2.8125,-2.7879,-2.7205,-2.6099,-2.5135,-2.4713,-2.4372,-2.3464,-2.3135,-2.3135,-2.3135,-2.3135,-2.3135,-2.3135,-2.373,-2.4414,-2.4364,-2.5024,-2.5742,-2.5742,-2.5742,-2.5742,-2.5742,-2.5742,-2.5742,-2.5742,-2.5742,-2.5742,-2.5742,-2.5742,-2.502,-2.2868,-2.3076,-2.3384,-2.2257,-2.1853,-2.1245,-1.9834,-2.0641,-2.0428,-1.7884,-1.7786,-1.7891,-1.7582,-1.7582,-1.7582,-1.7582,-1.7582,-1.8094,-1.922,-2.0837,-2.2156,-2.3285,-2.4815,-2.5908,-2.6269,-2.6348,-2.6738,-2.7441,-2.7598,-2.7842,-2.8184,-2.8262,-2.8291,-1.8767,-1.9167,-1.9435,-1.851,-1.8389,-1.7921,-1.573,-1.4791,-1.3792,-1.156,-1.0885,-1.0546,-1.0006,-1.1274,-1.2582,-1.3128,-1.437,-1.5605,-1.6534,-1.6359,-1.6147,-1.611,-1.6019,-1.5813,-1.5468,-1.541,-1.5498,-1.5732,-1.7175,-1.8094,-1.8251,-1.9781,-2.1221,-2.248,-2.3764,-2.4532,-2.48,-2.5623,-2.6189,-2.6533,-2.6533,-2.6533,-2.6571,-2.7648,-2.8084,-2.8122,-2.9277,-2.9512,-2.8991,-2.8991,-2.8336,-2.7317,-2.6691,-2.5788,-2.4692,-2.4159,-2.3597,-2.3135,-2.3135,-2.3135,-2.3135,-2.3135,-2.373,-2.4424,-2.4355,-2.4985,-2.5742,-2.5742,-2.5742,-2.5742,-2.5742,-2.5742,-2.5742,-2.5742,-2.5742,-2.5538,-2.4815,-2.4609,-2.4097,-2.2055,-2.1651,-2.1355,-2.0743,-2.0025,-1.9317,-1.8708,-1.9109,-1.9109,-1.7786,-1.7582,-1.7582,-1.7582,-1.7582,-1.7582,-1.7582,-1.8199,-1.8916,-1.9524,-2.1558,-2.3076,-2.3683,-2.502,-2.5947,-2.6387,-2.6602,-2.7031,-2.7666,-2.7891,-2.8096,-2.8291,-2.8291,-2.8291,-1.982,-1.9926,-1.9957,-1.9162,-1.8927,-1.8141,-1.5304,-1.437,-1.34,-1.0906,-1.0186,-1.0008,-1.0071,-1.1152,-1.2348,-1.3249,-1.4521,-1.557,-1.6243,-1.6774,-1.6746,-1.5864,-1.6208,-1.6234,-1.5468,-1.541,-1.5644,-1.6133,-1.7653,-1.8581,-1.8833,-2.0973,-2.2455,-2.3065,-2.3679,-2.4292,-2.4804,-2.5296,-2.5871,-2.6533,-2.6533,-2.6533,-2.6559,-2.7599,-2.8083,-2.8137,-2.9315,-2.9792,-2.9792,-2.9792,-2.9269,-2.8472,-2.822,-2.6931,-2.5163,-2.4914,-2.4049,-2.3135,-2.3135,-2.3135,-2.3135,-2.3135,-2.373,-2.4424,-2.4355,-2.4985,-2.5742,-2.5742,-2.5742,-2.5742,-2.5742,-2.5742,-2.5742,-2.5742,-2.543,-2.4913,-2.3583,-2.3276,-2.2876,-2.155,-2.0333,-1.9627,-1.9627,-1.8506,-1.7582,-1.7582,-1.7582,-1.7582,-1.7582,-1.7582,-1.7582,-1.7582,-1.7582,-1.7582,-1.7582,-1.861,-1.942,-2.0033,-2.2064,-2.3484,-2.4097,-2.5118,-2.5947,-2.6387,-2.6797,-2.7226,-2.7666,-2.8086,-2.8291,-2.8291,-2.8291,-2.8291,-2.0527,-2.0657,-2.0766,-2.0289,-1.9519,-1.8533,-1.7116,-1.5586,-1.3973,-1.2332,-1.1123,-1.0401,-1.0586,-1.0756,-1.1538,-1.3668,-1.4133,-1.4761,-1.6191,-1.6791,-1.6788,-1.5975,-1.6245,-1.6229,-1.5478,-1.541,-1.5722,-1.6437,-1.8777,-2.0554,-2.151,-2.2456,-2.304,-2.3078,-2.3679,-2.4288,-2.4758,-2.5319,-2.5871,-2.6533,-2.6533,-2.6533,-2.6546,-2.7618,-2.8114,-2.8122,-2.9339,-2.9792,-2.9792,-2.9792,-2.9767,-2.9537,-2.8497,-2.7359,-2.6244,-2.5168,-2.4052,-2.3135,-2.3135,-2.3135,-2.3135,-2.3135,-2.373,-2.4424,-2.4355,-2.4985,-2.5742,-2.5742,-2.5742,-2.5742,-2.5742,-2.5742,-2.5742,-2.5742,-2.4815,-2.3484,-2.2156,-2.1853,-2.1448,-2.0033,-1.9731,-1.9627,-1.9627,-1.8506,-1.7582,-1.7582,-1.7582,-1.7582,-1.7582,-1.7582,-1.7582,-1.7582,-1.7582,-1.7582,-1.7582,-1.7687,-1.8805,-2.1347,-2.1752,-2.2976,-2.543,-2.5635,-2.5947,-2.6387,-2.6797,-2.7226,-2.7666,-2.8086,-2.8291,-2.8291,-2.8291,-2.8291,-2.1507,-2.1474,-2.1306,-2.1134,-2.0418,-1.9256,-1.7399,-1.5943,-1.4363,-1.2182,-1.1017,-1.0449,-1.0663,-1.0696,-1.1324,-1.3262,-1.3556,-1.4011,-1.5314,-1.5882,-1.6018,-1.5564,-1.5871,-1.5911,-1.5429,-1.58,-1.6857,-1.8707,-1.9787,-2.1068,-2.254,-2.2942,-2.3078,-2.3078,-2.3346,-2.3888,-2.4758,-2.5,-2.561,-2.6533,-2.6533,-2.6533,-2.6546,-2.7276,-2.778,-2.8142,-2.895,-2.9499,-2.9792,-2.9792,-2.9792,-2.9767,-2.9282,-2.8029,-2.6485,-2.5979,-2.4661,-2.3135,-2.3135,-2.3135,-2.3135,-2.3135,-2.3505,-2.4068,-2.4336,-2.4985,-2.5742,-2.5742,-2.5742,-2.5742,-2.5742,-2.5742,-2.5742,-2.5742,-2.5323,-2.451,-2.3176,-2.2868,-2.2466,-2.1143,-2.0128,-1.9627,-1.9627,-1.8506,-1.7582,-1.7582,-1.7582,-1.7582,-1.7582,-1.7582,-1.7582,-1.7582,-1.7582,-1.7582,-1.7582,-1.8297,-1.9317,-2.0333,-2.1245,-2.2567,-2.4402,-2.451,-2.5112,-2.6377,-2.5699,-2.5657,-2.6078,-2.562,-2.537,-2.5379,-2.5501,-2.5608,-2.2107,-2.1974,-2.1582,-2.1582,-2.0878,-1.9684,-1.7777,-1.6276,-1.4672,-1.2416,-1.1261,-1.0697,-1.0818,-1.0837,-1.1361,-1.2937,-1.3208,-1.3602,-1.4694,-1.5453,-1.5729,-1.5282,-1.5816,-1.6134,-1.5808,-1.6644,-1.8092,-2.033,-2.0831,-2.1765,-2.3457,-2.367,-2.3593,-2.3125,-2.3078,-2.3666,-2.4758,-2.4781,-2.5387,-2.6533,-2.6533,-2.6533,-2.6533,-2.7036,-2.7621,-2.8147,-2.8659,-2.9257,-2.9792,-2.9792,-2.9792,-2.9792,-2.9792,-2.8445,-2.6474,-2.6485,-2.5069,-2.3135,-2.3135,-2.3135,-2.3135,-2.3135,-2.3389,-2.389,-2.4325,-2.4919,-2.5537,-2.5693,-2.5742,-2.5742,-2.5742,-2.5742,-2.5742,-2.5742,-2.543,-2.4815,-2.389,-2.3384,-2.2976,-2.2366,-2.1143,-2.0341,-2.0743,-1.9317,-1.8199,-1.8199,-1.7891,-1.7582,-1.7582,-1.7582,-1.7582,-1.7582,-1.7582,-1.7582,-1.7582,-1.8506,-1.922,-1.9524,-2.0538,-2.1651,-2.3076,-2.3076,-2.3718,-2.4939,-2.4113,-2.3891,-2.4165,-2.3597,-2.3295,-2.3402,-2.3549,-2.3723,-2.2107,-2.1974,-2.1582,-2.1582,-2.0756,-1.9654,-1.8609,-1.6778,-1.4923,-1.3556,-1.2215,-1.1277,-1.1208,-1.1199,-1.1622,-1.2983,-1.3208,-1.3569,-1.465,-1.5779,-1.6213,-1.5398,-1.6385,-1.7,-1.6832,-1.7958,-1.9226,-2.0617,-2.1882,-2.315,-2.4421,-2.5077,-2.465,-2.3173,-2.3078,-2.3666,-2.4758,-2.4781,-2.5387,-2.6533,-2.6533,-2.6533,-2.6533,-2.7036,-2.7621,-2.8147,-2.8659,-2.9257,-2.9792,-2.9792,-2.9792,-2.9792,-2.9792,-2.8484,-2.6535,-2.6502,-2.5047,-2.3135,-2.3135,-2.3135,-2.3135,-2.3135,-2.3417,-2.3832,-2.4234,-2.4761,-2.5153,-2.5586,-2.5742,-2.5742,-2.5742,-2.5742,-2.5742,-2.5742,-2.4716,-2.3692,-2.3692,-2.2667,-2.2156,-2.3384,-2.2567,-2.2055,-2.3384,-2.1355,-1.9627,-1.9627,-1.8401,-1.7582,-1.7582,-1.7582,-1.7582,-1.7582,-1.7582,-1.7582,-1.7582,-1.7582,-1.8199,-1.9531,-1.9627,-2.0231,-2.1651,-2.1752,-2.1752,-2.1752,-2.2125,-2.2316,-2.2324,-2.2681,-2.3046,-2.3402,-2.3402,-2.3601,-2.0185,-2.0365,-2.0401,-1.9881,-1.9673,-1.9341,-1.8572,-1.7141,-1.5525,-1.3986,-1.276,-1.1886,-1.1601,-1.1238,-1.1669,-1.3757,-1.3782,-1.4111,-1.5737,-1.6235,-1.6625,-1.7087,-1.8096,-1.8904,-1.9371,-1.9691,-2.0474,-2.1755,-2.2196,-2.2718,-2.3528,-2.3707,-2.3858,-2.3949,-2.3901,-2.4203,-2.4806,-2.4822,-2.5387,-2.6533,-2.6533,-2.6533,-2.6533,-2.6678,-2.7218,-2.8139,-2.8263,-2.8923,-2.9792,-2.9792,-2.9792,-2.9792,-2.9792,-2.8445,-2.6508,-2.6463,-2.5057,-2.3135,-2.3135,-2.3135,-2.3135,-2.3135,-2.3174,-2.3436,-2.4209,-2.4707,-2.5222,-2.5605,-2.5742,-2.5742,-2.5742,-2.5742,-2.5742,-2.5742,-2.5333,-2.5118,-2.5118,-2.4707,-2.4609,-2.502,-2.3989,-2.2876,-2.2466,-2.0845,-1.9324,-1.8401,-1.7891,-1.7582,-1.7582,-1.7582,-1.7582,-1.7582,-1.7582,-1.7582,-1.7582,-1.7582,-1.7786,-1.8199,-1.8199,-1.8805,-2.0238,-2.0231,-2.0743,-2.1651,-2.0854,-2.04,-2.04,-1.981,-1.9715,-2.0032,-2.0032,-2.0197,-1.973,-2.0096,-2.0192,-1.9734,-1.9474,-1.9236,-1.8685,-1.737,-1.5902,-1.443,-1.3437,-1.2627,-1.1976,-1.187,-1.2348,-1.3726,-1.4197,-1.4941,-1.658,-1.6993,-1.754,-1.8658,-1.951,-2.0117,-2.0375,-2.0708,-2.134,-2.2419,-2.2636,-2.3059,-2.3923,-2.3995,-2.4072,-2.4296,-2.4211,-2.4355,-2.4798,-2.4981,-2.5598,-2.6533,-2.6533,-2.6533,-2.6533,-2.6747,-2.7272,-2.8114,-2.8313,-2.8912,0.0,-2.9792,-2.9792,-2.9792,-2.9792,-2.8464,-2.6529,-2.6491,-2.5086,-2.3135,-2.3135,-2.3135,-2.3135,-2.3135,-2.3359,-2.3721,-2.4258,-2.4844,-2.5381,-2.5664,-2.5742,-2.5742,-2.5742,-2.5742,-2.5742,-2.5742,-2.5742,-2.5742,-2.5742,-2.5742,-2.5538,-2.502,-2.4304,-2.3276,-2.1954,-2.0538,-1.9324,-1.8506,-1.7884,-1.7582,-1.7582,-1.7582,-1.7582,-1.7582,-1.7582,-1.7582,-1.7582,-1.7582,-1.7582,-1.7582,-1.7582,-1.7989,-1.8812,-1.8812,-1.9213,-2.0128,-1.9317,-1.8812,-1.8812,-1.8311,-1.8143,-1.8323,-1.8437,-1.8591,0.0,-2.0668,-2.0647,-2.0576,-1.9891,-1.9142,-1.8822,-1.7528,0.0,-1.5037,-1.4295,-1.3537,-1.2534,-1.3036,-1.3542,-1.3521,-1.4686,-1.6059,-1.7388,-1.8156,-1.9033,-2.0144,-2.0726,-2.0815,-2.0301,-2.1123,-2.1936,-2.2583,-2.3113,-2.3901,-2.5182,-2.5244,-2.4954,-2.4322,-2.4154,-2.4298,-2.4781,-2.5314,-2.5915,-2.6533,-2.6533,-2.6546,-2.6596,-2.7055,-2.7607,-2.8197,-2.8699,-2.9252,-2.9792,-2.9792,-2.9792,-2.9792,-2.9792,-2.8476,-2.6517,-2.6496,-2.5083,-2.3135,-2.3135,-2.3135,-2.3135,-2.3135,-2.3721,-2.4414,-2.4414,-2.5039,-2.5742,-2.5742,-2.5742,-2.5742,-2.5742,-2.5742,-2.5742,-2.5742,-2.5742,-2.5742,-2.5742,-2.5635,-2.5226,-2.389,-2.3583,-2.3176,-2.1752,-2.0436,-1.9524,-1.942,-1.8401,-1.7582,-1.7582,-1.7582,-1.7582,-1.7582,-1.7582,-1.7582,-1.7582,-1.7582,-1.7582,-1.7582,-1.7582,-1.7582,-1.7582,-1.7582,-1.7582,-1.7582,-1.7582,-1.7582,-1.7582,-1.7869,-1.8016,-1.8023,-1.8297,-1.8437,-1.9568,0.0,-1.8974,-1.841,-1.8358,-1.8429,0.0,-1.7684,-1.6841,-1.6071,-1.5591,-1.5243,-1.5035,-1.4517,-1.4888,-1.7235,-1.6947,-1.7334,-2.0006,-2.1126,-2.1787,-2.2076,-2.2175,-2.2377,-2.2658,-2.2407,-2.2452,-2.3093,-2.317,-2.3286,-2.3593,-2.3611,-2.3777,-2.4077,-2.4392,-2.4651,-2.4785,-2.5353,-2.5895,-2.6533,-2.6533,-2.6678,-2.7092,-2.7218,-2.7821,-2.8737,-2.8875,-2.9252,-2.9792,-2.9792,-2.9792,-2.9792,-2.9792,-2.8426,-2.6487,-2.6528,-2.502,-2.3135,-2.3135,-2.3135,-2.3135,-2.3135,-2.3721,-2.4414,-2.4414,-2.5039,-2.5742,-2.5742,-2.5742,-2.5742,-2.5742,-2.5742,-2.5742,-2.5742,-2.5742,-2.5742,-2.5742,-2.4913,-2.4097,-2.3791,-2.2868,-2.1752,-2.0333,-1.9834,-1.922,-1.8199,-1.7786,-1.7582,-1.7582,-1.7582,-1.7582,-1.7582,-1.7582,-1.7582,-1.7582,-1.7582,-1.7582,-1.7582,-1.7582,-1.7582,-1.7582,-1.7582,-1.7582,-1.7582,-1.7582,-1.7582,-1.7582,-1.7655,-1.7695,-1.7695,-1.7762,-1.7923,-1.9305,-1.937,-1.938,-1.8982,-1.9003,-1.9098,-1.8972,-1.8284,-1.7485,-1.6642,-1.6349,-1.6216,-1.627,-1.603,-1.6399,-1.8167,-1.849,-1.9346,-2.1612,-2.2599,-2.3096,-2.3096,-2.3078,-2.3079,-2.3076,-2.2933,-2.2831,-2.2819,-2.2989,-2.3078,-2.3078,-2.3078,-2.3401,-2.3979,-2.4531,-2.4931,-2.5137,-2.5707,-2.6151,-2.6533,-2.6533,-2.6753,-2.7293,-2.7544,-2.8122,-2.895,-2.9214,-2.9503,-2.9792,-2.9792,-2.9792,-2.9792,-2.9197,-2.7959,-2.6472,-2.588,-2.4638,-2.3135,-2.3135,-2.3135,-2.3135,-2.3135,-2.3584,-2.417,-2.4355,-2.4893,-2.5478,-2.5684,-2.5742,-2.5742,-2.5742,-2.5742,-2.5538,-2.4922,-2.4815,-2.4609,-2.3998,-2.3276,-2.2567,-2.1963,-2.1253,-2.0333,-1.8909,-1.8708,-1.8401,-1.7687,-1.7582,-1.7582,-1.7582,-1.7582,-1.7582,-1.7582,-1.7582,-1.7582,-1.7582,-1.7582,-1.7582,-1.7582,-1.7582,-1.7582,-1.7582,-1.7582,-1.7582,-1.7582,-1.7582,-1.7582,-1.7582,-1.7582,-1.7582,-1.7582,-1.7582,-1.7669,-1.9436,-2.0079,-2.0668,-2.0471,-2.0372,-2.0209,-1.981,-1.9,-1.8025,-1.7071,-1.6969,-1.7069,-1.725,-1.7629,-1.8079,-1.8516,-1.9988,-2.1485,-2.2555,-2.32,-2.357,-2.357,-2.3432,-2.3175,-2.2761,-2.2963,-2.2941,-2.248,-2.2874,-2.3115,-2.3203,-2.3263,-2.3565,-2.4217,-2.4695,-2.5197,-2.5724,-2.6214,-2.6533,-2.6533,-2.6609,-2.6866,-2.7431,-2.7984,-2.8536,-2.9089,-2.9578,-2.9792,-2.9792,-2.9792,-2.9714,-2.9443,-2.8518,-2.736,-2.6141,-2.5126,-2.4049,-2.3135,-2.3135,-2.3135,-2.3135,-2.3135,-2.3437,-2.3857,-2.4209,-2.4629,-2.5059,-2.5508,-2.5684,-2.5742,-2.5742,-2.5742,-2.5333,-2.3998,-2.3692,-2.3285,-2.1954,-2.155,-2.1041,-1.9834,-1.942,-1.8916,-1.7786,-1.7582,-1.7582,-1.7582,-1.7582,-1.7582,-1.7582,-1.7582,-1.7582,-1.7582,-1.7582,-1.7582,-1.7582,-1.7582,-1.7582,-1.7582,-1.7582,-1.7582,-1.7582,-1.7582,-1.7582,-1.7582,-1.7582,-1.7582,-1.7582,-1.7582,-1.7582,-1.7582,-1.7582,-1.7582,-2.0134,-2.0941,-2.1367,-2.0409,-2.0491,-2.055,-1.9596,-1.9064,-1.8569,-1.7772,-1.8131,-1.8816,-1.9677,-1.9689,-2.0144,-2.1919,-2.2592,-2.2861,-2.2701,-2.3182,-2.3533,-2.3533,-2.2949,-2.2738,-2.312,-2.2742,-2.2614,-2.2975,-2.3027,-2.3351,-2.3841,-2.3866,-2.4318,-2.5322,-2.5435,-2.5749,-2.6395,-2.6483,-2.6533,-2.6533,-2.6929,-2.7444,-2.7996,-2.8549,-2.9114,-2.9666,-2.9754,-2.9792,-2.9792,-2.9792,-2.9197,-2.8347,-2.8176,-2.6849,-2.5041,-2.4872,-2.4049,-2.3135,-2.3135,-2.3135,-2.3135,-2.3135,-2.3437,-2.3799,-2.3867,-2.418,-2.4609,-2.5049,-2.5439,-2.5742,-2.5742,-2.5742,-2.5333,-2.3998,-2.3692,-2.3285,-2.1954,-2.0743,-1.9834,-1.9627,-1.8708,-1.7891,-1.7687,-1.7582,-1.7582,-1.7582,-1.7582,-1.7582,-1.7582,-1.7582,-1.7582,-1.7582,-1.7582,-1.7582,-1.7582,-1.7582,-1.7582,-1.7582,-1.7582,-1.7582,-1.7582,-1.7582,-1.7582,-1.7582,-1.7582,-1.7582,-1.7582,-1.7582,-1.7582,-1.7582,-1.7582,-1.7582,-1.9748,-2.0813,-2.1679,-2.1202,-2.1729,-2.2135,-2.1316,-2.0695,-2.012,-1.9389,-1.9391,-1.9731,-2.0525,-2.0831,-2.147,-2.3074,-2.3088,-2.2928,-2.3103,-2.3297,-2.3448,-2.3448,-2.3097,-2.2994,-2.3244,-2.2955,-2.2987,-2.3552,-2.3602,-2.3841,-2.4406,-2.4443,-2.4795,-2.5573,-2.5598,-2.6025,-2.6892,-2.6904,-2.6904,-2.6917,-2.7469,-2.8009,-2.8561,-2.8812,-2.9252,-2.9792,-2.9792,-2.9792,-2.9792,-2.9118,-2.8597,-2.8004,-2.6767,-2.5703,-2.4702,-2.4135,-2.3551,-2.3135,-2.3135,-2.3135,-2.3135,-2.3135,-2.3271,-2.3486,-2.3721,-2.3926,-2.417,-2.46,-2.5039,-2.543,-2.5674,-2.5128,-2.4304,-2.2968,-2.2064,-2.1151,-1.9723,-1.9013,-1.8506,-1.8506,-1.7989,-1.7582,-1.7582,-1.7582,-1.7582,-1.7582,-1.7582,-1.7582,-1.7582,-1.7582,-1.7582,-1.7582,-1.7582,-1.7582,-1.7582,-1.7582,-1.7582,-1.7582,-1.7582,-1.7582,-1.7582,-1.7582,-1.7582,-1.7582,-1.7582,-1.7582,-1.7582,-1.7582,-1.7582,-1.7582,-1.7582,-1.7582,-1.9822,-2.0633,-2.148,-2.1704,-2.2509,-2.3181,-2.2926,-2.2133,-2.1288,-2.0822,-2.0685,-2.0666,-2.0912,-2.1675,-2.2497,-2.3437,-2.3223,-2.31,-2.3455,-2.3432,-2.3402,-2.3402,-2.3279,-2.3254,-2.3254,-2.3285,-2.3527,-2.3966,-2.4117,-2.4431,-2.4971,-2.5008,-2.5103,-2.5425,-2.579,-2.6333,-2.6959,-2.746,-2.7607,-2.7482,-2.8034,-2.8511,-2.8938,-2.9063,-2.9365,-2.9792,-2.9534,-2.9365,-2.9287,-2.8187,-2.7602,-2.7186,-2.5452,-2.4628,-2.4296,-2.3377,-2.3135,-2.3135,-2.3135,-2.3135,-2.3135,-2.3135,-2.3135,-2.3203,-2.3535,-2.3633,-2.373,-2.415,-2.4512,-2.4798,-2.5035,-2.4436,-2.3276,-2.1651,-2.0333,-1.922,-1.7891,-1.7582,-1.7582,-1.7582,-1.7582,-1.7582,-1.7582,-1.7582,-1.7582,-1.7582,-1.7582,-1.7582,-1.7582,-1.7582,-1.7582,-1.7582,-1.7582,-1.7582,-1.7582,-1.7582,-1.7582,-1.7582,-1.7582,-1.7582,-1.7582,-1.7582,-1.7582,-1.7582,-1.7582,-1.7582,-1.7582,-1.7582,-1.7582,-1.7582,-1.7582,-1.7582,-2.14,-2.0987,-2.0481,-2.1182,-2.1792,-2.2418,-2.3187,-2.2248,-2.1275,-2.1387,-2.1964,-2.2141,-2.1338,-2.2455,-2.3501,-2.3501,-2.3971,-2.4147,-2.3482,-2.3326,-2.3316,-2.3316,-2.3167,-2.3135,-2.3135,-2.3602,-2.3954,-2.4004,-2.4469,-2.4996,-2.5511,-2.5536,-2.5382,-2.5075,-2.6445,-2.6742,-2.5888,-2.7817,-2.8549,-2.8059,-2.8612,-2.8888,-2.895,-2.9478,-2.9754,-2.9714,-2.8676,-2.8255,-2.8176,-2.7046,-2.5964,-2.5041,-2.4872,-2.4125,-2.3222,-2.3135,-2.3135,-2.3135,-2.3135,-2.3135,-2.3135,-2.3135,-2.3135,-2.3144,-2.3174,-2.3184,-2.3271,-2.3711,-2.3857,-2.3789,-2.3327,-2.3412,-2.3076,-2.0341,-1.9627,-1.922,-1.7891,-1.7582,-1.7582,-1.7582,-1.7582,-1.7582,-1.7582,-1.7582,-1.7582,-1.7582,-1.7582,-1.7582,-1.7582,-1.7582,-1.7582,-1.7582,-1.7582,-1.7582,-1.7582,-1.7582,-1.7582,-1.7582,-1.7582,-1.7582,-1.7582,-1.7582,-1.7582,-1.7582,-1.7582,-1.7582,-1.7582,-1.7582,-1.7582,-1.7582,-1.7582,-1.7582,-2.0279,-2.0751,-2.1132,-2.1607,-2.2287,-2.2994,-2.3547,-2.3199,-2.2944,-2.3657,-2.331,-2.2788,-2.256,-2.3059,-2.3535,-2.3507,-2.3646,-2.3646,-2.3392,-2.3228,-2.3211,-2.3211,-2.3119,-2.3276,-2.364,-2.3866,-2.428,-2.4933,-2.5184,-2.5269,-2.5241,-2.5429,-2.5266,-2.4517,-2.5298,-2.5692,-2.5695,-2.6477,-2.6901,-2.7132,-2.8713,-2.8721,-2.7425,-2.8354,-2.8371,-2.7718,-2.729,-2.7128,-2.7046,-2.588,-2.521,-2.4702,-2.4049,-2.3464,-2.3135,-2.3135,-2.3135,-2.3135,-2.3135,-2.3135,-2.3135,-2.3135,-2.3135,-2.3135,-2.3135,-2.3135,-2.2989,-2.2405,-2.246,-2.2704,-2.2781,-2.2426,-2.1611,-1.9829,-1.8875,-1.8199,-1.7687,-1.7582,-1.7582,-1.7582,-1.7582,-1.7582,-1.7582,-1.7582,-1.7582,-1.7582,-1.7582,-1.7582,-1.7582,-1.7582,-1.7582,-1.7582,-1.7582,-1.7582,-1.7582,-1.7582,-1.7582,-1.7582,-1.7582,-1.7582,-1.7582,-1.7582,-1.7582,-1.7582,-1.7582,-1.7582,-1.7582,-1.7582,-1.7582,-1.7582,-1.7582,-1.7582,-1.9959,-2.0678,-2.1448,-2.214,-2.2652,-2.3186,-2.3979,-2.3745,-2.3737,-2.5163,-2.4018,-2.2902,-2.3299,-2.3283,-2.3251,-2.3412,-2.3561,-2.35,-2.3282,-2.317,-2.314,-2.3389,-2.3414,-2.3627,-2.4205,-2.4151,-2.4341,-2.5123,-2.5049,-2.4881,-2.4774,-2.4978,-2.4785,-2.3941,-2.4647,-2.5057,-2.5157,-2.5636,-2.588,-2.5975,-2.7879,-2.7971,-2.6554,-2.729,-2.7197,-2.6472,-2.6141,-2.5975,-2.5891,-2.4713,-2.4296,-2.4211,-2.3377,-2.3135,-2.3135,-2.3135,-2.3135,-2.3135,-2.3135,-2.3135,-2.3135,-2.3135,-2.3135,-2.3135,-2.3135,-2.3135,-2.2862,-2.1658,-2.1509,-2.1706,-2.1214,-2.0691,-1.9956,-1.8692,-1.7858,-1.7308,-1.7308,-1.7308,-1.7308,-1.7308,-1.7308,-1.7308,-1.7308,-1.7308,-1.7308,-1.7308,-1.7388,-1.7442,-1.7442,-1.7522,-1.7582,-1.7582,-1.7582,-1.7582,-1.7582,-1.7582,-1.7582,-1.7582,-1.7582,-1.7582,-1.7582,-1.7582,-1.7582,-1.7582,-1.7582,-1.7582,-1.7582,-1.7582,-1.7582,-1.7582,-1.7582,-1.7582,-2.0939,-2.0832,-2.1155,-2.2629,-2.2658,-2.2789,-2.4514,-2.3706,-2.3287,-2.553,-2.4079,-2.2673,-2.3368,-2.298,-2.2679,-2.3228,-2.3839,-2.4002,-2.3185,-2.3065,-2.329,-2.3929,-2.3991,-2.4217,-2.4705,-2.442,-2.4163,-2.4163,-2.3761,-2.3738,-2.4167,-2.42,-2.3952,-2.3311,-2.4745,-2.5157,-2.4209,-2.5733,-2.5891,-2.4787,-2.5975,-2.6483,-2.6483,-2.6472,-2.6472,-2.6389,-2.5294,-2.4787,-2.4702,-2.3551,-2.3135,-2.3135,-2.3135,-2.3135,-2.3135,-2.3135,-2.3135,-2.3135,-2.3135,-2.3135,-2.3135,-2.3135,-2.3135,-2.3135,-2.3135,-2.3135,-2.2862,-2.1667,-2.1293,-2.0755,-1.8319,-1.8162,-1.8353,-1.6993,-1.67,-1.6707,-1.6707,-1.6707,-1.6707,-1.6707,-1.6707,-1.6707,-1.6707,-1.6707,-1.6707,-1.6707,-1.6954,-1.725,-1.7148,-1.7402,-1.7582,-1.7582,-1.7582,-1.7582,-1.7582,-1.7582,-1.7582,-1.7582,-1.7582,-1.7582,-1.7582,-1.7582,-1.7582,-1.7582,-1.7582,-1.7582,-1.7582,-1.7582,-1.7582,-1.7582,-1.7582,-1.7582,-1.9386,-1.9993,-2.0715,-2.1586,-2.3226,-2.4728,-2.5224,-2.4812,-2.4618,-2.5521,-2.5524,-2.5136,-2.4356,-2.3992,-2.374,-2.3355,-2.3393,-2.3365,-2.3138,-2.2628,-2.2714,-2.3866,-2.2843,-2.2667,-2.4261,-2.363,-2.3288,-2.364,-2.3909,-2.3731,-2.3185,-2.3758,-2.3627,-2.2788,-2.3463,-2.3685,-2.3448,-2.3912,-2.3973,-2.3637,-2.3973,-2.4145,-2.4145,-2.4967,-2.4882,-2.4059,-2.3714,-2.3627,-2.3551,-2.3222,-2.3135,-2.3135,-2.3135,-2.3135,-2.3135,-2.3135,-2.3135,-2.3135,-2.3135,-2.3135,-2.3135,-2.3135,-2.3135,-2.3135,-2.3135,-2.3135,-2.2677,-2.0576,-2.0034,-1.9488,-1.703,-1.6517,-1.6608,-1.6451,-1.656,-1.6707,-1.6707,-1.6707,-1.6707,-1.6707,-1.6707,-1.6707,-1.6707,-1.6707,-1.6707,-1.6707,-1.678,-1.6914,-1.7121,-1.7228,-1.7355,-1.7562,-1.7582,-1.7582,-1.7582,-1.7582,-1.7582,-1.7582,-1.7582,-1.7582,-1.7582,-1.7582,-1.7582,-1.7582,-1.7582,-1.7582,-1.7582,-1.7582,-1.7582,-1.7582,-1.7582,-1.7582,-1.906,-2.0045,-2.1048,-2.2162,-2.3496,-2.4721,-2.5242,-2.5687,-2.5772,-2.5282,-2.5449,-2.5329,-2.4235,-2.3756,-2.3511,-2.3264,-2.3149,-2.3005,-2.2689,-2.2368,-2.2377,-2.3107,-2.2384,-2.2342,-2.3804,-2.3005,-2.2622,-2.3176,-2.3035,-2.2909,-2.2645,-2.3113,-2.3163,-2.2754,-2.3008,-2.3135,-2.3135,-2.3135,-2.3135,-2.3135,-2.3135,-2.3135,-2.3135,-2.38,-2.3714,-2.3135,-2.3135,-2.3135,-2.3135,-2.3135,-2.3135,-2.3135,-2.3135,-2.3135,-2.3135,-2.3135,-2.3135,-2.3135,-2.3135,-2.3135,-2.3135,-2.3135,-2.2775,-2.2403,-2.2403,-2.2041,-2.123,-1.9322,-1.8772,-1.8311,-1.6292,-1.5832,-1.5872,-1.6052,-1.6226,-1.6359,-1.6359,-1.6359,-1.6359,-1.6359,-1.6359,-1.6359,-1.6359,-1.6359,-1.6359,-1.6359,-1.646,-1.664,-1.6934,-1.6974,-1.7088,-1.7382,-1.7486,-1.7526,-1.7569,-1.7582,-1.7582,-1.7582,-1.7582,-1.7582,-1.7582,-1.7582,-1.7582,-1.7582,-1.7582,-1.7582,-1.7582,-1.7582,-1.7582,-1.7582,-1.7582,-1.7582,-1.9372,-2.049,-2.1723,-2.3441,-2.3484,-2.3501,-2.4898,-2.6155,-2.6555,-2.4913,-2.4515,-2.4173,-2.3548,-2.287,-2.2577,-2.2919,-2.3055,-2.2763,-2.1949,-2.2121,-2.2232,-2.2115,-2.2295,-2.2689,-2.3323,-2.2521,-2.2126,-2.2553,-2.176,-2.1689,-2.2471,-2.2549,-2.2744,-2.3125,-2.3135,-2.3135,-2.3135,-2.3135,-2.3135,-2.3135,-2.3135,-2.3135,-2.3135,-2.3135,-2.3135,-2.3135,-2.3135,-2.3135,-2.3135,-2.3135,-2.3135,-2.3135,-2.3135,-2.3135,-2.3135,-2.3135,-2.3135,-2.3135,-2.3135,-2.3047,-2.295,-2.295,-2.2129,-2.1114,-2.1114,-2.0395,-1.9222,-1.8048,-1.7692,-1.7412,-1.6109,-1.5832,-1.5832,-1.5832,-1.5832,-1.5832,-1.5832,-1.5832,-1.5832,-1.5832,-1.5832,-1.5832,-1.5832,-1.5832,-1.5832,-1.5832,-1.6059,-1.6339,-1.6627,-1.6667,-1.6787,-1.7203,-1.717,-1.7277,-1.7549,-1.7582,-1.7582,-1.7582,-1.7582,-1.7582,-1.7582,-1.7582,-1.7582,-1.7582,-1.7582,-1.7582,-1.7582,-1.7582,-1.7582,-1.7582,-1.7582,-1.7582,-1.7611,-1.9207,-2.0978,-2.1937,-2.3118,-2.43,-2.5177,-2.56,-2.5664,-2.5273,-2.5189,-2.4939,-2.4245,-2.3987,-2.3498,-2.2347,-2.2399,-2.2332,-2.1479,-2.1171,-2.1387,-2.2421,-2.1365,-2.0951,-2.2211,-2.1778,-2.1432,-2.1531,-2.1928,-2.2324,-2.25,-2.2822,-2.3047,-2.3135,-2.3135,-2.3135,-2.3135,-2.3135,-2.3135,-2.3135,-2.3135,-2.3135,-2.3135,-2.3135,-2.3135,-2.3135,-2.3135,-2.3135,-2.3135,-2.3135,-2.3135,-2.3135,-2.3135,-2.3135,-2.3135,-2.3135,-2.3135,-2.3135,-2.3135,-2.2492,-2.1667,-2.1667,-2.0845,-1.9852,-1.9852,-1.9679,-1.9222,-1.8048,-1.7692,-1.7412,-1.6109,-1.5832,-1.5832,-1.5832,-1.5832,-1.5832,-1.5832,-1.5832,-1.5832,-1.5832,-1.5832,-1.5832,-1.5832,-1.5832,-1.5832,-1.5832,-1.5885,-1.6032,-1.6326,-1.6366,-1.6639,-1.7103,-1.7231,-1.7277,-1.7549,-1.7582,-1.7582,-1.7582,-1.7582,-1.7582,-1.7582,-1.7582,-1.7582,-1.7582,-1.7582,-1.7582,-1.7582,-1.7582,-1.7582,-1.7582,-1.7582,-1.7582,-1.7009,-1.8706,-2.0514,-2.1641,-2.2886,-2.3878,-2.4195,-2.4323,-2.4216,-2.4038,-2.4653,-2.4853,-2.3679,-2.3628,-2.3396,-2.2122,-2.2094,-2.1901,-2.1018,-2.0907,-2.101,-2.1324,-2.0682,-2.0621,-2.1514,-2.1402,-2.1406,-2.1816,-2.2266,-2.2598,-2.2803,-2.3018,-2.3135,-2.3135,-2.3135,-2.3135,-2.3135,-2.3135,-2.3135,-2.3135,-2.3135,-2.3135,-2.3135,-2.3135,-2.3135,-2.3135,-2.3135,-2.3135,-2.3135,-2.3135,-2.3135,-2.3135,-2.3135,-2.3135,-2.3135,-2.3135,-2.3135,-2.3047,-2.2403,-2.1845,-2.1203,-2.0666,-1.9579,-1.868,-1.868,-1.8218,-1.7576,-1.6936,-1.6756,-1.6669,-1.6015,-1.5832,-1.5832,-1.5832,-1.5832,-1.5832,-1.5832,-1.5832,-1.5832,-1.5832,-1.5832,-1.5832,-1.5832,-1.5832,-1.5832,-1.5832,-1.5832,-1.5885,-1.6039,-1.6059,-1.6213,-1.672,-1.68,-1.6954,-1.741,-1.7457,-1.7463,-1.7582,-1.7582,-1.7582,-1.7582,-1.7582,-1.7582,-1.7582,-1.7582,-1.7582,-1.7582,-1.7582,-1.7582,-1.7582,-1.7582,-1.7582,-1.6351,-1.8029,-1.9873,-2.1776,-2.2457,-2.2689,-2.2689,-2.2702,-2.2701,-2.235,-2.3504,-2.4165,-2.2667,-2.2776,-2.2763,-2.1821,-2.1747,-2.1456,-2.0627,-2.0824,-2.0846,-2.0203,-2.0459,-2.0859,-2.1299,-2.1416,-2.1748,-2.2461,-2.2578,-2.2773,-2.3125,-2.3135,-2.3135,-2.3135,-2.3135,-2.3135,-2.3135,-2.3135,-2.3135,-2.3135,-2.3135,-2.3135,-2.3135,-2.3135,-2.3135,-2.3135,-2.3135,-2.3135,-2.3135,-2.3135,-2.3135,-2.3135,-2.3135,-2.3135,-2.3135,-2.3135,-2.296,-2.2677,-2.1667,-2.1025,-2.0477,-1.9488,-1.8411,-1.7412,-1.7412,-1.6669,-1.5832,-1.5832,-1.5832,-1.5832,-1.5832,-1.5832,-1.5832,-1.5832,-1.5832,-1.5832,-1.5832,-1.5832,-1.5832,-1.5832,-1.5832,-1.5832,-1.5832,-1.5832,-1.5832,-1.5832,-1.5832,-1.5832,-1.5832,-1.5832,-1.5925,-1.6276,-1.6273,-1.6507,-1.7133,-1.7167,-1.7338,-1.7582,-1.7582,-1.7582,-1.7582,-1.7582,-1.7582,-1.7582,-1.7582,-1.7582,-1.7582,-1.7582,-1.7582,-1.7582,-1.7582,-1.7582,-1.3871,-1.5824,-1.8602,-2.127,-2.1463,-2.091,-2.091,-2.1229,-2.1427,-2.1351,-2.2162,-2.2639,-2.2117,-2.2013,-2.1782,-2.0949,-2.1083,-2.0958,-2.0123,-2.0424,-2.0771,-2.1016,-2.1113,-2.1318,-2.1758,-2.2129,-2.2393,-2.251,-2.2852,-2.3076,-2.3135,-2.3135,-2.3135,-2.3135,-2.3135,-2.3135,-2.3135,-2.3135,-2.3135,-2.3135,-2.3135,-2.3135,-2.3135,-2.3135,-2.3135,-2.3135,-2.3135,-2.3135,-2.3135,-2.3135,-2.3135,-2.3135,-2.3135,-2.3135,-2.3135,-2.3135,-2.2403,-2.148,-2.1391,-1.9943,-1.8141,-1.7956,-1.7037,-1.6015,-1.6015,-1.592,-1.5832,-1.5832,-1.5832,-1.5832,-1.5832,-1.5832,-1.5832,-1.5832,-1.5832,-1.5832,-1.5832,-1.5832,-1.5832,-1.5832,-1.5832,-1.5832,-1.5832,-1.5832,-1.5832,-1.5832,-1.5832,-1.5832,-1.5832,-1.5832,-1.5953,-1.6218,-1.6334,-1.649,-1.7116,-1.7178,-1.7338,-1.7582,-1.7582,-1.7582,-1.7582,-1.7582,-1.7582,-1.7582,-1.7582,-1.7582,-1.7582,-1.7582,-1.7582,-1.7582,-1.7582,-1.7582,-1.5434,-1.7392,-1.9381,-2.1403,-2.1588,-2.1244,-2.1003,-2.1085,-2.1196,-2.1183,-2.1501,-2.1706,-2.1571,-2.1757,-2.1649,-2.072,-2.0742,-2.0811,-2.0615,-2.082,-2.1103,-2.1553,-2.1602,-2.1768,-2.2197,-2.2402,-2.2607,-2.2852,-2.3037,-2.3135,-2.3135,-2.3135,-2.3135,-2.3135,-2.3135,-2.3135,-2.3135,-2.3135,-2.3135,-2.3135,-2.3135,-2.3135,-2.3135,-2.3135,-2.3135,-2.3135,-2.3135,-2.3135,-2.3135,-2.3135,-2.3135,-2.3135,-2.3135,-2.2677,-2.212,-2.212,-2.1302,-2.0215,-1.9497,-1.8596,-1.7598,-1.685,-1.6298,-1.5832,-1.5832,-1.5832,-1.5832,-1.5832,-1.5832,-1.5832,-1.5832,-1.5832,-1.5832,-1.5832,-1.5832,-1.5832,-1.5832,-1.5832,-1.5832,-1.5832,-1.5832,-1.5832,-1.5832,-1.5832,-1.5832,-1.5832,-1.5832,-1.5832,-1.5832,-1.5832,-1.5838,-1.6042,-1.6042,-1.6244,-1.6844,-1.678,-1.6992,-1.7549,-1.7463,-1.7457,-1.7582,-1.7582,-1.7582,-1.7582,-1.7582,-1.7582,-1.7582,-1.7582,-1.7582,-1.7582,-1.7582,-1.7582,-1.63,-1.7758,-1.8706,-2.077,-2.1,-2.0854,-2.0875,-2.0804,-2.0717,-2.0824,-2.0933,-2.1015,-2.1015,-2.1367,-2.1482,-2.0869,-2.0732,-2.0889,-2.1338,-2.1396,-2.1562,-2.1992,-2.2041,-2.2207,-2.2627,-2.2676,-2.2803,-2.3115,-2.3135,-2.3135,-2.3135,-2.3135,-2.3135,-2.3135,-2.3135,-2.3135,-2.3135,-2.3135,-2.3135,-2.3135,-2.3135,-2.3135,-2.3135,-2.3135,-2.3135,-2.3135,-2.3135,-2.3135,-2.3135,-2.3135,-2.3135,-2.3047,-2.2765,-2.212,-2.1293,-2.0935,-2.0124,-1.8956,-1.8048,-1.7505,-1.7037,-1.6109,-1.5832,-1.5832,-1.5832,-1.5832,-1.5832,-1.5832,-1.5832,-1.5832,-1.5832,-1.5832,-1.5832,-1.5832,-1.5832,-1.5832,-1.5832,-1.5832,-1.5832,-1.5832,-1.5832,-1.5832,-1.5832,-1.5832,-1.5832,-1.5832,-1.5832,-1.5832,-1.5832,-1.5832,-1.5832,-1.5832,-1.5832,-1.5985,-1.6569,-1.6453,-1.676,-1.7428,-1.7417,-1.7345,-1.7582,-1.7582,-1.7582,-1.7582,-1.7582,-1.7582,-1.7582,-1.7582,-1.7582,-1.7582,-1.7582,-1.7582,-1.416,-1.4498,-1.4833,-1.8566,-1.8644,-1.8197,-1.9666,-1.9636,-1.9521,-1.9899,-2.0321,-2.0605,-2.0605,-2.0624,-2.0781,-2.1133,-2.1201,-2.1357,-2.1787,-2.1846,-2.2012,-2.2432,-2.248,-2.2646,-2.3066,-2.3105,-2.3115,-2.3135,-2.3135,-2.3135,-2.3135,-2.3135,-2.3135,-2.3135,-2.3135,-2.3135,-2.3135,-2.3135,-2.3135,-2.3135,-2.3135,-2.3135,-2.3135,-2.3135,-2.3135,-2.3135,-2.3135,-2.3135,-2.3135,-2.3135,-2.3135,-2.296,-2.1845,-2.1391,-2.1203,-2.0034,-1.8864,-1.7777,-1.7692,-1.6943,-1.592,-1.5825,-1.5832,-1.5832,-1.5832,-1.5832,-1.5832,-1.5832,-1.5832,-1.5832,-1.5832,-1.5832,-1.5832,-1.5832,-1.5832,-1.5832,-1.5832,-1.5832,-1.5832,-1.5832,-1.5832,-1.5832,-1.5832,-1.5832,-1.5832,-1.5832,-1.5832,-1.5832,-1.5832,-1.5832,-1.5832,-1.5832,-1.5832,-1.5952,-1.6253,-1.6533,-1.6827,-1.7154,-1.7428,-1.7582,-1.7582,-1.7582,-1.7582,-1.7582,-1.7582,-1.7582,-1.7582,-1.7582,-1.7582,-1.7582,-1.7582,-1.7582,-1.3308,-1.4347,-1.5326,-1.6869,-1.762,-1.8048,-1.8599,-1.9053,-1.9482,-2.0185,-2.0459,-2.0654,-2.0937,-2.0996,-2.1045,-2.1211,-2.1475,-2.1797,-2.2227,-2.2295,-2.2441,-2.2861,-2.292,-2.2969,-2.3125,-2.3135,-2.3135,-2.3135,-2.3135,-2.3135,-2.3135,-2.3135,-2.3135,-2.3135,-2.3135,-2.3135,-2.3135,-2.3135,-2.3135,-2.3135,-2.3135,-2.3135,-2.3135,-2.3135,-2.3135,-2.3047,-2.2306,-2.1933,-2.1933,-2.1933,-2.1489,-2.0764,-2.0305,-1.967,-1.8956,-1.8503,-1.7584,-1.648,-1.648,-1.6204,-1.5832,-1.5832,-1.5832,-1.5832,-1.5832,-1.5832,-1.5832,-1.5832,-1.5832,-1.5832,-1.5832,-1.5832,-1.5832,-1.5832,-1.5832,-1.5832,-1.5832,-1.5832,-1.5832,-1.5832,-1.5832,-1.5832,-1.5832,-1.5832,-1.5832,-1.5832,-1.5832,-1.5832,-1.5832,-1.5832,-1.5832,-1.5832,-1.5832,-1.5972,-1.6228,-1.6343,-1.6626,-1.714,-1.7284,-1.7421,-1.7569,-1.7582,-1.7582,-1.7582,-1.7582,-1.7582,-1.7582,-1.7582,-1.7582,-1.7582,-1.7582,-1.7582,-1.2144,-1.3347,-1.4664,-1.5921,-1.644,-1.7049,-1.8702,-1.8829,-1.9014,-2.0303,-2.0566,-2.0703,-2.1152,-2.1357,-2.1504,-2.1641,-2.1904,-2.2246,-2.2666,-2.2725,-2.2822,-2.3105,-2.3135,-2.3135,-2.3135,-2.3135,-2.3135,-2.3135,-2.3135,-2.3135,-2.3135,-2.3135,-2.3135,-2.3135,-2.3135,-2.3135,-2.3135,-2.3135,-2.3135,-2.3135,-2.3135,-2.3135,-2.3135,-2.3135,-2.3135,-2.3047,-2.1845,-2.1293,-2.1293,-2.0845,-2.0215,-1.9497,-1.9039,-1.8411,-1.7692,-1.7225,-1.6574,-1.5832,-1.5832,-1.5832,-1.5832,-1.5832,-1.5832,-1.5832,-1.5832,-1.5832,-1.5832,-1.5832,-1.5832,-1.5832,-1.5832,-1.5832,-1.5832,-1.5832,-1.5832,-1.5832,-1.5832,-1.5832,-1.5832,-1.5832,-1.5832,-1.5832,-1.5832,-1.5832,-1.5832,-1.5832,-1.5832,-1.5832,-1.5832,-1.5832,-1.5832,-1.5832,-1.5832,-1.5932,-1.6089,-1.6204,-1.6474,-1.6995,-1.7108,-1.7298,-1.7569,-1.7582,-1.7582,-1.7582,-1.7582,-1.7582,-1.7582,-1.7582,-1.7582,-1.7582,-1.7582,-1.7582,0.0,0.0,0.0,-1.5542,-1.4995,-1.4906,-1.9662,-1.8989,-1.79,-2.0049,-2.0488,-2.0644,-2.1143,-2.1592,-2.2021,-2.2441,-2.2519,-2.2676,-2.3086,-2.3135,-2.3135,-2.3135,-2.3135,-2.3135,-2.3135,-2.3135,-2.3135,-2.3135,-2.3135,-2.3135,-2.3135,-2.3135,-2.3135,-2.3135,-2.3135,-2.3135,-2.3135,-2.3135,-2.3135,-2.3135,-2.3135,-2.3135,-2.3135,-2.3047,-2.3047,-2.296,-2.1756,-2.1203,-2.1114,-1.9943,-1.9405,-1.9314,-1.8141,-1.7591,-1.7505,-1.6298,-1.5832,-1.5832,-1.5832,-1.5832,-1.5832,-1.5832,-1.5832,-1.5832,-1.5832,-1.5832,-1.5832,-1.5832,-1.5832,-1.5832,-1.5832,-1.5832,-1.5832,-1.5832,-1.5832,-1.5832,-1.5832,-1.5832,-1.5832,-1.5832,-1.5832,-1.5832,-1.5832,-1.5832,-1.5832,-1.5832,-1.5832,-1.5832,-1.5832,-1.5832,-1.5832,-1.5832,-1.5832,-1.5832,-1.5832,-1.615,-1.6409,-1.6647,-1.7008,-1.7338,-1.7582,-1.7582,-1.7582,-1.7582,-1.7582,-1.7582,-1.7582,-1.7582,-1.7582,-1.7582,-1.7582,-1.7582,-1.043,0.0,0.0,0.0,0.0,0.0,-1.4839,-1.5111,-1.5732,-1.8213,-1.8721,-1.9238,-2.0928,-2.1592,-2.2021,-2.2441,-2.2764,-2.3008,-2.3125,-2.3135,-2.3135,-2.3135,-2.3135,-2.3135,-2.3135,-2.3135,-2.3135,-2.3135,-2.3135,-2.3135,-2.3135,-2.3135,-2.3135,-2.3135,-2.3135,-2.3135,-2.3135,-2.3135,-2.3135,-2.3135,-2.3135,-2.3135,-2.3047,-2.2236,-2.1774,-2.1667,-1.9588,-1.868,-1.868,-1.8319,-1.7677,-1.6749,-1.6473,-1.6292,-1.6292,-1.592,-1.5832,-1.5832,-1.5832,-1.5832,-1.5832,-1.5832,-1.5832,-1.5832,-1.5832,-1.5832,-1.5832,-1.5832,-1.5832,-1.5832,-1.5832,-1.5832,-1.5832,-1.5832,-1.5832,-1.5832,-1.5832,-1.5832,-1.5832,-1.5832,-1.5832,-1.5832,-1.5832,-1.5832,-1.5832,-1.5832,-1.5832,-1.5832,-1.5832,-1.5832,-1.5832,-1.5832,-1.5832,-1.5832,-1.5832,-1.615,-1.6334,-1.6395,-1.6905,-1.7226,-1.7338,-1.7463,-1.7582,-1.7582,-1.7582,-1.7582,-1.7582,-1.7582,-1.7582,-1.7582,-1.7582,-1.7582,-1.0833,-1.1357,-1.1947,-1.1611,0.0,0.0,-1.4468,-1.4817,-1.5508,-1.8467,-1.9072,-1.9521,-2.0967,-2.1445,-2.1758,-2.2178,-2.2461,-2.2744,-2.3086,-2.3135,-2.3135,-2.3135,-2.3135,-2.3135,-2.3135,-2.3135,-2.3135,-2.3135,-2.3135,-2.3135,-2.3135,-2.3135,-2.3135,-2.3135,-2.3135,-2.3135,-2.3135,-2.3135,-2.3135,-2.3047,-2.2589,-2.2306,-2.2306,-2.1141,-2.0584,-2.0486,-1.8503,-1.7692,-1.7692,-1.7131,-1.648,-1.5832,-1.5832,-1.5832,-1.5832,-1.5832,-1.5832,-1.5832,-1.5832,-1.5832,-1.5832,-1.5832,-1.5832,-1.5832,-1.5832,-1.5832,-1.5832,-1.5832,-1.5832,-1.5832,-1.5832,-1.5832,-1.5832,-1.5832,-1.5832,-1.5832,-1.5832,-1.5832,-1.5832,-1.5832,-1.5832,-1.5832,-1.5832,-1.5832,-1.5832,-1.5832,-1.5832,-1.5832,-1.5832,-1.5305,-1.4981,-1.4981,-1.4551,-1.4135,-1.4135,-1.4874,-1.5406,-1.5622,-1.648,-1.7074,-1.7325,-1.747,-1.7582,-1.7582,-1.7582,-1.7582,-1.7582,-1.7582,-1.7582,-1.7582,-1.7582,-1.7582,-1.1603,-1.1593,-1.1871,-1.2746,-1.1925,0.0,-1.596,-1.5843,-1.5811,-1.8984,-1.9678,-1.9893,-2.0478,-2.0674,-2.085,-2.1191,-2.1484,-2.1982,-2.2881,-2.2998,-2.3018,-2.3066,-2.3066,-2.3086,-2.3135,-2.3135,-2.3135,-2.3135,-2.3135,-2.3135,-2.3135,-2.3135,-2.3135,-2.3135,-2.3135,-2.3135,-2.3135,-2.3135,-2.3135,-2.3057,-2.1845,-2.1293,-2.1293,-1.9943,-1.9314,-1.9222,-1.8048,-1.7505,-1.7412,-1.6292,-1.5832,-1.5832,-1.5832,-1.5832,-1.5832,-1.5832,-1.5832,-1.5832,-1.5832,-1.5832,-1.5832,-1.5832,-1.5832,-1.5832,-1.5832,-1.5832,-1.5832,-1.5832,-1.5832,-1.5832,-1.5832,-1.5832,-1.5832,-1.5832,-1.5832,-1.5832,-1.5832,-1.5832,-1.5832,-1.5832,-1.5832,-1.5832,-1.5832,-1.5832,-1.5832,-1.5832,-1.5832,-1.573,-1.5615,-1.4558,-1.3838,-1.3683,-1.2639,-1.1919,-1.1919,-1.2958,-1.388,-1.4456,-1.5625,-1.6493,-1.7062,-1.7226,-1.7345,-1.7345,-1.747,-1.7582,-1.7582,-1.7582,-1.7582,-1.7582,-1.7582,-1.7582,-1.2039,-1.2088,-1.2441,-1.1566,-1.1651,0.0,-1.1301,-1.1492,-1.2178,-1.3564,-1.4131,-1.4824,-1.6279,-1.7129,-1.7519,-1.7246,-1.8936,-2.0723,-2.1953,-2.2129,-2.2256,-2.2598,-2.2637,-2.2764,-2.3105,-2.3135,-2.3135,-2.3135,-2.3135,-2.3135,-2.3135,-2.3135,-2.3135,-2.3135,-2.3135,-2.3135,-2.3135,-2.3135,-2.3135,-2.3057,-2.1845,-2.1293,-2.1203,-1.9039,-1.8048,-1.7963,-1.6756,-1.6197,-1.6109,-1.592,-1.5832,-1.5832,-1.5832,-1.5832,-1.5832,-1.5832,-1.5832,-1.5832,-1.5832,-1.5832,-1.5832,-1.5832,-1.5832,-1.5832,-1.5832,-1.5832,-1.5832,-1.5832,-1.5832,-1.5832,-1.5832,-1.5832,-1.5832,-1.5832,-1.5832,-1.5832,-1.5832,-1.5832,-1.5832,-1.5832,-1.5832,-1.5832,-1.5832,-1.5832,-1.5832,-1.5832,-1.5832,-1.5406,-1.4444,-1.4028,-1.3532,-1.2392,-1.2107,-1.19,-1.19,-1.2112,-1.2402,-1.2696,-1.3168,-1.3549,-1.3725,-1.5112,-1.581,-1.581,-1.6989,-1.7582,-1.7582,-1.7582,-1.7582,-1.7582,-1.7582,-1.7582,-1.2792,-1.2586,-1.2725,-1.2061,-1.2061,0.0,0.0,-1.2207,-1.2637,-1.4107,-1.4131,-1.4219,-1.5498,-1.5918,-1.6074,-1.6064,-1.7871,-1.9209,-1.9004,-2.0654,-2.1963,-2.2178,-2.2197,-2.2285,-2.249,-2.2705,-2.291,-2.3125,-2.3135,-2.3135,-2.3135,-2.3135,-2.3135,-2.3135,-2.3135,-2.3135,-2.3135,-2.3135,-2.2775,-2.2217,-2.0944,-2.0124,-1.9405,-1.7576,-1.6763,-1.6756,-1.6109,-1.5832,-1.5832,-1.5832,-1.5832,-1.5832,-1.5832,-1.5832,-1.5832,-1.5832,-1.5832,-1.5832,-1.5832,-1.5832,-1.5832,-1.5832,-1.5832,-1.5832,-1.5832,-1.5832,-1.5832,-1.5832,-1.5832,-1.5832,-1.5832,-1.5832,-1.5832,-1.5832,-1.5832,-1.5832,-1.5832,-1.5832,-1.5832,-1.5832,-1.5832,-1.5832,-1.5832,-1.5832,-1.5832,-1.5832,-1.5832,-1.5305,-1.4034,-1.3278,-1.2428,-1.1137,-1.0423,-1.0108,-1.0108,-1.0735,-1.1189,-1.1531,-1.2215,-1.3033,-1.4078,-1.4304,-1.4369,-1.4371,-1.5773,-1.6174,-1.5463,-1.5463,-1.6163,-1.7582,-1.6864,-1.651,-1.3652,-1.3242,-1.3291,-1.2959,-1.2861,-1.3057,0.0,0.0,0.0,-1.5303,-1.4834,-1.4375,-1.5125,-1.4902,-1.4756,-1.5029,-1.6592,-1.7227,-1.5723,-1.8507,-2.085,-2.1017,-2.1629,-2.1925,-2.1767,-2.1742,-2.208,-2.2842,-2.251,-2.249,-2.2988,-2.3018,-2.3057,-2.3135,-2.3135,-2.3135,-2.3135,-2.3135,-2.2473,-2.1318,-2.0073,-1.8907,-1.7632,-1.6365,-1.5832,-1.5832,-1.5832,-1.5832,-1.5832,-1.5832,-1.5832,-1.5832,-1.5832,-1.5832,-1.5832,-1.5832,-1.5832,-1.5832,-1.5832,-1.5832,-1.5832,-1.5832,-1.5832,-1.5832,-1.5832,-1.5832,-1.5832,-1.5832,-1.5832,-1.5832,-1.5832,-1.5832,-1.5832,-1.5832,-1.5832,-1.5832,-1.5832,-1.5832,-1.5832,-1.5832,-1.5832,-1.5832,-1.5832,-1.5832,-1.5832,-1.5832,-1.5615,-1.4975,-1.3714,-1.2402,-1.1056,-0.9797,-0.8862,-0.8296,-0.8309,-0.9267,-1.001,-1.0433,-1.1353,-1.2524,-1.4061,-1.3347,-1.3013,-1.327,-1.4467,-1.4407,-1.3295,-1.3295,-1.4512,-1.6746,-1.5575,-1.5047,-1.471,-1.4541,-1.4766,-1.3252,-1.3975,-1.4404,-1.1914,0.0,-1.2686,-1.1758,0.0,-1.1998,-1.2096,0.0,0.0,-1.1543,-1.3271,-1.4316,-1.3379,-1.5239,-1.7022,-1.8004,-2.0783,-2.2201,-2.1114,-1.9786,-1.9902,-2.1875,-2.0244,-2.0146,-2.2461,-2.2578,-2.2754,-2.3125,-2.3135,-2.3135,-2.3135,-2.3135,-2.2475,-2.1268,-2.0073,-1.8904,-1.769,-1.6397,-1.5832,-1.5832,-1.5832,-1.5832,-1.5832,-1.5832,-1.5832,-1.5832,-1.5832,-1.5832,-1.5832,-1.5832,-1.5832,-1.5832,-1.5832,-1.5832,-1.5832,-1.5832,-1.5832,-1.5832,-1.5832,-1.5832,-1.5832,-1.5832,-1.5832,-1.5832,-1.5832,-1.5832,-1.5832,-1.5832,-1.5832,-1.5832,-1.5832,-1.5832,-1.5832,-1.5832,-1.5832,-1.5832,-1.5832,-1.5832,-1.5832,-1.5832,-1.4867,-1.3613,-1.2273,-1.1151,-0.99,-0.8656,-0.8453,-0.847,-0.8455,-0.8613,-0.8726,-0.8951,-0.9016,-0.9282,-0.9625,-1.0773,-1.1964,-1.327,-1.3451,-1.3422,-1.3277,-1.3277,-1.3434,-1.3741,-1.362,-1.3495,-1.47,-1.4941,-1.5381,-1.3672,-1.4336,-1.4824,-1.2568,-1.2285,-1.2412,-1.2119,0.0,0.0,0.0,0.0,0.0,0.0,-1.2686,-1.3203,-1.1602,-1.4133,-1.6213,-1.6336,-1.7573,-1.8696,-1.9483,-1.8764,-1.9277,-2.1709,-1.9863,-1.9658,-2.2021,-2.2383,-2.2598,-2.2773,-2.3018,-2.3135,-2.3135,-2.2403,-2.1799,-2.1246,-1.9389,-1.8218,-1.7649,-1.6351,-1.5832,-1.5832,-1.5832,-1.5832,-1.5832,-1.5832,-1.5832,-1.5832,-1.5832,-1.5832,-1.5832,-1.5832,-1.5832,-1.5832,-1.5832,-1.5832,-1.5832,-1.5832,-1.5832,-1.5832,-1.5832,-1.5832,-1.5832,-1.5832,-1.5832,-1.5832,-1.5832,-1.5832,-1.5832,-1.5832,-1.5832,-1.5892,-1.6016,-1.6044,-1.6117,-1.6333,-1.6175,-1.6055,-1.6055,-1.594,-1.5832,-1.5832,-1.5305,-1.4333,-1.237,-1.1693,-1.0597,-0.8635,-0.856,-0.8662,-0.8579,-0.8598,-0.8712,-0.8826,-0.9625,-0.9739,-0.894,-1.1173,-1.1827,-1.0785,-1.1612,-1.1647,-1.0777,-1.0777,-1.0704,-1.0787,-1.1589,-1.2014,-1.5557,-1.5791,-1.6074,-1.3887,-1.4209,-1.4609,-1.291,-1.2646,-1.2725,-1.2861,-1.2393,0.0,0.0,0.0,-1.1328,-1.1577,0.0,-1.2344,-1.0537,-1.2806,-1.4513,-1.426,-1.47,-1.579,-1.7529,-1.6846,-1.7529,-2.0596,-1.8701,-1.8662,-2.1553,-2.2002,-2.2266,-2.251,-2.2812,-2.3027,-2.3135,-2.1933,-2.1132,-2.0817,-1.8692,-1.7502,-1.7131,-1.6197,-1.5832,-1.5832,-1.5832,-1.5832,-1.5832,-1.5832,-1.5832,-1.5832,-1.5832,-1.5832,-1.5832,-1.5832,-1.5832,-1.5832,-1.5832,-1.5832,-1.5832,-1.5832,-1.5832,-1.5832,-1.5832,-1.5832,-1.5832,-1.5832,-1.5832,-1.5832,-1.5832,-1.5832,-1.5832,-1.5832,-1.5832,-1.5905,-1.6089,-1.6209,-1.6361,-1.658,-1.6464,-1.6443,-1.6443,-1.6148,-1.5916,-1.596,-1.5724,-1.4783,-1.2557,-1.2048,-1.0963,-0.8779,-0.8712,-0.8712,-0.8712,-0.8712,-0.8826,-0.8937,-0.9857,-0.9972,-0.894,-1.0928,-1.1038,-0.8937,-0.9915,-0.9915,-0.894,-0.894,-0.894,-0.894,-0.9972,-1.0544,-1.7978,-1.7607,-1.7139,-1.375,-1.3545,-1.3721,-1.2037,-1.2881,-1.3795,-1.3047,-1.3838,-1.4297,-1.3086,-1.249,-1.2051,-1.1675,-1.1636,0.0,0.0,-1.0365,0.0,0.0,0.0,-1.4696,-1.5439,-1.3262,-1.3564,-1.7812,-1.5683,-1.6257,-2.1006,-2.1269,-2.165,-2.248,-2.2519,-2.2734,-2.3135,-2.1933,-2.0744,-1.9527,-1.8304,-1.7081,-1.5825,-1.5825,-1.5832,-1.5832,-1.5832,-1.5832,-1.5832,-1.5832,-1.5832,-1.5832,-1.5832,-1.5832,-1.5832,-1.5832,-1.5832,-1.5832,-1.5832,-1.5832,-1.5832,-1.5832,-1.5832,-1.5832,-1.5832,-1.5832,-1.5832,-1.5832,-1.5832,-1.5832,-1.5832,-1.5832,-1.5832,-1.5832,-1.5832,-1.5832,-1.5845,-1.6079,-1.6286,-1.6286,-1.6534,-1.672,-1.6684,-1.6441,-1.6262,-1.6245,-1.5507,-1.4248,-1.2797,-1.1657,-1.0402,-0.8826,-0.8826,-0.8937,-0.8937,-0.8937,-0.8937,-0.894,-0.894,-0.894,-0.894,-0.8937,-0.9047,-0.894,-0.8937,-0.8937,-0.894,-0.894,-0.894,-0.894,-0.894,-0.894,-1.8887,-1.9375,-1.9316,-1.585,-1.585,-1.5947,-1.3086,-1.3535,-1.4248,-1.3115,-1.3896,-1.4394,-1.3115,-1.2529,-1.2178,-1.2031,-1.1514,-1.083,0.0,-0.9343,-0.9081,0.0,0.0,0.0,0.0,-1.3115,-1.4355,-1.6963,-1.6286,-1.7168,-2.0205,-2.0918,-2.1504,-2.208,-2.2373,-2.2715,-2.3135,-2.1123,-2.0331,-2.0654,-1.7842,-1.6649,-1.7037,-1.6204,-1.5832,-1.5832,-1.5832,-1.5832,-1.5832,-1.5832,-1.5832,-1.5832,-1.5832,-1.5832,-1.5832,-1.5832,-1.5832,-1.5832,-1.5832,-1.5832,-1.5832,-1.5832,-1.5832,-1.5832,-1.5832,-1.5965,-1.6119,-1.6119,-1.6259,-1.6413,-1.6413,-1.6266,-1.6119,-1.6119,-1.5972,-1.5639,-1.5017,-1.5633,-1.6137,-1.5766,-1.6221,-1.6814,-1.6995,-1.6954,-1.677,-1.6642,-1.6298,-1.5617,-1.4378,-1.3816,-1.3138,-1.1869,-1.087,-1.0323,-1.0323,-0.9475,-0.894,-0.894,-0.894,-0.894,-0.894,-0.894,-0.894,-0.894,-0.894,-0.894,-0.894,-0.894,-0.894,-0.894,-0.894,-0.894,-2.0098,-2.0596,-2.0518,-1.75,-1.7383,-1.7227,-1.4238,-1.4551,-1.5156,-1.4014,-1.4316,-1.4766,-1.4717,-1.335,-1.2336,-1.2783,-1.166,-1.0332,0.0,-0.8848,-0.8486,0.0,0.0,0.0,0.0,0.0,-1.3163,-1.6422,-1.6016,-1.6855,-1.9756,-2.0605,-2.1269,-2.1865,-2.2148,-2.2568,-2.3135,-2.0674,-1.9852,-2.0666,-1.7382,-1.6204,-1.7037,-1.6197,-1.5832,-1.5832,-1.5832,-1.5832,-1.5832,-1.5832,-1.5832,-1.5832,-1.5832,-1.5832,-1.5832,-1.5832,-1.5832,-1.5832,-1.5832,-1.5832,-1.5832,-1.5832,-1.5832,-1.5832,-1.5832,-1.6039,-1.6273,-1.6273,-1.648,-1.6707,-1.6707,-1.6567,-1.6426,-1.6426,-1.5882,-1.5145,-1.4577,-1.4797,-1.4898,-1.4545,-1.4984,-1.5603,-1.578,-1.5811,-1.6033,-1.6788,-1.701,-1.6516,-1.534,-1.514,-1.4674,-1.3449,-1.1932,-1.0853,-1.0323,-0.9471,-0.894,-0.894,-0.894,-0.894,-0.894,-0.894,-0.894,-0.894,-0.894,-0.894,-0.894,-0.894,-0.894,-0.894,-0.894,-0.894]},{"header":{"parameterUnit":"m.s-1","parameterCategory":1,"la1":30.6,"la2":29.2853,"lo1":-89.7004,"lo2":-87.6739,"dx":0.0162,"dy":0.0183,"nx":112,"ny":82,"refTime":"2022-11-11T18:00:00:Z","depth":0,"parameterNumber":3,"parameterNumberName":"V-component_of_WINDS"},"data":[0.0,0.0,0.0,0.0,0.0,0.0,0.0,0.0,0.0,0.0,0.0,0.0,0.0,0.0,0.0,0.0,0.0,0.0,0.0,0.0,0.0,0.0,0.0,0.0,0.0,0.0,0.0,0.0,0.0,0.0,0.0,0.0,0.0,0.0,0.0,0.0,0.0,0.0,0.0,0.0,0.0,0.0,0.0,0.0,0.0,0.0,0.0,0.0,0.0,0.0,0.0,0.0,0.0,0.0,0.0,0.0,0.0,0.0,0.0,0.0,0.0,0.0,0.0,0.0,0.0,0.0,0.0,0.0,0.0,0.0,0.0,0.0,0.0,0.0,0.0,0.0,0.0,0.0,0.0,0.0,0.0,0.0,0.0,0.0,0.0,0.0,0.0,0.0,0.0,0.0,-2.5261,-3.1252,-3.4123,-3.5591,-3.5591,-3.3315,-3.1671,-3.122,0.0,0.0,0.0,0.0,0.0,0.0,0.0,0.0,0.0,0.0,0.0,0.0,0.0,0.0,0.0,0.0,0.0,0.0,0.0,0.0,0.0,0.0,0.0,0.0,0.0,0.0,0.0,0.0,0.0,0.0,0.0,0.0,0.0,0.0,0.0,0.0,0.0,0.0,0.0,0.0,0.0,0.0,0.0,0.0,0.0,0.0,0.0,0.0,0.0,0.0,0.0,0.0,0.0,0.0,0.0,0.0,0.0,0.0,0.0,0.0,0.0,0.0,0.0,0.0,0.0,0.0,0.0,0.0,0.0,0.0,0.0,0.0,0.0,0.0,0.0,0.0,0.0,0.0,0.0,0.0,0.0,0.0,0.0,0.0,0.0,0.0,0.0,0.0,0.0,0.0,0.0,0.0,0.0,0.0,0.0,0.0,0.0,0.0,0.0,0.0,0.0,0.0,0.0,0.0,-2.8328,-3.4289,-3.5343,-3.5591,-3.5591,-3.5181,-3.3847,-3.1372,0.0,0.0,0.0,0.0,0.0,0.0,0.0,0.0,0.0,0.0,0.0,0.0,0.0,0.0,0.0,0.0,0.0,0.0,0.0,0.0,0.0,0.0,0.0,0.0,0.0,0.0,0.0,0.0,0.0,0.0,0.0,0.0,0.0,0.0,0.0,0.0,0.0,0.0,0.0,0.0,0.0,0.0,0.0,0.0,0.0,0.0,0.0,0.0,0.0,0.0,0.0,0.0,0.0,0.0,0.0,0.0,0.0,0.0,0.0,0.0,0.0,0.0,0.0,0.0,0.0,0.0,0.0,0.0,0.0,0.0,0.0,0.0,0.0,0.0,0.0,0.0,0.0,0.0,0.0,0.0,0.0,0.0,0.0,0.0,0.0,0.0,0.0,0.0,0.0,0.0,0.0,0.0,0.0,0.0,0.0,0.0,0.0,0.0,0.0,0.0,0.0,0.0,0.0,-2.8314,-3.08,-3.5155,-3.5589,-3.562,-3.562,-3.5625,-3.4318,-3.1393,-2.3967,0.0,0.0,0.0,0.0,0.0,0.0,0.0,0.0,0.0,0.0,0.0,0.0,0.0,0.0,0.0,0.0,0.0,0.0,0.0,0.0,0.0,0.0,0.0,0.0,0.0,0.0,0.0,0.0,0.0,0.0,0.0,0.0,0.0,0.0,0.0,0.0,0.0,0.0,0.0,0.0,0.0,0.0,0.0,0.0,0.0,0.0,0.0,0.0,0.0,0.0,0.0,0.0,0.0,0.0,0.0,0.0,0.0,0.0,0.0,0.0,0.0,0.0,0.0,0.0,0.0,0.0,0.0,0.0,0.0,0.0,0.0,0.0,0.0,0.0,0.0,0.0,0.0,0.0,0.0,0.0,0.0,0.0,0.0,0.0,0.0,0.0,0.0,0.0,0.0,0.0,0.0,0.0,0.0,0.0,0.0,0.0,0.0,0.0,0.0,0.0,0.0,0.0,-3.0486,-3.311,-3.5369,-3.5582,-3.5611,-3.5577,-3.5603,-3.4635,-3.2376,-2.4328,0.0,0.0,0.0,0.0,0.0,0.0,0.0,0.0,0.0,0.0,0.0,0.0,0.0,0.0,0.0,0.0,0.0,0.0,0.0,0.0,0.0,0.0,0.0,0.0,0.0,0.0,0.0,0.0,0.0,0.0,0.0,0.0,0.0,0.0,0.0,0.0,0.0,0.0,0.0,0.0,0.0,0.0,0.0,0.0,0.0,0.0,0.0,0.0,0.0,0.0,0.0,0.0,0.0,0.0,0.0,0.0,0.0,0.0,0.0,0.0,0.0,0.0,0.0,0.0,0.0,0.0,0.0,0.0,0.0,0.0,0.0,0.0,0.0,0.0,0.0,0.0,0.0,0.0,0.0,0.0,0.0,0.0,0.0,0.0,0.0,0.0,0.0,0.0,0.0,0.0,0.0,0.0,0.0,0.0,0.0,0.0,0.0,0.0,0.0,0.0,0.0,0.0,-2.8431,-3.5368,-3.5591,-3.5594,-3.5609,-3.5594,-3.5605,-3.5504,-3.5296,-2.5471,0.0,0.0,0.0,0.0,0.0,0.0,0.0,0.0,0.0,0.0,0.0,0.0,0.0,0.0,0.0,0.0,0.0,0.0,0.0,0.0,0.0,0.0,0.0,0.0,0.0,0.0,0.0,0.0,0.0,0.0,0.0,0.0,0.0,0.0,0.0,0.0,0.0,0.0,0.0,0.0,0.0,0.0,0.0,0.0,0.0,0.0,0.0,0.0,0.0,0.0,0.0,0.0,0.0,0.0,0.0,0.0,0.0,0.0,0.0,0.0,0.0,0.0,0.0,0.0,0.0,0.0,0.0,0.0,0.0,0.0,0.0,0.0,0.0,0.0,0.0,0.0,0.0,0.0,0.0,0.0,0.0,0.0,0.0,0.0,0.0,0.0,0.0,0.0,0.0,0.0,0.0,0.0,0.0,0.0,0.0,0.0,0.0,0.0,0.0,0.0,0.0,0.0,-3.166,-3.5583,-3.5588,-3.5609,-3.6346,-3.824,-3.6671,-3.5603,-3.5619,0.0,0.0,0.0,0.0,0.0,0.0,0.0,0.0,0.0,0.0,0.0,0.0,0.0,0.0,0.0,0.0,0.0,0.0,0.0,0.0,0.0,0.0,0.0,0.0,0.0,0.0,0.0,0.0,0.0,0.0,0.0,0.0,0.0,0.0,0.0,0.0,0.0,0.0,0.0,0.0,0.0,0.0,0.0,0.0,0.0,0.0,0.0,0.0,0.0,0.0,0.0,0.0,0.0,0.0,0.0,0.0,0.0,0.0,0.0,0.0,0.0,0.0,0.0,0.0,0.0,0.0,0.0,0.0,0.0,0.0,0.0,0.0,0.0,0.0,0.0,0.0,0.0,0.0,0.0,0.0,0.0,0.0,0.0,0.0,0.0,0.0,0.0,0.0,0.0,0.0,0.0,0.0,0.0,0.0,0.0,0.0,0.0,0.0,0.0,0.0,0.0,0.0,-3.0878,-3.4047,-3.5808,-3.6299,-3.6764,-3.7882,-3.9915,-3.8201,-3.5836,-3.2969,0.0,0.0,0.0,0.0,0.0,0.0,0.0,0.0,0.0,0.0,0.0,0.0,0.0,0.0,0.0,0.0,0.0,0.0,0.0,0.0,0.0,0.0,0.0,0.0,0.0,0.0,0.0,0.0,0.0,0.0,0.0,0.0,0.0,0.0,0.0,0.0,0.0,0.0,0.0,0.0,0.0,0.0,0.0,0.0,0.0,0.0,0.0,0.0,0.0,0.0,0.0,0.0,0.0,0.0,0.0,0.0,0.0,0.0,0.0,0.0,0.0,0.0,0.0,0.0,0.0,0.0,0.0,0.0,0.0,0.0,0.0,0.0,0.0,0.0,0.0,0.0,0.0,0.0,0.0,0.0,0.0,0.0,0.0,0.0,0.0,0.0,0.0,0.0,0.0,0.0,0.0,0.0,0.0,0.0,0.0,0.0,0.0,0.0,0.0,0.0,0.0,0.0,-3.2623,-3.4683,-3.6195,-3.7746,-3.9228,-4.0095,-4.0086,-4.0109,-3.6241,0.0,0.0,0.0,0.0,0.0,0.0,0.0,0.0,0.0,0.0,0.0,0.0,0.0,0.0,0.0,0.0,0.0,0.0,0.0,0.0,0.0,0.0,0.0,0.0,0.0,0.0,0.0,0.0,0.0,0.0,0.0,0.0,0.0,0.0,0.0,0.0,0.0,0.0,0.0,0.0,0.0,0.0,0.0,0.0,0.0,0.0,0.0,0.0,0.0,0.0,0.0,0.0,0.0,0.0,0.0,0.0,0.0,0.0,0.0,0.0,0.0,0.0,0.0,0.0,0.0,0.0,0.0,0.0,0.0,0.0,0.0,0.0,0.0,0.0,0.0,0.0,0.0,0.0,0.0,0.0,0.0,0.0,0.0,0.0,0.0,0.0,0.0,0.0,0.0,0.0,0.0,0.0,0.0,0.0,0.0,0.0,0.0,0.0,0.0,0.0,0.0,0.0,0.0,-3.2781,-3.563,-3.7792,-3.9316,-3.9839,-4.0099,-4.0118,-4.0099,-3.6717,-2.8821,0.0,0.0,0.0,0.0,0.0,0.0,0.0,0.0,0.0,0.0,0.0,0.0,0.0,0.0,0.0,0.0,0.0,0.0,0.0,0.0,0.0,0.0,0.0,0.0,0.0,0.0,0.0,0.0,0.0,0.0,0.0,0.0,0.0,0.0,0.0,0.0,0.0,0.0,0.0,0.0,0.0,0.0,0.0,0.0,0.0,0.0,0.0,0.0,0.0,0.0,0.0,0.0,0.0,0.0,0.0,0.0,0.0,0.0,0.0,0.0,0.0,0.0,0.0,0.0,0.0,0.0,0.0,0.0,0.0,0.0,0.0,0.0,0.0,0.0,0.0,0.0,0.0,0.0,0.0,0.0,0.0,0.0,0.0,0.0,0.0,0.0,0.0,0.0,0.0,0.0,0.0,0.0,0.0,0.0,0.0,0.0,0.0,0.0,0.0,0.0,0.0,0.0,-3.1115,-3.4782,-3.7648,-3.945,-3.9929,-4.0119,-4.0121,-4.0086,-3.7577,-3.1587,0.0,0.0,0.0,0.0,0.0,0.0,0.0,0.0,0.0,0.0,0.0,0.0,0.0,0.0,0.0,0.0,0.0,0.0,0.0,0.0,0.0,0.0,0.0,0.0,0.0,0.0,0.0,0.0,0.0,0.0,0.0,0.0,0.0,0.0,0.0,0.0,0.0,0.0,0.0,0.0,0.0,0.0,0.0,0.0,0.0,0.0,0.0,0.0,0.0,0.0,0.0,0.0,0.0,0.0,0.0,0.0,0.0,0.0,0.0,0.0,0.0,0.0,0.0,0.0,0.0,0.0,0.0,0.0,0.0,0.0,0.0,0.0,0.0,0.0,0.0,0.0,0.0,0.0,0.0,0.0,0.0,0.0,0.0,0.0,0.0,0.0,0.0,0.0,0.0,0.0,0.0,0.0,0.0,0.0,0.0,0.0,0.0,0.0,0.0,0.0,0.0,0.0,-2.8554,-3.301,-3.6636,-3.8785,-3.9648,-4.007,-4.007,-4.007,-3.8481,-3.4726,0.0,0.0,0.0,0.0,0.0,0.0,0.0,0.0,0.0,0.0,0.0,0.0,0.0,0.0,0.0,0.0,0.0,0.0,0.0,0.0,0.0,0.0,0.0,0.0,0.0,0.0,0.0,0.0,0.0,0.0,0.0,0.0,0.0,0.0,0.0,0.0,0.0,0.0,0.0,0.0,0.0,0.0,0.0,0.0,0.0,0.0,0.0,0.0,0.0,0.0,0.0,0.0,0.0,0.0,0.0,0.0,0.0,0.0,0.0,0.0,-1.671,-1.4157,0.0,0.0,0.0,0.0,0.0,0.0,0.0,0.0,0.0,0.0,0.0,0.0,0.0,0.0,0.0,0.0,0.0,0.0,0.0,0.0,0.0,0.0,0.0,0.0,0.0,0.0,0.0,0.0,0.0,0.0,0.0,0.0,0.0,0.0,0.0,0.0,0.0,0.0,0.0,0.0,-2.8605,-3.3905,-3.7824,-3.8886,-3.9648,-4.007,-4.007,-4.007,-3.8481,-3.4726,-3.3068,0.0,0.0,0.0,0.0,0.0,0.0,0.0,0.0,0.0,0.0,0.0,0.0,0.0,0.0,0.0,0.0,0.0,0.0,0.0,0.0,0.0,0.0,0.0,0.0,0.0,0.0,0.0,0.0,0.0,0.0,0.0,0.0,0.0,0.0,0.0,0.0,0.0,0.0,0.0,0.0,0.0,0.0,0.0,0.0,0.0,0.0,0.0,0.0,0.0,0.0,0.0,0.0,0.0,0.0,0.0,0.0,0.0,0.0,0.0,-1.9664,-1.7957,0.0,0.0,0.0,0.0,0.0,0.0,0.0,0.0,0.0,0.0,0.0,0.0,0.0,0.0,0.0,0.0,0.0,0.0,0.0,0.0,0.0,0.0,0.0,0.0,0.0,0.0,0.0,0.0,0.0,0.0,0.0,0.0,0.0,0.0,0.0,0.0,0.0,0.0,0.0,0.0,-2.9651,-3.4945,-3.87,-3.9445,-3.9851,-4.007,-4.007,-4.007,-3.9242,-3.7297,-3.5131,0.0,0.0,0.0,0.0,0.0,0.0,0.0,0.0,0.0,0.0,0.0,0.0,0.0,0.0,0.0,0.0,0.0,0.0,0.0,0.0,0.0,0.0,0.0,0.0,0.0,0.0,0.0,0.0,0.0,0.0,0.0,0.0,0.0,0.0,0.0,0.0,0.0,0.0,0.0,0.0,0.0,0.0,0.0,0.0,0.0,0.0,0.0,0.0,0.0,0.0,0.0,0.0,0.0,-2.3531,-2.3264,-2.4698,-2.4741,-2.5144,-2.5617,-2.2798,-2.2562,-2.395,-2.0696,0.0,0.0,0.0,0.0,0.0,0.0,0.0,0.0,0.0,0.0,0.0,0.0,0.0,0.0,0.0,0.0,0.0,0.0,0.0,0.0,0.0,0.0,-2.6252,-3.1199,-3.3628,-3.339,-2.7998,0.0,0.0,0.0,0.0,0.0,0.0,0.0,0.0,0.0,0.0,0.0,-3.1529,-3.6079,-3.9326,-4.0189,-4.0273,-4.0324,-4.0443,-4.0341,-4.0273,-4.0273,-3.7246,-3.4962,0.0,0.0,0.0,0.0,0.0,0.0,0.0,0.0,0.0,0.0,0.0,0.0,0.0,0.0,0.0,0.0,0.0,0.0,0.0,0.0,0.0,0.0,0.0,0.0,0.0,0.0,0.0,0.0,0.0,0.0,0.0,0.0,-1.4018,-1.3484,0.0,0.0,0.0,0.0,0.0,0.0,0.0,0.0,0.0,0.0,0.0,0.0,0.0,-2.9255,-2.9774,-2.8671,-2.7735,-2.6959,-2.7209,-2.7932,-2.9078,-2.9296,-2.981,-3.0391,-2.8582,0.0,-2.8077,-2.6285,0.0,0.0,0.0,0.0,0.0,0.0,0.0,0.0,0.0,0.0,0.0,0.0,0.0,0.0,0.0,0.0,0.0,0.0,0.0,0.0,0.0,0.0,-3.6053,-3.6802,-3.7223,-3.717,-3.6299,-3.1529,-2.7266,-2.6843,-2.6184,-2.4763,0.0,0.0,0.0,0.0,0.0,0.0,-3.4404,-3.7347,-3.9529,-4.0916,-4.1052,-4.1305,-4.1948,-4.1424,-4.1052,-4.1052,-3.9986,-3.8125,-3.5436,-3.4218,0.0,0.0,0.0,0.0,0.0,0.0,0.0,0.0,0.0,0.0,0.0,0.0,0.0,0.0,0.0,0.0,0.0,0.0,0.0,0.0,0.0,0.0,0.0,0.0,0.0,0.0,0.0,0.0,0.0,-1.2367,-1.2918,-1.4873,-1.3888,-1.2823,0.0,0.0,0.0,0.0,0.0,0.0,0.0,0.0,0.0,-2.4634,-2.839,-3.0258,-3.0052,-2.9958,-2.9782,-2.9562,-2.9853,-3.0731,-3.2141,-3.3201,-3.334,-3.2703,-3.2009,-3.2747,-3.4196,-3.0661,-2.7683,-2.5006,0.0,0.0,0.0,0.0,-2.3672,-2.7338,-2.7705,-3.0394,-3.365,-3.3671,0.0,0.0,0.0,0.0,0.0,0.0,0.0,-3.017,-3.185,-3.5711,-3.9143,-3.9119,-3.9115,-3.9151,-3.9156,-3.6806,-3.3964,-3.1444,-3.0345,-2.8484,-2.4255,-2.4932,0.0,0.0,0.0,-3.3186,-3.5926,-3.8954,-4.1085,-4.1745,-4.1813,-4.1948,-4.2269,-4.1999,-4.1813,-4.1813,-4.1119,-4.0121,-3.8819,-3.6417,-3.3541,0.0,0.0,0.0,0.0,0.0,0.0,0.0,0.0,0.0,0.0,0.0,0.0,0.0,0.0,0.0,0.0,0.0,0.0,0.0,0.0,0.0,0.0,0.0,0.0,0.0,0.0,0.0,0.0,-1.3156,-1.3681,-1.7392,-1.5971,-1.4879,0.0,0.0,0.0,0.0,0.0,0.0,-2.895,-2.673,-2.6148,-2.7719,-3.0528,-3.1441,-3.0247,-3.06,-3.1206,-3.2001,-3.1992,-3.2647,-3.3855,-3.597,-3.6236,-3.5056,-3.5056,-3.6438,-3.8367,-3.4075,-3.2336,-3.1917,-2.8007,-2.6185,-2.5703,-2.5688,-2.8999,-3.3806,-3.598,-3.6741,-3.6723,-3.6745,-3.6771,-3.6334,-3.4141,0.0,0.0,0.0,0.0,-3.7266,-3.9521,-4.0092,-4.0084,-4.0095,-4.0084,-4.0118,-4.0104,-4.007,-3.9089,-3.5757,-3.4658,-3.2797,-2.8129,-2.9194,0.0,-2.8687,-3.2859,-3.6661,-3.8038,-4.0781,-4.2549,-4.2557,-4.2574,-4.2658,-4.2861,-4.2692,-4.2574,-4.2574,-4.1897,-4.1407,-4.1221,-3.8531,-3.6332,-3.481,0.0,0.0,0.0,0.0,0.0,0.0,0.0,0.0,0.0,0.0,0.0,0.0,0.0,0.0,0.0,0.0,0.0,0.0,0.0,0.0,0.0,0.0,0.0,0.0,0.0,0.0,0.0,0.0,0.0,-2.1628,-1.9726,0.0,0.0,0.0,0.0,-2.3004,-2.4165,-2.5783,-2.8839,-2.8862,-2.7427,-2.4531,-3.0448,-3.3635,-3.3545,-3.2117,-3.2138,-3.3679,-3.3686,-3.3728,-3.3894,-3.7118,-3.8541,-3.8456,-3.8456,-3.8536,-3.8539,-3.6304,-3.5395,-3.5555,-3.7213,-3.6655,-3.4923,-3.4902,-3.6903,-3.9678,-3.9829,-3.9846,-3.986,-3.9843,-3.9853,-3.9826,-3.9698,-3.9451,0.0,0.0,-3.9547,-3.9898,-4.0086,-4.0084,-4.012,-4.0104,-4.0121,-4.0121,-4.007,-4.007,-4.0003,-3.9783,-3.9715,-3.87,-3.5588,0.0,-3.5504,-3.6129,-3.6999,-3.8674,-4.1646,-4.2739,-4.3286,-4.3339,-4.3352,-4.3656,-4.4401,-4.3775,-4.3352,-4.3352,-4.2658,-4.1931,-4.1238,-4.1035,-3.9225,-3.5639,-3.3998,0.0,0.0,0.0,0.0,0.0,0.0,0.0,0.0,0.0,0.0,0.0,0.0,0.0,0.0,0.0,0.0,0.0,0.0,0.0,0.0,0.0,0.0,0.0,0.0,0.0,0.0,0.0,0.0,-2.0978,-2.3687,0.0,-2.1185,-1.9759,-1.9596,-2.0952,-2.4924,-2.7791,-2.8938,-2.9007,-2.8463,-2.7349,-3.1517,-3.3802,-3.3808,-3.3223,-3.4302,-3.6938,-3.6945,-3.6941,-3.6997,-3.8175,-3.8701,-3.8707,-3.87,-3.8692,-3.8686,-3.8558,-3.8509,-3.8559,-3.9309,-3.9136,-3.8477,-3.8482,-3.9162,-4.0092,-4.0092,-4.0082,-4.0101,-4.0101,-4.0095,-4.0117,-4.0113,-4.0087,-4.0083,-4.0083,-4.0089,-4.0078,-4.0085,-4.0087,-4.0104,-4.0087,-4.0815,-4.1409,-4.1135,-4.1287,-4.1508,-4.1508,-4.1119,-4.0003,-3.7516,-3.865,-3.9474,-3.8281,-4.032,-4.2536,-4.4021,-4.4518,-4.4699,-4.4732,-4.4388,-4.4282,-4.4553,-4.4333,-4.4164,-4.4164,-4.298,-4.2168,-4.1914,-4.0984,-3.9851,-3.8514,-3.8328,-3.4878,0.0,0.0,0.0,0.0,0.0,0.0,0.0,0.0,0.0,0.0,0.0,0.0,0.0,0.0,0.0,0.0,0.0,0.0,0.0,0.0,0.0,0.0,0.0,0.0,0.0,-1.5308,-1.736,-2.0856,-2.5377,-2.7142,-2.4486,-2.5205,-2.4928,-2.2751,-2.6556,-2.9003,-2.9007,-3.0033,-3.06,-3.0618,-3.2698,-3.3788,-3.3789,-3.4907,-3.6562,-3.8693,-3.87,-3.8695,-3.8707,-3.8707,-3.8695,-3.87,-3.8692,-3.9333,-4.0323,-4.0147,-4.0087,-4.0124,-4.0103,-4.0083,-4.0095,-4.0095,-4.0317,-4.0597,-4.0231,-4.0085,-4.007,-4.007,-4.007,-4.007,-4.007,-4.007,-4.007,-4.007,-4.007,-4.0087,-4.0121,-4.0087,-4.007,-4.0117,-4.161,-4.2926,-4.2219,-4.2422,-4.2675,-4.2675,-4.2083,-4.1102,-3.9648,-4.1001,-4.1749,-4.0225,-4.2518,-4.4433,-4.4614,-4.5344,-4.5648,-4.5232,-4.5052,-4.4814,-4.4626,-4.3876,-4.3656,-4.4147,-4.276,-4.1931,-4.1931,-4.0493,-3.9478,-3.8971,-3.952,-3.6765,-3.0622,0.0,0.0,0.0,0.0,0.0,0.0,0.0,0.0,0.0,0.0,0.0,0.0,0.0,0.0,0.0,0.0,0.0,0.0,0.0,0.0,0.0,0.0,0.0,-1.6961,-1.8693,-2.0477,-2.1765,-2.4717,-2.7243,-2.8783,-2.8975,-2.9005,-2.9005,-2.8989,-2.904,-2.9132,-3.2107,-3.381,-3.381,-3.386,-3.3881,-3.388,-3.709,-3.8707,-3.8711,-3.8713,-3.8707,-3.8707,-3.8695,-3.87,-3.8716,-3.8793,-4.0574,-4.3197,-4.0989,-4.0096,-4.007,-4.007,-4.007,-4.007,-4.007,-4.0788,-4.1615,-4.0452,-4.0107,-4.007,-4.007,-4.007,-4.007,-4.007,-4.007,-4.007,-4.007,-4.007,-4.0121,-4.0068,-4.0186,-4.0234,-4.0244,-4.2475,-4.4331,-4.3367,-4.3325,-4.3453,-4.3453,-4.2861,-4.2354,-4.2354,-4.2407,-4.2407,-4.2407,-4.358,0.0,-4.3583,-4.5212,-4.5947,-4.4742,-4.5108,-4.5197,-4.4592,-4.254,-4.1897,-4.3369,-4.2083,-4.1271,-4.1271,-3.9868,-3.8413,-3.6988,-3.7317,-3.6829,-3.5418,0.0,0.0,0.0,0.0,0.0,0.0,0.0,0.0,0.0,0.0,0.0,0.0,0.0,0.0,0.0,0.0,0.0,0.0,0.0,0.0,0.0,-1.7241,-1.9533,-1.9112,-2.0923,-2.2891,-2.4496,-2.6164,-2.7353,-2.7809,-2.8555,-2.8998,-2.8983,-2.8991,-3.0003,-3.2371,-3.3324,-3.3802,-3.3778,-3.499,-3.5607,-3.5632,-3.7669,-3.8711,-3.8683,-3.8689,-3.8707,-3.8695,-3.8689,-3.8707,-3.8844,-4.1157,-4.1752,-4.099,-4.0374,-4.0117,-4.007,-4.007,-4.007,-4.007,-4.007,-4.0289,-4.0539,-4.0201,-4.0102,-4.007,-4.007,-4.007,-4.007,-4.007,-4.007,-4.007,-4.007,-4.007,-4.0121,-4.0068,-4.1697,-4.3338,-4.3342,-4.4011,-4.4545,-4.4241,-4.4236,-4.4265,-4.4265,-4.4096,-4.3944,-4.3944,-4.4312,-4.463,-4.463,-4.5751,-4.6498,-4.6298,-4.6354,-4.6076,-4.5176,-4.4423,-4.3909,-4.3724,-4.3166,-4.3234,-4.4198,-4.3352,-4.2811,-4.2811,-4.1897,-4.1188,-4.0638,-3.7352,-3.5647,0.0,0.0,0.0,0.0,0.0,0.0,0.0,0.0,0.0,0.0,0.0,0.0,0.0,0.0,0.0,0.0,0.0,0.0,0.0,0.0,0.0,0.0,-1.9321,-2.1562,-2.1313,-2.2516,-2.3849,-2.4983,-2.6274,-2.7148,-2.7376,-2.837,-2.9007,-2.9004,-3.0259,-3.1845,-3.37,-3.3821,-3.3805,-3.3807,-3.5202,-3.6417,-3.7301,-3.7787,-3.8272,-3.8707,-3.8697,-3.8679,-3.8695,-3.8688,-3.8924,-3.9436,-4.2262,-4.222,-4.0106,-4.0117,-4.0097,-4.007,0.0,0.0,0.0,0.0,-4.0286,-4.0121,-4.0368,-4.0286,-4.007,-4.007,-4.007,-4.007,-4.007,-4.051,-4.1002,-4.1002,-4.1002,-4.1,-4.1045,-4.2802,-4.4624,-4.4589,-4.4601,-4.4618,-4.4609,-4.4587,-4.4587,-4.4587,-4.4587,0.0,-4.4587,-4.4906,-4.5022,-4.4696,-4.554,-4.6103,-4.5769,-4.5901,-4.574,-4.5072,-4.4543,-4.4187,-4.3893,-4.3031,0.0,0.0,0.0,-4.2354,-4.2033,-4.1563,0.0,0.0,0.0,-3.7714,-3.9241,-3.7175,0.0,0.0,-3.3382,-3.2535,0.0,0.0,0.0,0.0,0.0,0.0,0.0,0.0,0.0,0.0,0.0,0.0,0.0,0.0,0.0,0.0,-2.1307,-2.316,-2.323,-2.3594,-2.3994,-2.4417,-2.5819,-2.6958,-2.7523,-2.8443,-2.908,-2.9265,-3.1906,-3.361,-3.3784,-3.3805,0.0,0.0,0.0,-3.6509,-3.8393,-3.7599,-3.7692,-3.8707,-3.8601,-3.8458,-3.8363,-3.8577,-3.921,-4.0199,-4.2237,-4.1998,-4.0083,-4.0116,-4.007,-4.007,-4.007,-4.007,-4.0171,-4.0607,-4.0497,-4.0171,-4.0655,0.0,0.0,-4.007,-4.007,-4.0104,-4.0172,-4.1121,-4.2227,-4.2363,-4.2394,-4.2422,-4.2547,-4.3538,-4.4589,-4.4592,-4.4587,-4.4587,-4.4587,-4.4587,-4.4587,-4.4587,-4.4587,-4.4587,-4.4587,-4.4682,-4.4444,-4.3656,-4.4279,-4.4504,-4.3732,-4.4749,-4.5233,-4.464,-4.5005,0.0,-4.449,-4.2608,-4.2066,-4.347,-4.232,-4.1288,-4.0612,-4.0418,-4.0268,-4.0222,-4.0135,-4.1348,-4.393,-4.393,-4.3983,-4.3895,-3.6932,-3.5335,0.0,0.0,0.0,0.0,0.0,0.0,0.0,0.0,0.0,0.0,0.0,0.0,0.0,0.0,0.0,-1.9229,-2.1229,-2.2958,-2.3374,-2.4136,-2.5031,-2.6017,-2.6998,-2.786,-2.8608,-2.8865,-2.9525,-3.0827,-3.1501,-3.2426,-3.3723,-3.3788,-3.3807,-3.3807,-3.533,-3.635,-3.6765,-3.7303,-3.7976,-3.8707,-3.7881,0.0,-3.6265,-3.7958,-3.9217,-4.0113,-4.0568,-4.0528,-4.0083,-4.0116,-4.007,-4.007,-4.007,-4.007,-4.0121,-4.0204,-4.0204,-4.0121,-4.0204,-4.0204,-4.007,-4.007,-4.007,-4.0189,-4.0798,-4.117,0.0,-4.2685,-4.2974,-4.3124,-4.3939,-4.4368,-4.4589,-4.4592,-4.4587,-4.4587,-4.4587,-4.4587,-4.4587,-4.4587,-4.4587,-4.4587,-4.4587,-4.4998,-4.5091,-4.4461,-4.5321,-4.5813,-4.5165,-4.5321,-4.5217,-4.4509,-4.4057,-4.3786,-4.3639,-4.325,-4.3386,-4.4299,-4.4079,-4.3859,-4.3724,-4.3054,-4.2736,-4.2683,-4.2141,-4.2363,-4.3419,-4.3371,-4.3684,-4.4272,-4.2562,-4.2097,0.0,0.0,0.0,0.0,0.0,0.0,0.0,0.0,0.0,0.0,0.0,-1.7401,-1.8194,0.0,-2.0475,-2.0773,-2.1936,-2.3014,-2.3629,-2.4753,-2.5869,-2.6869,-2.7346,-2.7967,-2.8902,-2.8994,-2.9677,-3.1274,-3.1654,-3.2408,-3.3733,-3.3606,-3.3494,-3.3494,-3.4461,-3.5294,-3.5945,-3.6548,-3.734,-3.83,-3.7733,-3.7006,-3.6202,-3.762,-3.897,-4.0102,-4.0103,-4.0085,-4.0109,-4.0119,-4.007,-4.007,-4.007,-4.007,-4.007,-4.007,-4.007,-4.007,-4.007,-4.007,-4.007,-4.007,-4.007,-4.0223,-4.0984,-4.1457,-4.1948,-4.2949,-4.3545,-4.3952,-4.45,-4.4618,-4.458,-4.4609,-4.4587,-4.4587,-4.4587,-4.4587,-4.4587,-4.4587,-4.4587,-4.4587,-4.4587,-4.4852,-4.4961,-4.4626,-4.5089,-4.5407,-4.5089,-4.5052,-4.4898,-4.4521,-4.4181,-4.3995,-4.3995,-4.3995,-4.4164,-4.4553,-4.4852,-4.4906,-4.4626,-4.4477,-4.4326,-4.3995,-4.3623,-4.3637,-4.3922,-4.3922,-4.411,-4.4523,-4.4371,-4.4284,0.0,0.0,0.0,0.0,0.0,0.0,0.0,-1.3568,-1.4299,-1.687,-1.7997,-1.8892,-2.0195,-2.0803,-2.136,-2.2164,-2.2586,-2.3041,-2.3794,-2.5065,-2.6231,-2.7155,-2.7537,-2.8058,-2.892,-2.8874,-2.943,-3.102,-3.1613,-3.2373,-3.3478,-3.3225,-3.3075,-3.3075,-3.3461,-3.4278,-3.5415,-3.5723,-3.6505,-3.7773,-3.7444,-3.7079,-3.6679,-3.7387,-3.8474,-3.9822,-4.0044,-4.007,-4.007,-4.007,-4.007,-4.007,-4.007,-4.007,-4.007,-4.007,-4.007,-4.007,-4.007,-4.007,-4.007,-4.007,-4.007,-4.024,-4.1153,-4.183,-4.2472,-4.3386,-4.4096,-4.4587,-4.4587,-4.4587,-4.4587,-4.4587,-4.4587,-4.4587,-4.4587,-4.4587,-4.4587,-4.4587,-4.4587,-4.4587,-4.4587,-4.4587,-4.4587,-4.4587,-4.4587,-4.4587,-4.4587,-4.4587,-4.4587,-4.4587,-4.4587,-4.4587,-4.4587,-4.4587,-4.4587,-4.4587,-4.5052,-4.5089,-4.4626,-4.5089,-4.5089,-4.4626,-4.4587,-4.4682,-4.4759,-4.4682,-4.4749,-4.498,-4.4902,-4.479,-1.0793,-1.0978,-1.1385,-1.2342,-1.2591,-1.3419,0.0,-1.7352,-1.8007,-2.0228,-2.1252,-2.1826,-2.1995,-2.2079,-2.2164,-2.2293,-2.2338,-2.2716,-2.3767,-2.4677,-2.5602,-2.6659,-2.8003,-2.8865,-2.8975,-2.8397,-2.8647,-3.0124,-3.0581,-3.1324,-3.2577,-3.2616,-3.2583,-3.2583,-3.3328,-3.4091,-3.4888,-3.5189,-3.6032,-3.7266,-3.6276,-3.6036,-3.6457,-3.6973,-3.7787,-3.8836,-3.9713,-4.007,-4.007,-4.007,-4.007,-4.007,-4.007,-4.007,-4.007,-4.007,-4.007,-4.007,-4.007,-4.007,-4.007,-4.007,-4.007,-4.0341,-4.1745,-4.2219,-4.2591,-4.4045,-4.4519,-4.4587,-4.4587,-4.4587,-4.4587,-4.4587,-4.4587,-4.4587,-4.4587,-4.4587,-4.4587,-4.4587,-4.4587,-4.4587,-4.4587,-4.4587,-4.4587,-4.4587,-4.4587,-4.4587,-4.4587,-4.4587,-4.4587,-4.4587,-4.4587,-4.4587,-4.4587,-4.4587,-4.4587,-4.4587,-4.4682,-4.4682,-4.457,-4.4682,-4.4682,-4.4587,-4.4587,-4.4852,-4.5425,-4.4852,-4.5192,-4.6339,-4.5801,-4.5585,-1.2708,-1.2983,-1.3159,-1.4269,-1.4554,-1.5263,-1.7928,-1.8571,-1.9197,-2.1406,-2.209,-2.231,-2.231,-2.231,-2.231,-2.231,-2.231,-2.2773,-2.4057,-2.4729,-2.5616,-2.7005,-2.786,-2.8549,-2.8961,-2.8318,-2.8322,-2.9373,-3.0016,-3.0977,-3.2429,-3.223,-3.2092,-3.2092,-3.2191,-3.2973,-3.4436,-3.426,-3.5076,-3.6724,-3.5968,-3.5694,-3.5993,-3.7072,-3.8246,-3.9527,-3.9935,-4.007,-4.007,-4.007,-4.007,-4.007,-4.007,-4.007,-4.007,-4.007,-4.007,-4.007,-4.007,-4.007,-4.007,-4.007,-4.0104,-4.0238,-4.0858,-4.1597,-4.2597,-4.4181,-4.4587,-4.4587,-4.4587,-4.4587,-4.4587,-4.4587,-4.4587,-4.4587,-4.4587,-4.4587,-4.4587,-4.4587,-4.4587,-4.4587,-4.4587,-4.4587,-4.4587,-4.4587,-4.4587,-4.4587,-4.4587,-4.4587,-4.4587,-4.4587,-4.4587,-4.4587,-4.4587,-4.4587,-4.4587,-4.4587,-4.4587,-4.4587,-4.4587,-4.4587,-4.4587,-4.4587,-4.4587,-4.4941,-4.561,-4.5382,-4.5756,-4.6703,-4.6486,-4.6583,-1.3435,-1.3953,-1.4356,-1.5504,-1.6068,-1.6818,-1.8691,-1.934,-2.0027,-2.1595,-2.2032,-2.2106,-2.2106,-2.2106,-2.2135,-2.2282,-2.231,-2.2818,-2.4272,-2.4761,-2.5505,-2.7109,-2.7461,-2.7794,-2.8305,-2.7883,-2.7964,-2.8928,-2.9659,-3.069,-3.2074,-3.1806,-3.1623,-3.1623,-3.1351,-3.2083,-3.395,-3.3598,-3.4346,-3.6182,-3.5783,-3.5622,-3.5673,-3.7212,-3.87,-4.007,-4.007,-4.007,-4.007,-4.007,-4.007,-4.007,-4.007,-4.007,-4.007,-4.007,-4.007,-4.007,-4.007,-4.007,-4.007,-4.007,-4.0121,-4.0167,-4.0584,-4.1422,-4.2606,-4.4159,-4.4587,-4.4587,-4.4587,-4.4587,-4.4587,-4.4587,-4.4587,-4.4587,-4.4587,-4.4587,-4.4587,-4.4587,-4.4587,-4.4587,-4.4587,-4.4587,-4.4587,-4.4587,-4.4587,-4.4587,-4.4587,-4.4587,-4.4682,-4.4814,-4.4869,-4.4906,-4.5089,-4.5089,-4.5089,-4.5089,-4.4961,-4.4869,-4.4869,-4.4665,-4.4587,-4.4587,-4.4587,-4.4942,-4.5703,-4.5703,-4.6177,-4.7107,-4.7107,-4.7496,-1.2266,-1.3034,-1.4356,-1.5504,-1.6727,-1.7932,-1.9135,-2.021,-2.0943,-2.1023,-2.1337,-2.1612,-2.1612,-2.1612,-2.1764,-2.2225,-2.231,-2.2818,-2.4272,-2.4506,-2.5065,-2.6555,-2.6725,-2.6742,-2.6775,-2.6762,-2.7351,-2.8903,-2.9452,-3.0177,-3.1162,-3.123,-3.123,-3.123,-3.119,-3.1901,-3.3431,-3.3406,-3.415,-3.5605,-3.5622,-3.5622,-3.5673,-3.7212,-3.87,-4.007,-4.007,-4.007,-4.007,-4.007,-4.007,-4.007,-4.007,-4.007,-4.007,-4.007,-4.007,-4.007,-4.007,-4.007,-4.007,-4.007,-4.0121,-4.0354,-4.1811,-4.2244,-4.2606,-4.4159,-4.4587,-4.4587,-4.4587,-4.4587,-4.4587,-4.4587,-4.4587,-4.4587,-4.4587,-4.4587,-4.4587,-4.4587,-4.4587,-4.4587,-4.4587,-4.4587,-4.4587,-4.4587,-4.4587,-4.4587,-4.4587,-4.4587,-4.4814,-4.5407,-4.5459,-4.5681,-4.6288,-4.6336,-4.6336,-4.6336,-4.5783,-4.5459,-4.5459,-4.4906,-4.4587,-4.4587,-4.4587,-4.4942,-4.5703,-4.5703,-4.6464,-4.7885,-4.7885,-4.8274,-1.2884,-1.3587,-1.4587,-1.6576,-1.7369,-1.8097,-1.9641,-2.0293,-2.0616,-2.0926,-2.1306,-2.1521,-2.1244,-2.143,-2.1658,-2.1794,-2.184,-2.2458,-2.4242,-2.4211,-2.47,-2.6488,-2.6691,-2.6691,-2.6691,-2.669,-2.6927,-2.7435,-2.8863,-3.0142,-3.1164,-3.1201,-3.119,-3.119,-3.119,-3.1901,-3.3389,-3.2944,-3.3483,-3.4941,-3.4941,-3.5679,-3.7144,-3.7669,-3.87,-4.007,-4.007,-4.007,-4.007,-4.007,-4.007,-4.007,-4.007,-4.007,-4.007,-4.007,-4.007,-4.007,-4.007,-4.007,-4.007,-4.007,-4.146,-4.3199,-4.3695,-4.382,-4.3939,-4.4451,-4.4587,-4.4587,-4.4587,-4.4587,-4.4587,-4.4587,-4.4587,-4.4587,-4.4587,-4.4587,-4.4587,-4.4587,-4.4587,-4.4587,-4.4587,-4.4587,-4.472,-4.5142,-4.5178,-4.5178,-4.5178,-4.5563,-4.5865,-4.6063,-4.6112,-4.6192,-4.6383,-4.6383,-4.6383,-4.6383,-4.6192,-4.5915,-4.5511,-4.532,-4.4998,-4.4626,-4.4587,-4.5179,-4.643,-4.643,-4.7192,-4.8646,-4.8646,-4.8765,-1.3006,-1.3936,-1.4934,-1.6978,-1.7763,-1.841,-1.9775,-2.0177,-2.0348,-2.0499,-2.0687,-2.0781,-2.0782,-2.0909,-2.1248,-2.1878,-2.2129,-2.2825,-2.4515,-2.4483,-2.4905,-2.6522,-2.6691,-2.6691,-2.6691,-2.6691,-2.6708,-2.6703,-2.7919,-2.9384,-3.1121,-3.1223,-3.119,-3.119,-3.1015,-3.1599,-3.3031,-3.2406,-3.2785,-3.4235,-3.4235,-3.5136,-3.6754,-3.7004,-3.7768,-3.8949,-3.9441,-3.9662,-3.9662,-3.9952,-4.007,-4.007,-4.007,-4.007,-4.007,-4.007,-4.007,-4.007,-4.007,-4.007,-4.007,-4.007,-4.2125,-4.4626,-4.4626,-4.4613,-4.4587,-4.4587,-4.4587,-4.4587,-4.4587,-4.4587,-4.4587,-4.4587,-4.4587,-4.4587,-4.4587,-4.4587,-4.4587,-4.4587,-4.4587,-4.4587,-4.4587,-4.4587,-4.4814,-4.5407,-4.5681,-4.5833,-4.5833,-4.6143,-4.6478,-4.671,-4.6756,-4.6847,-4.7044,-4.7088,-4.7088,-4.7088,-4.6664,-4.624,-4.5833,-4.5425,-4.4998,-4.4626,-4.4587,-4.5179,-4.6413,-4.6667,-4.7411,-4.8612,-4.8883,-4.9001,-1.2708,-1.4001,-1.5404,-1.6771,-1.789,-1.8832,-1.9525,-2.0,-2.0128,-1.9692,-1.9455,-1.951,-1.9971,-2.0004,-2.0473,-2.2194,-2.2926,-2.3675,-2.4923,-2.5075,-2.5461,-2.6573,-2.6691,-2.6691,-2.6691,-2.6691,-2.6708,-2.6686,-2.6709,-2.8005,-3.1014,-3.1206,-3.1207,-3.1185,-3.0634,-3.0958,-3.2233,-3.1805,-3.2221,-3.3499,-3.3499,-3.3866,-3.4622,-3.5326,-3.6046,-3.6878,-3.8253,-3.8854,-3.8962,-3.9714,-4.007,-4.007,-4.007,-4.007,-4.007,-4.007,-4.007,-4.007,-4.007,-4.007,-4.007,-4.007,-4.2091,-4.4487,-4.4504,-4.4579,-4.4587,-4.4587,-4.4587,-4.4587,-4.4587,-4.4587,-4.4587,-4.4587,-4.4587,-4.4587,-4.4587,-4.4587,-4.4587,-4.4587,-4.4587,-4.4587,-4.4587,-4.4587,-4.4814,-4.5459,-4.6014,-4.6383,-4.643,-4.6478,-4.6756,-4.7385,-4.7446,-4.7674,-4.8267,-4.8306,-4.8306,-4.8306,-4.7132,-4.643,-4.6383,-4.5267,-4.4626,-4.4587,-4.4587,-4.4976,-4.5771,-4.6447,-4.7192,-4.7986,-4.868,-4.9001,-1.2165,-1.3598,-1.5189,-1.6718,-1.76,-1.8381,-1.9453,-1.9782,-1.9532,-1.8418,-1.8433,-1.8315,-1.7167,-1.796,-1.895,-1.9404,-2.051,-2.1825,-2.3276,-2.324,-2.3961,-2.6404,-2.6691,-2.6691,-2.6691,-2.6691,-2.6708,-2.6691,-2.6697,-2.8012,-3.105,-3.1215,-3.1207,-3.1208,-3.1041,-3.0718,-3.0149,-3.2073,-3.2745,-3.2059,-3.2059,-3.2491,-3.3372,-3.4216,-3.5379,-3.6878,-3.7713,-3.8414,-3.8908,-3.9139,-3.9558,-4.007,-4.007,-4.007,-4.007,-4.007,-4.007,-4.007,-4.007,-4.007,-4.007,-4.007,-4.1375,-4.2955,-4.335,-4.4007,-4.4587,-4.4587,-4.4587,-4.4587,-4.4587,-4.4587,-4.4587,-4.4587,-4.4587,-4.4587,-4.4587,-4.4587,-4.4587,-4.4587,-4.4587,-4.4587,-4.4587,-4.4587,-4.4961,-4.6014,-4.5915,-4.6063,-4.6999,-4.7554,-4.7879,-4.8035,-4.8075,-4.8114,-4.8306,-4.8306,-4.8306,-4.8306,-4.7554,-4.691,-4.643,-4.5699,-4.5035,-4.4626,-4.4587,-4.5213,-4.6515,-4.6701,-4.7462,-4.8731,-4.8917,-4.9001,-1.2025,-1.3566,-1.5112,-1.6494,-1.7577,-1.8426,-1.8763,-1.8822,-1.8448,-1.7146,-1.6834,-1.6617,-1.5946,-1.6965,-1.8158,-1.8765,-2.0432,-2.2085,-2.3406,-2.3968,-2.4861,-2.6488,-2.6691,-2.6691,-2.6691,-2.6691,-2.6691,-2.669,-2.6714,-2.8031,-3.1055,-3.1179,-3.1223,-3.1191,-3.0702,-3.0099,-2.9465,-3.162,-3.2267,-3.1516,-3.1516,-3.1774,-3.2321,-3.3172,-3.4222,-3.5439,-3.6719,-3.7499,-3.793,-3.8286,-3.887,-3.9558,-3.9558,-3.9782,-4.007,-4.007,-4.007,-4.007,-4.007,-4.007,-4.007,-4.007,-4.0644,-4.157,-4.2732,-4.3783,-4.4587,-4.4587,-4.4587,-4.4587,-4.4587,-4.4587,-4.4587,-4.4587,-4.4587,-4.4587,-4.4587,-4.4587,-4.4587,-4.4587,-4.4814,-4.4998,-4.4998,-4.5232,-4.5732,-4.6664,-4.6542,-4.6682,-4.7656,-4.7856,-4.7995,-4.8267,-4.8306,-4.8306,-4.8306,-4.8306,-4.8306,-4.8306,-4.747,-4.6801,-4.643,-4.5545,-4.4961,-4.4643,-4.4908,-4.5483,-4.6312,-4.6972,-4.7716,-4.8545,-4.8849,-4.9001,-1.2151,-1.3667,-1.5159,-1.6227,-1.765,-1.8627,-1.7884,-1.7709,-1.7294,-1.5963,-1.5111,-1.4782,-1.5199,-1.6233,-1.749,-1.8812,-2.0958,-2.2798,-2.371,-2.5512,-2.6708,-2.6691,-2.6691,-2.6691,-2.6691,-2.6691,-2.6691,-2.6704,-2.7081,-2.8434,-3.1065,-3.1194,-3.1056,-3.0711,-2.9689,-2.9392,-2.9823,-3.0926,-3.1482,-3.1482,-3.1482,-3.1482,-3.1511,-3.2511,-3.3168,-3.3514,-3.5554,-3.6461,-3.6522,-3.7184,-3.7939,-3.8663,-3.8837,-3.9315,-3.9952,-4.007,-4.007,-4.007,-4.007,-4.007,-4.007,-4.007,-4.0085,-4.0478,-4.2664,-4.3922,-4.4587,-4.4587,-4.4587,-4.4587,-4.4587,-4.4587,-4.4587,-4.4587,-4.4587,-4.4587,-4.4587,-4.4587,-4.4626,-4.4814,-4.5178,-4.5511,-4.5597,-4.6046,-4.6618,-4.7299,-4.7342,-4.753,-4.821,-4.7838,-4.7715,-4.8249,-4.8306,-4.8306,-4.8306,-4.8306,-4.8267,-4.8172,-4.7044,-4.6383,-4.6288,-4.5178,-4.4621,-4.4722,-4.5365,-4.5805,-4.5991,-4.7293,-4.797,-4.8071,-4.8714,-4.9001,-1.2395,-1.3661,-1.5098,-1.6205,-1.7388,-1.8184,-1.7921,-1.7787,-1.716,-1.5351,-1.4438,-1.3675,-1.2673,-1.4006,-1.5505,-1.632,-1.8594,-2.0307,-2.05,-2.4107,-2.6691,-2.6716,-2.6689,-2.6691,-2.6691,-2.6691,-2.6708,-2.6708,-2.9003,-3.0634,-3.1156,-3.1191,-3.0288,-2.828,-2.8021,-2.8988,-3.1167,-3.1423,-3.1482,-3.1482,-3.1482,-3.1482,-3.1584,-3.3201,-3.3606,-3.3,-3.4865,-3.5667,-3.5677,-3.5845,-3.6432,-3.7447,-3.8521,-3.8978,-3.9193,-3.9833,-4.007,-4.007,-4.007,-4.007,-4.007,-4.007,-4.0085,-4.0632,-4.3505,-4.4456,-4.4587,-4.4587,-4.4587,-4.4587,-4.4587,-4.4587,-4.4587,-4.4587,-4.4587,-4.4587,-4.4587,-4.4587,-4.4906,-4.5865,-4.5783,-4.5648,-4.6143,-4.6336,-4.6618,-4.7299,-4.691,-4.6981,-4.8153,-4.821,-4.8172,-4.8306,-4.8306,-4.8306,-4.8306,-4.8306,-4.8075,-4.7572,-4.6801,-4.6192,-4.5699,-4.4998,-4.4874,-4.55,-4.5635,-4.6312,-4.753,-4.78,-4.8223,-4.8815,-4.8951,-4.9001,-1.2304,-1.3421,-1.4712,-1.5739,-1.685,-1.7458,-1.6576,-1.6355,-1.5727,-1.3655,-1.2972,-1.2568,-1.1925,-1.3436,-1.4862,-1.5036,-1.7667,-1.9706,-1.9705,-2.283,-2.5469,-2.6549,-2.6399,-2.6318,-2.6657,-2.6691,-2.6708,-2.6707,-2.8027,-2.9526,-3.1139,-3.0027,-2.8809,-2.7637,-2.758,-2.8851,-3.1459,-3.15,-3.1489,-3.1482,-3.1482,-3.1482,-3.1526,-3.3096,-3.3469,-3.2926,-3.4737,-3.5484,-3.5483,-3.5483,-3.5784,-3.625,-3.6906,-3.7875,-3.8945,-3.9232,-3.9664,-4.007,-4.007,-4.007,-4.007,-4.007,-4.0085,-4.0648,-4.3712,-4.4613,-4.4587,-4.4587,-4.4587,-4.4587,-4.4587,-4.4587,-4.4587,-4.4587,-4.4587,-4.4682,-4.4998,-4.5089,-4.532,-4.624,-4.643,-4.6589,-4.6864,-4.7176,-4.7512,-4.7797,-4.7596,-4.7596,-4.821,-4.8306,-4.8306,-4.8306,-4.8306,-4.8306,-4.8306,-4.8035,-4.7715,-4.7428,-4.6495,-4.5783,-4.5494,-4.4906,-4.4942,-4.5703,-4.6075,-4.6819,-4.7919,-4.8308,-4.8663,-4.9001,-4.9001,-4.9001,-1.2325,-1.3314,-1.4433,-1.5379,-1.6453,-1.6917,-1.5438,-1.5012,-1.437,-1.2491,-1.1874,-1.1718,-1.1792,-1.3232,-1.4394,-1.427,-1.6853,-1.9057,-1.9617,-2.147,-2.3585,-2.5761,-2.5938,-2.6106,-2.6657,-2.6691,-2.6691,-2.6718,-2.6798,-2.794,-3.0286,-2.8604,-2.7606,-2.761,-2.7602,-2.8568,-3.063,-3.1238,-3.1524,-3.1482,-3.1482,-3.1482,-3.1511,-3.2601,-3.2882,-3.2655,-3.4629,-3.5504,-3.5504,-3.5504,-3.5507,-3.5476,-3.5477,-3.6562,-3.8199,-3.8734,-3.9437,-4.007,-4.007,-4.007,-4.007,-4.007,-4.0085,-4.0648,-4.3712,-4.4613,-4.4587,-4.4587,-4.4587,-4.4587,-4.4587,-4.4587,-4.4587,-4.4587,-4.472,-4.4944,-4.5545,-4.5681,-4.5883,-4.6478,-4.7044,-4.7385,-4.7385,-4.7897,-4.8306,-4.8306,-4.8306,-4.8306,-4.8306,-4.8306,-4.8306,-4.8306,-4.8306,-4.8306,-4.8306,-4.7856,-4.747,-4.7194,-4.6257,-4.5597,-4.532,-4.4852,-4.4942,-4.5703,-4.6413,-4.7158,-4.7919,-4.8646,-4.9001,-4.9001,-4.9001,-4.9001,-1.2889,-1.3802,-1.4812,-1.5428,-1.6451,-1.6982,-1.5753,-1.4985,-1.4282,-1.3283,-1.2139,-1.145,-1.1757,-1.2594,-1.3391,-1.3788,-1.5156,-1.6981,-1.9381,-1.9922,-2.1011,-2.3573,-2.5499,-2.6614,-2.6674,-2.6691,-2.669,-2.6692,-2.7194,-2.7651,-2.7906,-2.7731,-2.758,-2.7625,-2.7602,-2.7695,-2.7983,-3.0308,-3.1524,-3.1482,-3.1482,-3.1482,-3.1497,-3.1632,-3.1638,-3.1787,-3.4352,-3.5504,-3.5504,-3.5504,-3.5474,-3.5514,-3.5506,-3.5654,-3.6121,-3.8942,-4.0029,-4.007,-4.007,-4.007,-4.007,-4.007,-4.0085,-4.0648,-4.3712,-4.4613,-4.4587,-4.4587,-4.4587,-4.4587,-4.4587,-4.4587,-4.4587,-4.4587,-4.4998,-4.5597,-4.6192,-4.6336,-4.6524,-4.7194,-4.7342,-4.7385,-4.7385,-4.7897,-4.8306,-4.8306,-4.8306,-4.8306,-4.8306,-4.8306,-4.8306,-4.8306,-4.8306,-4.8306,-4.8306,-4.8267,-4.7738,-4.6571,-4.6383,-4.5833,-4.472,-4.4626,-4.4942,-4.5703,-4.6413,-4.7158,-4.7919,-4.8646,-4.9001,-4.9001,-4.9001,-4.9001,-1.2859,-1.3549,-1.4236,-1.4457,-1.5386,-1.5944,-1.4664,-1.4167,-1.3749,-1.2781,-1.1866,-1.1353,-1.1739,-1.2747,-1.3317,-1.2696,-1.4411,-1.6697,-1.9339,-2.0605,-2.1846,-2.3403,-2.4323,-2.534,-2.659,-2.6689,-2.6846,-2.7219,-2.7486,-2.7581,-2.7588,-2.7585,-2.7625,-2.7625,-2.7578,-2.7602,-2.7617,-3.0193,-3.1485,-3.1482,-3.1482,-3.1482,-3.1497,-3.1516,-3.1957,-3.2805,-3.4655,-3.5469,-3.5504,-3.5504,-3.5504,-3.5474,-3.5522,-3.5876,-3.6453,-3.7102,-3.8525,-4.007,-4.007,-4.007,-4.007,-4.007,-4.0104,-4.0656,-4.3678,-4.4613,-4.4587,-4.4587,-4.4587,-4.4587,-4.4587,-4.4587,-4.4587,-4.4587,-4.4759,-4.5142,-4.5732,-4.5865,-4.6063,-4.6664,-4.7132,-4.7385,-4.7385,-4.7897,-4.8306,-4.8306,-4.8306,-4.8306,-4.8306,-4.8306,-4.8306,-4.8306,-4.8306,-4.8306,-4.8306,-4.7977,-4.7512,-4.7044,-4.6618,-4.6014,-4.5178,-4.5142,-4.5302,-4.5686,-4.6362,-4.7009,-4.778,-4.8955,-4.9524,-4.9542,-5.0049,-5.0258,-1.2764,-1.3334,-1.3815,-1.3815,-1.4484,-1.49,-1.3951,-1.3417,-1.2981,-1.2471,-1.1661,-1.1174,-1.1703,-1.2577,-1.2897,-1.1959,-1.4041,-1.6428,-1.8309,-1.9602,-2.1064,-2.298,-2.4009,-2.5083,-2.6571,-2.6125,-2.5958,-2.6375,-2.7147,-2.7609,-2.7586,-2.6755,-2.6667,-2.756,-2.7625,-2.7587,-2.7617,-3.0196,-3.149,-3.1482,-3.1482,-3.1482,-3.1482,-3.1516,-3.2198,-3.3544,-3.4921,-3.5492,-3.5504,-3.5504,-3.5504,-3.5504,-3.5504,-3.5921,-3.6606,-3.679,-3.8237,-4.007,-4.007,-4.007,-4.007,-4.007,-4.0307,-4.0965,-4.3214,-4.4045,-4.4231,-4.4502,-4.4587,-4.4587,-4.4587,-4.4587,-4.4587,-4.4587,-4.472,-4.4998,-4.5407,-4.5648,-4.5833,-4.6112,-4.6664,-4.7062,-4.6864,-4.7512,-4.8035,-4.8035,-4.8172,-4.8306,-4.8306,-4.8306,-4.8306,-4.8306,-4.8306,-4.8306,-4.8306,-4.7897,-4.7572,-4.7428,-4.6955,-4.643,-4.5783,-4.5783,-4.5806,-4.5932,-4.6569,-4.7143,-4.7683,-4.8923,-4.9672,-4.9902,-5.0502,-5.0873,-1.2764,-1.3334,-1.3815,-1.3815,-1.3935,-1.4084,-1.4023,-1.2816,-1.1924,-1.2641,-1.1643,-1.0843,-1.1658,-1.1801,-1.1827,-1.1793,-1.4041,-1.5817,-1.5848,-1.5848,-1.7462,-2.1788,-2.4873,-2.6685,-2.6677,-2.4831,-2.3637,-2.3613,-2.6078,-2.759,-2.7603,-2.4751,-2.4543,-2.7494,-2.7625,-2.7587,-2.7617,-3.0196,-3.149,-3.1482,-3.1482,-3.1482,-3.1482,-3.1516,-3.2198,-3.3544,-3.4921,-3.5492,-3.5504,-3.5504,-3.5504,-3.5504,-3.5504,-3.5491,-3.5859,-3.8924,-4.0083,-4.007,-4.007,-4.007,-4.007,-4.007,-4.0764,-4.1697,-4.2187,-4.2672,-4.3348,-4.4316,-4.4587,-4.4587,-4.4587,-4.4587,-4.4587,-4.4587,-4.5052,-4.5511,-4.5511,-4.5965,-4.6192,-4.5648,-4.6014,-4.624,-4.5648,-4.6589,-4.7385,-4.7385,-4.7937,-4.8306,-4.8306,-4.8306,-4.8306,-4.8306,-4.8306,-4.8306,-4.8306,-4.8306,-4.8035,-4.7446,-4.7385,-4.7088,-4.643,-4.6383,-4.6383,-4.6383,-4.7179,-4.7586,-4.7603,-4.8364,-4.9142,-4.9902,-4.9902,-5.0326,-1.096,-1.164,-1.2198,-1.1887,-1.2413,-1.2923,-1.2527,-1.2226,-1.2075,-1.2104,-1.1043,-1.047,-1.1601,-1.1791,-1.2405,-1.4246,-1.5239,-1.581,-1.5806,-1.7334,-1.8957,-2.0363,-2.1376,-2.233,-2.3188,-2.4316,-2.4837,-2.459,-2.6452,-2.7315,-2.6594,-2.6329,-2.6614,-2.755,-2.7617,-2.8464,-3.0226,-3.1067,-3.149,-3.1482,-3.1482,-3.1482,-3.1482,-3.1513,-3.2437,-3.3984,-3.4438,-3.4931,-3.5504,-3.5504,-3.5504,-3.5504,-3.5504,-3.5921,-3.6822,-3.9233,-4.01,-4.007,-4.007,-4.007,-4.007,-4.007,-4.0341,-4.0798,-4.1931,-4.2794,-4.3466,-4.435,-4.4587,-4.4587,-4.4587,-4.4587,-4.4587,-4.4587,-4.4776,-4.4852,-4.4852,-4.5035,-4.5089,-4.4906,-4.5355,-4.5883,-4.6063,-4.6819,-4.753,-4.7937,-4.8172,-4.8306,-4.8306,-4.8306,-4.8306,-4.8306,-4.8306,-4.8306,-4.8306,-4.8306,-4.821,-4.8035,-4.8035,-4.7738,-4.7106,-4.7088,-4.6864,-4.643,-4.7114,-4.7483,-4.7483,-4.8724,-4.9731,-5.053,-5.053,-5.0947,-0.9891,-1.0461,-1.0906,-1.0603,-1.1074,-1.1558,-1.145,-1.1443,-1.1607,-1.2216,-1.1028,-1.0135,-1.0926,-1.1069,-1.1616,-1.3313,-1.4961,-1.6377,-1.7169,-1.8708,-1.9739,-1.9748,-1.9767,-2.0293,-2.1565,-2.3612,-2.5207,-2.5904,-2.6976,-2.736,-2.6686,-2.6884,-2.7208,-2.7583,-2.8098,-2.9154,-3.076,-3.1265,-3.147,-3.1482,-3.1482,-3.1482,-3.1482,-3.1735,-3.2646,-3.3953,-3.4194,-3.4763,0.0,-3.5504,-3.5504,-3.5504,-3.5504,-3.6106,-3.7192,-3.8908,-3.9759,-4.007,-4.007,-4.007,-4.007,-4.007,-4.046,-4.1085,-4.2016,-4.3031,-4.3961,-4.4451,-4.4587,-4.4587,-4.4587,-4.4587,-4.4587,-4.4587,-4.4587,-4.4587,-4.4587,-4.4587,-4.4682,-4.4906,-4.5232,-4.5681,-4.6288,-4.6955,-4.753,-4.7897,-4.8153,-4.8306,-4.8306,-4.8306,-4.8306,-4.8306,-4.8306,-4.8306,-4.8306,-4.8306,-4.8306,-4.8306,-4.8306,-4.8114,-4.7756,-4.7756,-4.7554,-4.7132,-4.7512,-4.7756,-4.7756,-4.8974,-4.9848,-5.0343,-5.0655,-5.1077,0.0,-0.9748,-0.9793,-0.9759,-0.9917,-1.0178,-1.0758,-1.0532,0.0,-1.2617,-1.1269,-0.9745,-0.9749,-0.9734,-0.9838,-1.0097,-1.3576,-1.7071,-1.9482,-1.9814,-1.9795,-1.9795,-1.984,-2.0366,-2.1581,-2.2951,-2.4794,-2.7274,-2.7545,-2.7617,-2.7602,-2.6718,-2.6643,-2.7612,-2.8914,-2.9607,-2.9663,-3.0845,-3.1438,-3.1482,-3.1482,-3.1497,-3.1556,-3.2243,-3.2901,-3.3604,-3.4203,-3.4861,-3.5504,-3.5504,-3.5504,-3.5504,-3.5504,-3.6121,-3.7176,-3.8194,-3.9183,-4.007,-4.007,-4.007,-4.007,-4.007,-4.1085,-4.2286,-4.2286,-4.3369,-4.4587,-4.4587,-4.4587,-4.4587,-4.4587,-4.4587,-4.4587,-4.4587,-4.4587,-4.4587,-4.4587,-4.4626,-4.4814,-4.5407,-4.5545,-4.5732,-4.6383,-4.6999,-4.7428,-4.747,-4.7937,-4.8306,-4.8306,-4.8306,-4.8306,-4.8306,-4.8306,-4.8306,-4.8306,-4.8306,-4.8306,-4.8306,-4.8306,-4.8306,-4.8306,-4.8306,-4.8306,-4.8306,-4.8306,-4.8306,-4.8306,-4.9095,-4.9499,-4.9517,-5.027,-5.0655,-0.761,0.0,-0.8898,-0.8536,-0.9053,-0.9645,0.0,-0.9954,-1.0421,-1.0891,-0.9508,-0.8233,-0.8206,-0.8213,-0.9123,-1.1957,-1.33,-1.5336,-1.9236,-1.9787,-1.979,-1.9791,-2.0408,-2.1051,-2.1691,-2.3406,-2.4936,-2.5988,-2.7009,-2.7629,-2.7624,-2.7402,-2.7595,-2.8315,-2.9199,-2.9771,-3.0066,-3.0483,-3.0998,-3.1482,-3.1482,-3.1794,-3.2287,-3.2437,-3.3155,-3.4247,-3.4412,-3.4861,-3.5504,-3.5504,-3.5504,-3.5504,-3.5504,-3.6384,-3.7652,-3.7886,-3.8898,-4.007,-4.007,-4.007,-4.007,-4.007,-4.1085,-4.2286,-4.2286,-4.3369,-4.4587,-4.4587,-4.4587,-4.4587,-4.4587,-4.4587,-4.4587,-4.4587,-4.4587,-4.4587,-4.4587,-4.4944,-4.532,-4.5459,-4.5865,-4.6383,-4.7044,-4.7299,-4.7572,-4.8035,-4.821,-4.8306,-4.8306,-4.8306,-4.8306,-4.8306,-4.8306,-4.8306,-4.8306,-4.8306,-4.8306,-4.8306,-4.8306,-4.8306,-4.8306,-4.8306,-4.8306,-4.8306,-4.8306,-4.8306,-4.8306,-4.8508,-4.8618,-4.8618,-4.8802,-4.9242,-0.6979,-0.7581,-0.8077,-0.7814,-0.8362,-0.8956,-0.8948,-0.967,-1.0299,-1.0298,-0.9534,-0.8896,-0.888,-0.9537,-1.0752,-1.2839,-1.4906,-1.7041,-1.946,-1.9819,-1.9813,-1.9813,-2.078,-2.1616,-2.2187,-2.3956,-2.5357,-2.6021,-2.7036,-2.7625,-2.7625,-2.7625,-2.7889,-2.8577,-2.9235,-2.9843,-3.0358,-3.0773,-3.1165,-3.1482,-3.1482,-3.1884,-3.2527,-3.2826,-3.3514,-3.4502,-3.4816,-3.516,-3.5504,-3.5504,-3.5504,-3.5504,-3.5894,-3.6768,-3.7806,-3.8189,-3.9049,-4.007,-4.007,-4.007,-4.007,-4.007,-4.0849,-4.1863,-4.2185,-4.3115,-4.413,-4.4485,-4.4587,-4.4587,-4.4587,-4.4587,-4.4682,-4.4961,-4.4998,-4.5089,-4.5372,-4.5681,-4.6014,-4.6305,-4.6635,-4.7044,-4.7697,-4.7797,-4.7937,-4.8267,-4.8306,-4.8306,-4.8306,-4.8306,-4.8306,-4.8306,-4.8306,-4.8306,-4.8306,-4.8306,-4.8306,-4.8306,-4.8306,-4.8306,-4.8306,-4.8306,-4.8306,-4.8306,-4.8306,-4.8306,-4.8306,-4.8306,-4.8306,-4.8306,-4.8306,-4.8545,-0.7074,-0.7308,-0.7574,-0.7654,-0.8076,-0.8526,-0.8614,-0.9473,-1.0302,-1.0308,-1.0399,-1.046,-1.0313,-1.1724,-1.3196,-1.408,-1.7375,-1.9774,-1.978,-1.9991,-2.013,-2.013,-2.1378,-2.2478,-2.3061,-2.4733,-2.6044,-2.6673,-2.726,-2.767,-2.7775,-2.7724,-2.8083,-2.8861,-2.943,-3.0028,-3.0657,-3.124,-3.1482,-3.1482,-3.1571,-3.2018,-3.2691,-3.335,-3.4008,-3.4666,-3.525,-3.5504,-3.5504,-3.5504,-3.5569,-3.5718,-3.6337,-3.7144,-3.8035,-3.869,-3.9437,-4.007,-4.007,-4.007,-4.007,-4.007,-4.0595,-4.1322,-4.1931,-4.2658,-4.3403,-4.4181,-4.4485,-4.4587,-4.4587,-4.4587,-4.4776,-4.5372,-4.5511,-4.5699,-4.6288,-4.6478,-4.671,-4.7299,-4.747,-4.7715,-4.821,-4.8306,-4.8306,-4.8306,-4.8306,-4.8306,-4.8306,-4.8306,-4.8306,-4.8306,-4.8306,-4.8306,-4.8306,-4.8306,-4.8306,-4.8306,-4.8306,-4.8306,-4.8306,-4.8306,-4.8306,-4.8306,-4.8306,-4.8306,-4.8306,-4.8306,-4.8306,-4.8306,-4.8306,-4.8306,-0.7328,-0.7622,-0.7936,-0.8246,-0.891,-0.9257,-0.8369,-0.9298,-1.0293,-1.0312,-1.0894,-1.1194,-1.0462,-1.1714,-1.4171,-1.8149,-1.9381,-1.9786,-1.9821,-2.0781,-2.147,-2.147,-2.315,-2.449,-2.5121,-2.5933,-2.6713,-2.738,-2.7565,-2.7829,-2.8412,-2.8442,-2.8981,-3.0178,-3.0313,-3.0687,-3.1317,-3.1422,-3.1482,-3.1482,-3.2093,-3.2706,-3.3365,-3.4023,-3.4696,-3.5355,-3.5459,-3.5504,-3.5504,-3.5504,-3.5894,-3.6446,-3.6554,-3.7467,-3.8745,-3.8854,-3.9437,-4.007,-4.007,-4.007,-4.007,-4.007,-4.0595,-4.1221,-4.1339,-4.188,-4.2625,-4.3386,-4.4062,-4.4587,-4.4587,-4.4587,-4.4776,-4.5372,-4.5511,-4.5699,-4.6288,-4.6864,-4.7299,-4.7385,-4.7797,-4.8172,-4.8267,-4.8306,-4.8306,-4.8306,-4.8306,-4.8306,-4.8306,-4.8306,-4.8306,-4.8306,-4.8306,-4.8306,-4.8306,-4.8306,-4.8306,-4.8306,-4.8306,-4.8306,-4.8306,-4.8306,-4.8306,-4.8306,-4.8306,-4.8306,-4.8306,-4.8306,-4.8306,-4.8306,-4.8306,-4.8306,-0.7188,-0.7575,-0.816,-0.9329,-0.9731,-0.9971,-1.0339,-1.0318,-1.0585,-1.2057,-1.1941,-1.1797,-1.2333,-1.4722,-1.7309,-1.9447,-2.0972,-2.1663,-2.0985,-2.2011,-2.2842,-2.2842,-2.4233,-2.5315,-2.559,-2.6524,-2.7395,-2.8068,-2.8128,-2.8412,-2.9086,-2.9131,-2.9549,-3.0477,-3.0507,-3.1016,-3.2048,-3.2063,-3.2063,-3.2078,-3.2736,-3.338,-3.4038,-3.4337,-3.4861,-3.5504,-3.5504,-3.5504,-3.5504,-3.5958,-3.6275,-3.6661,-3.7526,-3.8286,-3.8962,-3.9385,-3.9782,-4.007,-4.007,-4.007,-4.007,-4.007,-4.0307,-4.0679,-4.1085,-4.1441,-4.1863,-4.2608,-4.3369,-4.4045,-4.4468,-4.4869,-4.5232,-4.5815,-4.6257,-4.6682,-4.7324,-4.7656,-4.7897,-4.7897,-4.8114,-4.8306,-4.8306,-4.8306,-4.8306,-4.8306,-4.8306,-4.8306,-4.8306,-4.8306,-4.8306,-4.8306,-4.8306,-4.8306,-4.8306,-4.8306,-4.8306,-4.8306,-4.8306,-4.8306,-4.8306,-4.8306,-4.8306,-4.8306,-4.8306,-4.8306,-4.8306,-4.8306,-4.8306,-4.8306,-4.8306,-4.8306,-0.7214,-0.7612,-0.8353,-0.9834,-1.014,-1.0503,-1.2254,-1.1583,-1.1259,-1.3587,-1.3115,-1.2664,-1.3842,-1.7396,-2.0257,-2.0374,-2.2231,-2.3303,-2.2355,-2.333,-2.4128,-2.4128,-2.5293,-2.6054,-2.6054,-2.7143,-2.8038,-2.8562,-2.8742,-2.9116,-2.9759,-2.9804,-3.0183,-3.0981,-3.1009,-3.1522,-3.2704,-3.2871,-3.2901,-3.2751,-3.341,-3.3978,-3.4487,-3.4637,-3.4996,-3.5504,-3.5668,-3.5782,-3.5846,-3.6569,-3.6964,-3.7247,-3.8453,-3.9032,-3.9262,-3.9885,-4.007,-4.007,-4.007,-4.007,-4.007,-4.007,-4.007,-4.0189,-4.0764,-4.0933,-4.1102,-4.183,-4.2455,-4.3169,-4.4249,-4.5005,-4.5681,-4.643,-4.7044,-4.7572,-4.8172,-4.8306,-4.8306,-4.8306,-4.8306,-4.8306,-4.8306,-4.8306,-4.8306,-4.8306,-4.8306,-4.8306,-4.8306,-4.8306,-4.8306,-4.8306,-4.8306,-4.8306,-4.8306,-4.8306,-4.8306,-4.8306,-4.8306,-4.8306,-4.8306,-4.8306,-4.8306,-4.8306,-4.8306,-4.8306,-4.8306,-4.8306,-4.8306,-4.8306,-4.8306,-4.8306,-0.7789,-0.8056,-0.8379,-0.8882,-0.9589,-1.0753,-1.2919,-1.2716,-1.2407,-1.3757,-1.4196,-1.4173,-1.3398,-1.7702,-2.1534,-2.2108,-2.2947,-2.3523,-2.3585,-2.4688,-2.5445,-2.5445,-2.6651,-2.7449,-2.7449,-2.8128,-2.8547,-2.8607,-2.916,-2.9789,-3.0402,-3.0432,-3.1066,-3.2384,-3.2367,-3.273,-3.3434,-3.4046,-3.4023,-3.344,-3.4098,-3.4427,-3.4502,-3.513,-3.5459,-3.5569,-3.6212,-3.6492,-3.6554,-3.7397,-3.8133,-3.8745,-3.8854,-3.9368,-4.002,-4.007,-4.007,-4.007,-4.007,-4.007,-4.007,-4.007,-4.007,-4.0087,-4.0138,-4.0155,-4.0307,-4.1068,-4.1322,-4.1834,-4.3871,-4.4974,-4.5783,-4.7062,-4.7385,-4.7572,-4.8172,-4.8306,-4.8306,-4.8306,-4.8306,-4.8306,-4.8306,-4.8306,-4.8306,-4.8306,-4.8306,-4.8306,-4.8306,-4.8306,-4.8306,-4.8306,-4.8306,-4.8306,-4.8306,-4.8306,-4.8306,-4.8306,-4.8306,-4.8306,-4.8306,-4.8306,-4.8306,-4.8306,-4.8306,-4.8306,-4.8306,-4.8306,-4.8306,-4.8306,-4.8306,-4.8306,-0.866,-0.8595,-0.8645,-0.962,-1.0157,-1.0906,-1.2586,-1.3529,-1.4476,-1.5957,-1.5946,-1.5808,-1.6166,-1.9434,-2.2043,-2.2016,-2.4273,-2.5805,-2.4975,-2.6025,-2.6819,-2.6819,-2.7309,-2.7739,-2.8173,-2.8442,-2.8936,-2.9714,-3.0013,-3.0654,-3.1732,-3.2256,-3.2927,-3.3899,-3.4345,-3.4879,-3.553,-3.5781,-3.6025,-3.6169,-3.5457,-3.5626,-3.656,-3.6292,-3.6477,-3.6951,-3.7219,-3.7338,-3.7397,-3.8189,-3.8635,-3.8962,-3.9437,-3.9833,-4.007,-4.007,-4.007,-4.007,-4.007,-4.007,-4.007,-4.007,-4.007,-4.007,-4.007,-4.007,-4.0222,-4.084,-4.1366,-4.2034,-4.3299,-4.4492,-4.5564,-4.6431,-4.7311,-4.8035,-4.8267,-4.8306,-4.8306,-4.8306,-4.8306,-4.8306,-4.8306,-4.8306,-4.8306,-4.8306,-4.8306,-4.8306,-4.8306,-4.8306,-4.8306,-4.8306,-4.8306,-4.8306,-4.8306,-4.8306,-4.8306,-4.8306,-4.8306,-4.8306,-4.8306,-4.8306,-4.8306,-4.8306,-4.8306,-4.8306,-4.8306,-4.8306,-4.8306,-4.8306,-4.8306,-4.8306,-0.9466,-0.9588,-0.9831,-1.0148,-1.0623,-1.1184,-1.1696,-1.3162,-1.5049,-1.6972,-1.745,-1.7893,-1.9207,-2.0873,-2.2258,-2.2906,-2.5377,-2.7034,-2.6316,-2.7009,-2.77,-2.7874,-2.7904,-2.8158,-2.8846,-2.9298,-2.9925,-3.0749,-3.1211,-3.199,-3.3177,-3.3756,-3.4428,-3.5328,-3.5862,-3.6458,-3.7122,-3.7126,-3.748,-3.8149,-3.6829,-3.6784,-3.7748,-3.7219,-3.7263,-3.7806,-3.8035,-3.8149,-3.8206,-3.8978,-3.9262,-3.9315,-3.9885,-4.007,-4.007,-4.007,-4.007,-4.007,-4.007,-4.007,-4.007,-4.007,-4.007,-4.007,-4.007,-4.007,-4.0204,-4.0733,-4.1319,-4.1921,-4.2783,-4.412,-4.5354,-4.5974,-4.6827,-4.7553,-4.7553,-4.7553,-4.7553,-4.7553,-4.7553,-4.7553,-4.7553,-4.7553,-4.7553,-4.7553,-4.7774,-4.7921,-4.7921,-4.8141,-4.8306,-4.8306,-4.8306,-4.8306,-4.8306,-4.8306,-4.8306,-4.8306,-4.8306,-4.8306,-4.8306,-4.8306,-4.8306,-4.8306,-4.8306,-4.8306,-4.8306,-4.8306,-4.8306,-4.8306,-4.8306,-4.8306,-1.0043,-1.1077,-1.203,-1.0253,-1.0929,-1.1674,-1.028,-1.1498,-1.3649,-1.6343,-1.8477,-2.0325,-2.2079,-2.1807,-2.2287,-2.5128,-2.613,-2.6774,-2.7509,-2.761,-2.788,-2.8517,-2.8592,-2.8861,-2.9574,-3.0838,-3.1632,-3.1632,-3.2855,-3.3902,-3.4675,-3.4723,-3.5344,-3.6768,-3.6859,-3.7122,-3.7817,-3.7794,-3.8206,-3.8908,-3.8149,-3.7822,-3.7822,-3.7806,-3.7806,-3.7863,-3.858,-3.8908,-3.8962,-3.9782,-4.007,-4.007,-4.007,-4.007,-4.007,-4.007,-4.007,-4.007,-4.007,-4.007,-4.007,-4.007,-4.007,-4.007,-4.007,-4.007,-4.0204,-4.075,-4.0903,-4.1178,-4.2382,-4.3848,-4.5142,-4.5755,-4.5883,-4.5902,-4.5902,-4.5902,-4.5902,-4.5902,-4.5902,-4.5902,-4.5902,-4.5902,-4.5902,-4.5902,-4.6581,-4.7075,-4.7113,-4.781,-4.8306,-4.8306,-4.8306,-4.8306,-4.8306,-4.8306,-4.8306,-4.8306,-4.8306,-4.8306,-4.8306,-4.8306,-4.8306,-4.8306,-4.8306,-4.8306,-4.8306,-4.8306,-4.8306,-4.8306,-4.8306,-4.8306,-1.2172,-1.166,-1.113,-1.1237,-1.3208,-1.4932,-1.4198,-1.3895,-1.4429,-1.6892,-1.9321,-2.1091,-2.1548,-2.2868,-2.4263,-2.5488,-2.6557,-2.7357,-2.7575,-2.7944,-2.8301,-2.8569,-2.9369,-3.0217,-3.0913,-3.1789,-3.2498,-3.299,-3.383,-3.4691,-3.5362,-3.6411,-3.7446,-3.8304,-3.8856,-3.9224,-3.9412,-3.9406,-3.9506,-3.9731,-3.9506,-3.9401,-3.9401,-3.8816,-3.887,-3.9454,-3.9662,-3.9714,-3.9782,-4.002,-4.007,-4.007,-4.007,-4.007,-4.007,-4.007,-4.007,-4.007,-4.007,-4.007,-4.007,-4.007,-4.007,-4.007,-4.007,-4.007,-4.0286,-4.1268,-4.1534,-4.1793,-4.2958,-4.3597,-4.4126,-4.4893,-4.5498,-4.5902,-4.5902,-4.5902,-4.5902,-4.5902,-4.5902,-4.5902,-4.5902,-4.5902,-4.5902,-4.5902,-4.6104,-4.6471,-4.704,-4.7333,-4.7682,-4.8251,-4.8306,-4.8306,-4.8306,-4.8306,-4.8306,-4.8306,-4.8306,-4.8306,-4.8306,-4.8306,-4.8306,-4.8306,-4.8306,-4.8306,-4.8306,-4.8306,-4.8306,-4.8306,-4.8306,-4.8306,-1.4104,-1.3971,-1.413,-1.5374,-1.6837,-1.8209,-1.9369,-1.807,-1.7465,-2.011,-2.1929,-2.321,-2.3712,-2.5034,-2.6112,-2.641,-2.7104,-2.766,-2.7894,-2.8501,-2.9162,-2.9709,-3.0669,-3.1613,-3.2316,-3.3008,-3.3697,-3.436,-3.5134,-3.5959,-3.6953,-3.7903,-3.874,-3.9411,-3.9851,-4.007,-4.007,-4.007,-4.007,-4.007,-4.007,-4.007,-4.007,-3.961,-3.9662,-4.007,-4.007,-4.007,-4.007,-4.007,-4.007,-4.007,-4.007,-4.007,-4.007,-4.007,-4.007,-4.007,-4.007,-4.007,-4.007,-4.007,-4.0254,-4.0417,-4.0417,-4.0594,-4.1001,-4.1913,-4.2162,-4.2364,-4.3286,-4.3497,-4.3608,-4.4103,-4.458,-4.4947,-4.4947,-4.4947,-4.4947,-4.4947,-4.4947,-4.4947,-4.4947,-4.4947,-4.4947,-4.4947,-4.5223,-4.5718,-4.6526,-4.6636,-4.6948,-4.7755,-4.7717,-4.7827,-4.8269,-4.8306,-4.8306,-4.8306,-4.8306,-4.8306,-4.8306,-4.8306,-4.8306,-4.8306,-4.8306,-4.8306,-4.8306,-4.8306,-4.8306,-4.8306,-4.8306,-4.8306,-1.5617,-1.7117,-1.9219,-2.1106,-2.1146,-2.1534,-2.4682,-2.314,-2.189,-2.4805,-2.5497,-2.6036,-2.7328,-2.762,-2.7633,-2.768,-2.772,-2.7985,-2.8604,-2.9356,-3.032,-3.1438,-3.2289,-3.3013,-3.362,-3.435,-3.5068,-3.5745,-3.6575,-3.7567,-3.892,-3.9056,-3.9394,-4.0054,-4.007,-4.007,-4.007,-4.007,-4.007,-4.007,-4.007,-4.007,-4.007,-4.007,-4.007,-4.007,-4.007,-4.007,-4.007,-4.007,-4.007,-4.007,-4.007,-4.007,-4.007,-4.007,-4.007,-4.007,-4.007,-4.0121,-4.0154,-4.0154,-4.0546,-4.0995,-4.0995,-4.1358,-4.1937,-4.2519,-4.2711,-4.2826,-4.3375,-4.3497,-4.3497,-4.3497,-4.3497,-4.3497,-4.3497,-4.3497,-4.3497,-4.3497,-4.3497,-4.3497,-4.3497,-4.3497,-4.3497,-4.3497,-4.4121,-4.4892,-4.5681,-4.5792,-4.6122,-4.6947,-4.6855,-4.7149,-4.8214,-4.8306,-4.8306,-4.8306,-4.8306,-4.8306,-4.8306,-4.8306,-4.8306,-4.8306,-4.8306,-4.8306,-4.8306,-4.8306,-4.8306,-4.8306,-4.8306,-4.8306,-1.5376,-1.6844,-1.9055,-2.137,-2.3423,-2.4945,-2.5287,-2.483,-2.4568,-2.5273,-2.6313,-2.7216,-2.7524,-2.7594,-2.7757,-2.822,-2.8799,-2.9368,-2.9974,-3.1094,-3.2008,-3.232,-3.3376,-3.4189,-3.4365,-3.5538,-3.6384,-3.6552,-3.779,-3.8667,-3.8971,-3.9529,-3.9918,-4.007,-4.007,-4.007,-4.007,-4.007,-4.007,-4.007,-4.007,-4.007,-4.007,-4.007,-4.007,-4.007,-4.007,-4.007,-4.007,-4.007,-4.007,-4.007,-4.007,-4.007,-4.007,-4.007,-4.007,-4.007,-4.007,-4.0368,-4.075,-4.075,-4.1133,-4.1621,-4.1621,-4.1725,-4.1937,-4.2519,-4.2711,-4.2826,-4.3375,-4.3497,-4.3497,-4.3497,-4.3497,-4.3497,-4.3497,-4.3497,-4.3497,-4.3497,-4.3497,-4.3497,-4.3497,-4.3497,-4.3497,-4.3497,-4.3644,-4.4048,-4.4856,-4.4966,-4.5407,-4.6672,-4.6708,-4.7149,-4.8214,-4.8306,-4.8306,-4.8306,-4.8306,-4.8306,-4.8306,-4.8306,-4.8306,-4.8306,-4.8306,-4.8306,-4.8306,-4.8306,-4.8306,-4.8306,-4.8306,-4.8306,-1.8481,-2.0503,-2.229,-2.4247,-2.5754,-2.6753,-2.652,-2.6428,-2.6659,-2.729,-2.7501,-2.7846,-2.8725,-2.8919,-2.9281,-3.0449,-3.0974,-3.1278,-3.1456,-3.2348,-3.3139,-3.3472,-3.4421,-3.5183,-3.5629,-3.6333,-3.7077,-3.7787,-3.8565,-3.914,-3.9495,-3.9868,-4.007,-4.007,-4.007,-4.007,-4.007,-4.007,-4.007,-4.007,-4.007,-4.007,-4.007,-4.007,-4.007,-4.007,-4.007,-4.007,-4.007,-4.007,-4.007,-4.007,-4.007,-4.007,-4.007,-4.007,-4.007,-4.0121,-4.0417,-4.0655,-4.0949,-4.1223,-4.175,-4.2203,-4.2203,-4.2404,-4.2696,-4.2995,-4.3087,-4.3142,-4.341,-4.3497,-4.3497,-4.3497,-4.3497,-4.3497,-4.3497,-4.3497,-4.3497,-4.3497,-4.3497,-4.3497,-4.3497,-4.3497,-4.3497,-4.3497,-4.3497,-4.3644,-4.4066,-4.4121,-4.4544,-4.5627,-4.5847,-4.6581,-4.8161,-4.8289,-4.8307,-4.8306,-4.8306,-4.8306,-4.8306,-4.8306,-4.8306,-4.8306,-4.8306,-4.8306,-4.8306,-4.8306,-4.8306,-4.8306,-4.8306,-4.8306,-2.0834,-2.3709,-2.5666,-2.7376,-2.7856,-2.7894,-2.7894,-2.8035,-2.8412,-2.9526,-2.8767,-2.8419,-3.0217,-3.0501,-3.1045,-3.2658,-3.3012,-3.3039,-3.285,-3.3487,-3.4184,-3.4817,-3.5436,-3.6129,-3.6891,-3.7094,-3.7669,-3.8903,-3.9106,-3.9445,-4.0054,-4.007,-4.007,-4.007,-4.007,-4.007,-4.007,-4.007,-4.007,-4.007,-4.007,-4.007,-4.007,-4.007,-4.007,-4.007,-4.007,-4.007,-4.007,-4.007,-4.007,-4.007,-4.007,-4.007,-4.007,-4.007,-4.0171,-4.0286,-4.075,-4.1041,-4.1296,-4.1793,-4.2342,-4.2826,-4.2826,-4.3142,-4.3497,-4.3497,-4.3497,-4.3497,-4.3497,-4.3497,-4.3497,-4.3497,-4.3497,-4.3497,-4.3497,-4.3497,-4.3497,-4.3497,-4.3497,-4.3497,-4.3497,-4.3497,-4.3497,-4.3497,-4.3497,-4.3497,-4.3497,-4.3497,-4.3754,-4.4416,-4.4709,-4.5662,-4.772,-4.8144,-4.829,-4.8306,-4.8306,-4.8306,-4.8306,-4.8306,-4.8306,-4.8306,-4.8306,-4.8306,-4.8306,-4.8306,-4.8306,-4.8306,-4.8306,-4.8306,-1.6458,-2.0254,-2.4574,-2.7845,-2.8873,-2.918,-2.918,-2.9624,-3.0179,-3.0352,-2.9814,-2.9772,-3.115,-3.1438,-3.1693,-3.2413,-3.3093,-3.3703,-3.4162,-3.4846,-3.5616,-3.64,-3.6569,-3.6924,-3.7686,-3.8328,-3.8785,-3.8988,-3.958,-3.9969,-4.007,-4.007,-4.007,-4.007,-4.007,-4.007,-4.007,-4.007,-4.007,-4.007,-4.007,-4.007,-4.007,-4.007,-4.007,-4.007,-4.007,-4.007,-4.007,-4.007,-4.007,-4.007,-4.007,-4.007,-4.007,-4.007,-4.0417,-4.0827,-4.0874,-4.1578,-4.248,-4.2559,-4.2976,-4.341,-4.341,-4.3444,-4.3497,-4.3497,-4.3497,-4.3497,-4.3497,-4.3497,-4.3497,-4.3497,-4.3497,-4.3497,-4.3497,-4.3497,-4.3497,-4.3497,-4.3497,-4.3497,-4.3497,-4.3497,-4.3497,-4.3497,-4.3497,-4.3497,-4.3497,-4.3497,-4.3536,-4.3667,-4.3687,-4.44,-4.6084,-4.7518,-4.829,-4.8306,-4.8306,-4.8306,-4.8306,-4.8306,-4.8306,-4.8306,-4.8306,-4.8306,-4.8306,-4.8306,-4.8306,-4.8306,-4.8306,-4.8306,-1.8231,-2.1478,-2.4365,-2.7767,-2.8779,-2.9107,-2.9856,-3.0252,-3.084,-3.2004,-3.2026,-3.2029,-3.259,-3.3028,-3.3496,-3.4146,-3.4521,-3.498,-3.5707,-3.6062,-3.6552,-3.733,-3.7415,-3.7702,-3.8447,-3.8802,-3.9157,-3.958,-3.9901,-4.007,-4.007,-4.007,-4.007,-4.007,-4.007,-4.007,-4.007,-4.007,-4.007,-4.007,-4.007,-4.007,-4.007,-4.007,-4.007,-4.007,-4.007,-4.007,-4.007,-4.007,-4.007,-4.007,-4.007,-4.0286,-4.0528,-4.0528,-4.092,-4.1446,-4.181,-4.2262,-4.275,-4.305,-4.3304,-4.3497,-4.3497,-4.3497,-4.3497,-4.3497,-4.3497,-4.3497,-4.3497,-4.3497,-4.3497,-4.3497,-4.3497,-4.3497,-4.3497,-4.3497,-4.3497,-4.3497,-4.3497,-4.3497,-4.3497,-4.3497,-4.3497,-4.3497,-4.3497,-4.3497,-4.3497,-4.3497,-4.3516,-4.3483,-4.3483,-4.4033,-4.5352,-4.6104,-4.7003,-4.8214,-4.8307,-4.8289,-4.8306,-4.8306,-4.8306,-4.8306,-4.8306,-4.8306,-4.8306,-4.8306,-4.8306,-4.8306,-4.8306,-4.8306,-1.934,-2.1734,-2.3203,-2.6825,-2.8122,-2.8835,-3.0373,-3.0989,-3.1749,-3.3487,-3.3993,-3.4126,-3.4126,-3.4529,-3.5055,-3.5785,-3.591,-3.618,-3.6958,-3.706,-3.7347,-3.8091,-3.8176,-3.8464,-3.9191,-3.9276,-3.9495,-4.0037,-4.007,-4.007,-4.007,-4.007,-4.007,-4.007,-4.007,-4.007,-4.007,-4.007,-4.007,-4.007,-4.007,-4.007,-4.007,-4.007,-4.007,-4.007,-4.007,-4.007,-4.007,-4.007,-4.007,-4.0121,-4.0237,-4.0528,-4.0903,-4.1087,-4.149,-4.208,-4.2519,-4.2788,-4.2976,-4.3375,-4.3497,-4.3497,-4.3497,-4.3497,-4.3497,-4.3497,-4.3497,-4.3497,-4.3497,-4.3497,-4.3497,-4.3497,-4.3497,-4.3497,-4.3497,-4.3497,-4.3497,-4.3497,-4.3497,-4.3497,-4.3497,-4.3497,-4.3497,-4.3497,-4.3497,-4.3497,-4.3497,-4.3497,-4.3497,-4.3497,-4.3497,-4.392,-4.4912,-4.5204,-4.6049,-4.7884,-4.8179,-4.8309,-4.8306,-4.8306,-4.8306,-4.8306,-4.8306,-4.8306,-4.8306,-4.8306,-4.8306,-4.8306,-4.8306,-4.8306,-1.6801,-1.839,-1.9954,-2.4527,-2.7001,-2.8841,-3.0869,-3.236,-3.3474,-3.4293,-3.502,-3.5509,-3.5509,-3.5543,-3.5814,-3.6603,-3.6721,-3.6992,-3.7736,-3.7838,-3.8125,-3.8853,-3.8937,-3.9225,-3.9952,-4.002,-4.0037,-4.007,-4.007,-4.007,-4.007,-4.007,-4.007,-4.007,-4.007,-4.007,-4.007,-4.007,-4.007,-4.007,-4.007,-4.007,-4.007,-4.007,-4.007,-4.007,-4.007,-4.007,-4.007,-4.007,-4.007,-4.0171,-4.0655,-4.0874,-4.0949,-4.1534,-4.2121,-4.2655,-4.2711,-4.3014,-4.3444,-4.3479,-4.3497,-4.3497,-4.3497,-4.3497,-4.3497,-4.3497,-4.3497,-4.3497,-4.3497,-4.3497,-4.3497,-4.3497,-4.3497,-4.3497,-4.3497,-4.3497,-4.3497,-4.3497,-4.3497,-4.3497,-4.3497,-4.3497,-4.3497,-4.3497,-4.3497,-4.3497,-4.3497,-4.3497,-4.3497,-4.3497,-4.3497,-4.3828,-4.4654,-4.5424,-4.6232,-4.7131,-4.7884,-4.8306,-4.8306,-4.8306,-4.8306,-4.8306,-4.8306,-4.8306,-4.8306,-4.8306,-4.8306,-4.8306,-4.8306,-4.8306,-1.5859,-1.756,-1.9354,-2.2284,-2.5048,-2.766,-2.9764,-3.1867,-3.3744,-3.4962,-3.5436,-3.5774,-3.6265,-3.6366,-3.6451,-3.6738,-3.7195,-3.7753,-3.8497,-3.8616,-3.887,-3.9597,-3.9698,-3.9783,-4.0054,-4.007,-4.007,-4.007,-4.007,-4.007,-4.007,-4.007,-4.007,-4.007,-4.007,-4.007,-4.007,-4.007,-4.007,-4.007,-4.007,-4.007,-4.007,-4.007,-4.007,-4.0121,-4.0449,-4.0607,-4.0607,-4.0607,-4.0844,-4.1196,-4.1402,-4.1707,-4.208,-4.2302,-4.2714,-4.3214,-4.3214,-4.3339,-4.3497,-4.3497,-4.3497,-4.3497,-4.3497,-4.3497,-4.3497,-4.3497,-4.3497,-4.3497,-4.3497,-4.3497,-4.3497,-4.3497,-4.3497,-4.3497,-4.3497,-4.3497,-4.3497,-4.3497,-4.3497,-4.3497,-4.3497,-4.3497,-4.3497,-4.3497,-4.3497,-4.3497,-4.3497,-4.3497,-4.3497,-4.3497,-4.3497,-4.3883,-4.4891,-4.46,-4.537,-4.7739,-4.7167,-4.7221,-4.8269,-4.8306,-4.8306,-4.8306,-4.8306,-4.8306,-4.8306,-4.8306,-4.8306,-4.8306,-4.8306,-4.8306,-1.4996,-1.6409,-1.8108,-2.0377,-2.2627,-2.5276,-2.9075,-3.1182,-3.2933,-3.5165,-3.5622,-3.5859,-3.6637,-3.6992,-3.7246,-3.7483,-3.7939,-3.8531,-3.9259,-3.936,-3.9529,-4.002,-4.007,-4.007,-4.007,-4.007,-4.007,-4.007,-4.007,-4.007,-4.007,-4.007,-4.007,-4.007,-4.007,-4.007,-4.007,-4.007,-4.007,-4.007,-4.007,-4.007,-4.007,-4.007,-4.007,-4.0121,-4.0655,-4.0903,-4.0903,-4.1133,-4.1446,-4.181,-4.2021,-4.2342,-4.2711,-4.2902,-4.3178,-4.3497,-4.3497,-4.3497,-4.3497,-4.3497,-4.3497,-4.3497,-4.3497,-4.3497,-4.3497,-4.3497,-4.3497,-4.3497,-4.3497,-4.3497,-4.3497,-4.3497,-4.3497,-4.3497,-4.3497,-4.3497,-4.3497,-4.3497,-4.3497,-4.3497,-4.3497,-4.3497,-4.3497,-4.3497,-4.3497,-4.3497,-4.3497,-4.3497,-4.3497,-4.3497,-4.3497,-4.3773,-4.4505,-4.3923,-4.4656,-4.7334,-4.7003,-4.7204,-4.8269,-4.8306,-4.8306,-4.8306,-4.8306,-4.8306,-4.8306,-4.8306,-4.8306,-4.8306,-4.8306,-4.8306,0.0,0.0,0.0,-1.8854,-1.9808,-2.1892,-2.8742,-3.0096,-3.1004,-3.4726,-3.5487,-3.5757,-3.662,-3.7398,-3.8142,-3.887,-3.9005,-3.9276,-3.9986,-4.007,-4.007,-4.007,-4.007,-4.007,-4.007,-4.007,-4.007,-4.007,-4.007,-4.007,-4.007,-4.007,-4.007,-4.007,-4.007,-4.007,-4.007,-4.007,-4.007,-4.007,-4.007,-4.007,-4.007,-4.0121,-4.0121,-4.0171,-4.0703,-4.0949,-4.0995,-4.1578,-4.1853,-4.1895,-4.248,-4.2732,-4.2788,-4.3304,-4.3497,-4.3497,-4.3497,-4.3497,-4.3497,-4.3497,-4.3497,-4.3497,-4.3497,-4.3497,-4.3497,-4.3497,-4.3497,-4.3497,-4.3497,-4.3497,-4.3497,-4.3497,-4.3497,-4.3497,-4.3497,-4.3497,-4.3497,-4.3497,-4.3497,-4.3497,-4.3497,-4.3497,-4.3497,-4.3497,-4.3497,-4.3497,-4.3497,-4.3497,-4.3497,-4.3497,-4.3497,-4.3497,-4.3497,-4.3484,-4.418,-4.5736,-4.7371,-4.829,-4.8306,-4.8306,-4.8306,-4.8306,-4.8306,-4.8306,-4.8306,-4.8306,-4.8306,-4.8306,-4.8306,-4.8306,-1.4895,0.0,0.0,0.0,0.0,0.0,-2.285,-2.478,-2.7249,-3.1546,-3.2425,-3.3322,-3.6248,-3.7398,-3.8142,-3.887,-3.9428,-3.9851,-4.0054,-4.007,-4.007,-4.007,-4.007,-4.007,-4.007,-4.007,-4.007,-4.007,-4.007,-4.007,-4.007,-4.007,-4.007,-4.007,-4.007,-4.007,-4.007,-4.007,-4.007,-4.007,-4.007,-4.007,-4.0121,-4.0531,-4.0737,-4.075,-4.1768,-4.2203,-4.2203,-4.2382,-4.2675,-4.3069,-4.3196,-4.3286,-4.3286,-4.3444,-4.3497,-4.3497,-4.3497,-4.3497,-4.3497,-4.3497,-4.3497,-4.3497,-4.3497,-4.3497,-4.3497,-4.3497,-4.3497,-4.3497,-4.3497,-4.3497,-4.3497,-4.3497,-4.3497,-4.3497,-4.3497,-4.3497,-4.3497,-4.3497,-4.3497,-4.3497,-4.3497,-4.3497,-4.3497,-4.3497,-4.3497,-4.3497,-4.3497,-4.3497,-4.3497,-4.3497,-4.3497,-4.3497,-4.3497,-4.3484,-4.3687,-4.4144,-4.6765,-4.831,-4.829,-4.8307,-4.8306,-4.8306,-4.8306,-4.8306,-4.8306,-4.8306,-4.8306,-4.8306,-4.8306,-4.8306,-1.6602,-1.724,-1.788,-1.6738,0.0,0.0,-2.3041,-2.466,-2.686,-3.1985,-3.3034,-3.3812,-3.6315,-3.7144,-3.7686,-3.8413,-3.8903,-3.9394,-3.9986,-4.007,-4.007,-4.007,-4.007,-4.007,-4.007,-4.007,-4.007,-4.007,-4.007,-4.007,-4.007,-4.007,-4.007,-4.007,-4.007,-4.007,-4.007,-4.007,-4.007,-4.0121,-4.0336,-4.0449,-4.0449,-4.1047,-4.1286,-4.1313,-4.2302,-4.2711,-4.2711,-4.2939,-4.3214,-4.3497,-4.3497,-4.3497,-4.3497,-4.3497,-4.3497,-4.3497,-4.3497,-4.3497,-4.3497,-4.3497,-4.3497,-4.3497,-4.3497,-4.3497,-4.3497,-4.3497,-4.3497,-4.3497,-4.3497,-4.3497,-4.3497,-4.3497,-4.3497,-4.3497,-4.3497,-4.3497,-4.3497,-4.3497,-4.3497,-4.3497,-4.3497,-4.3497,-4.3497,-4.3497,-4.3497,-4.3497,-4.3497,-4.352,-4.3509,-4.3509,-4.3489,-4.3503,-4.3503,-4.3504,-4.3505,-4.3511,-4.5278,-4.6911,-4.8254,-4.8326,-4.8306,-4.8306,-4.8306,-4.8306,-4.8306,-4.8306,-4.8306,-4.8306,-4.8306,-4.8306,-1.8843,-1.8826,-1.8906,-1.8896,-1.8362,0.0,-2.5541,-2.6368,-2.7385,-3.2882,-3.4083,-3.4455,-3.547,-3.5808,-3.6113,-3.6705,-3.7212,-3.8075,-3.9631,-3.9834,-3.9868,-3.9952,-3.9952,-3.9986,-4.007,-4.007,-4.007,-4.007,-4.007,-4.007,-4.007,-4.007,-4.007,-4.007,-4.007,-4.007,-4.007,-4.007,-4.007,-4.0138,-4.0655,-4.0903,-4.0903,-4.1578,-4.1895,-4.1937,-4.2519,-4.2788,-4.2826,-4.3286,-4.3497,-4.3497,-4.3497,-4.3497,-4.3497,-4.3497,-4.3497,-4.3497,-4.3497,-4.3497,-4.3497,-4.3497,-4.3497,-4.3497,-4.3497,-4.3497,-4.3497,-4.3497,-4.3497,-4.3497,-4.3497,-4.3497,-4.3497,-4.3497,-4.3497,-4.3497,-4.3497,-4.3497,-4.3497,-4.3497,-4.3497,-4.3497,-4.3497,-4.3497,-4.3497,-4.3497,-4.3497,-4.3513,-4.3493,-4.3508,-4.3558,-4.3729,-4.3717,-4.3717,-4.3717,-4.3746,-4.3688,-4.3521,-4.3821,-4.5314,-4.8181,-4.831,-4.8309,-4.8309,-4.8326,-4.8306,-4.8306,-4.8306,-4.8306,-4.8306,-4.8306,-4.8306,-2.054,-2.0625,-2.112,-1.9345,-1.9681,0.0,-1.9185,-1.9706,-2.1092,-2.3494,-2.4475,-2.5676,-2.8197,-2.9668,-3.0345,-2.9871,-3.2797,-3.5893,-3.8024,-3.8328,-3.8548,-3.914,-3.9208,-3.9428,-4.002,-4.007,-4.007,-4.007,-4.007,-4.007,-4.007,-4.007,-4.007,-4.007,-4.007,-4.007,-4.007,-4.007,-4.007,-4.0138,-4.0655,-4.0903,-4.0949,-4.2021,-4.2519,-4.2577,-4.3087,-4.3321,-4.3375,-4.3444,-4.3497,-4.3497,-4.3497,-4.3497,-4.3497,-4.3497,-4.3497,-4.3497,-4.3497,-4.3497,-4.3497,-4.3497,-4.3497,-4.3497,-4.3497,-4.3497,-4.3497,-4.3497,-4.3497,-4.3497,-4.3497,-4.3497,-4.3497,-4.3497,-4.3497,-4.3497,-4.3497,-4.3497,-4.3497,-4.3497,-4.3497,-4.3497,-4.3497,-4.3497,-4.3497,-4.3497,-4.3497,-4.3505,-4.3484,-4.3497,-4.3919,-4.5065,-4.5183,-4.5198,-4.5198,-4.5202,-4.4718,-4.3558,-4.5923,-4.7642,-4.8262,-4.8296,-4.8298,-4.8298,-4.8311,-4.8306,-4.8306,-4.8306,-4.8306,-4.8306,-4.8306,-4.8306,-2.2046,-2.1691,-2.204,-2.0889,-2.0889,0.0,0.0,-2.1143,-2.1887,-2.4557,-2.4475,-2.4628,-2.6843,-2.7571,-2.7841,-2.7824,-3.0954,-3.3271,-3.2916,-3.5774,-3.8041,-3.8413,-3.8447,-3.8599,-3.8954,-3.9326,-3.9681,-4.0054,-4.007,-4.007,-4.007,-4.007,-4.007,-4.007,-4.007,-4.007,-4.007,-4.007,-4.0254,-4.0497,-4.1105,-4.149,-4.1853,-4.2696,-4.3105,-4.3087,-4.3375,-4.3497,-4.3497,-4.3497,-4.3497,-4.3497,-4.3497,-4.3497,-4.3497,-4.3497,-4.3497,-4.3497,-4.3497,-4.3497,-4.3497,-4.3497,-4.3497,-4.3497,-4.3497,-4.3497,-4.3497,-4.3497,-4.3497,-4.3497,-4.3497,-4.3497,-4.3497,-4.3497,-4.3497,-4.3497,-4.3497,-4.3497,-4.3497,-4.3497,-4.3497,-4.3497,-4.3497,-4.3497,-4.3497,-4.3497,-4.3497,-4.352,-4.3515,-4.4119,-4.4812,-4.5513,-4.5601,-4.5592,-4.5592,-4.5589,-4.5299,-4.4588,-4.7659,-4.9504,-4.9502,-4.9478,-4.9296,-4.8909,-4.8906,-4.8692,-4.8308,-4.8308,-4.8305,-4.8306,-4.8292,-4.8291,-2.3646,-2.2936,-2.3021,-2.2446,-2.2276,-2.2615,0.0,0.0,0.0,-2.6505,-2.5693,-2.4898,-2.6066,-2.5812,-2.5558,-2.6031,-2.8738,-2.9837,-2.7097,-3.1894,-3.5751,-3.6038,-3.6902,-3.7408,-3.7138,-3.7469,-3.8244,-3.9563,-3.8988,-3.8954,-3.9817,-3.9868,-3.9935,-4.007,-4.007,-4.007,-4.007,-4.007,-4.0334,-4.0735,-4.1385,-4.1973,-4.2567,-4.3195,-4.3497,-4.3497,-4.3497,-4.3497,-4.3497,-4.3497,-4.3497,-4.3497,-4.3497,-4.3497,-4.3497,-4.3497,-4.3497,-4.3497,-4.3497,-4.3497,-4.3497,-4.3497,-4.3497,-4.3497,-4.3497,-4.3497,-4.3497,-4.3497,-4.3497,-4.3497,-4.3497,-4.3497,-4.3497,-4.3497,-4.3497,-4.3497,-4.3497,-4.3497,-4.3497,-4.3497,-4.3497,-4.3497,-4.3497,-4.3497,-4.3497,-4.3497,-4.3493,-4.349,-4.3495,-4.4718,-4.5613,-4.56,-4.5592,-4.5877,-4.6529,-4.6587,-4.6593,-4.658,-4.9175,-5.0703,-5.0703,-5.0694,-5.0317,-4.9522,-4.9634,-4.9427,-4.8767,-4.8767,-4.8602,-4.8292,-4.8293,-4.846,-2.5607,-2.5186,-2.5575,-2.2953,-2.4205,-2.4949,-2.0636,0.0,-2.1972,-2.0365,0.0,-2.0677,-2.0846,0.0,0.0,-1.9993,-2.2987,-2.4797,-2.3173,-2.5614,-2.8052,-2.9237,-3.3259,-3.5528,-3.4455,-3.359,-3.4472,-3.7889,-3.5064,-3.4895,-3.8903,-3.9106,-3.9411,-4.0054,-4.007,-4.007,-4.007,-4.007,-4.0131,-4.021,-4.0929,-4.1481,-4.1929,-4.2995,-4.3497,-4.3497,-4.3497,-4.3497,-4.3497,-4.3497,-4.3497,-4.3497,-4.3497,-4.3497,-4.3497,-4.3497,-4.3497,-4.3497,-4.3497,-4.3497,-4.3497,-4.3497,-4.3497,-4.3497,-4.3497,-4.3497,-4.3497,-4.3497,-4.3497,-4.3497,-4.3497,-4.3497,-4.3497,-4.3497,-4.3497,-4.3497,-4.3497,-4.3497,-4.3497,-4.3497,-4.3497,-4.3497,-4.3497,-4.3497,-4.3497,-4.3497,-4.3486,-4.3506,-4.3517,-4.4724,-4.5598,-4.5592,-4.561,-4.6838,-4.9854,-5.0125,-5.0125,-5.0125,-5.049,-5.07,-5.0696,-5.0684,-5.0316,-4.9522,-5.0202,-5.0533,-5.043,-5.043,-4.9701,-4.8318,-4.8292,-4.9077,-2.559,-2.5879,-2.664,-2.368,-2.4831,-2.5676,-2.1769,-2.1278,-2.1498,-2.0991,0.0,0.0,0.0,0.0,0.0,0.0,-2.1972,-2.2868,-2.0094,-2.295,-2.582,-2.7188,-2.8677,-3.0508,-3.2748,-3.2174,-3.3389,-3.7601,-3.4404,-3.4049,-3.8142,-3.8768,-3.914,-3.9445,-3.9868,-4.007,-4.007,-4.0417,-4.0569,-4.0597,-4.158,-4.2149,-4.2348,-4.3159,-4.3497,-4.3497,-4.3497,-4.3497,-4.3497,-4.3497,-4.3497,-4.3497,-4.3497,-4.3497,-4.3497,-4.3497,-4.3497,-4.3497,-4.3497,-4.3497,-4.3497,-4.3497,-4.3497,-4.3497,-4.3497,-4.3497,-4.3497,-4.3497,-4.3497,-4.3497,-4.3497,-4.3497,-4.3497,-4.3497,-4.3497,-4.3663,-4.4303,-4.4687,-4.489,-4.4874,-4.4141,-4.352,-4.352,-4.3499,-4.3497,-4.3497,-4.352,-4.3788,-4.4605,-4.5212,-4.6363,-4.8356,-4.8548,-4.9125,-5.0586,-5.0702,-5.0702,-5.0702,-5.0696,-5.0694,-5.0702,-5.0397,-5.0228,-5.0202,-5.0298,-5.045,-5.0703,-5.0703,-5.0359,-4.9682,-4.9702,-5.0043,-2.6945,-2.7351,-2.7841,-2.4052,-2.4611,-2.5304,-2.2361,-2.1904,-2.2152,-2.2276,-2.1465,0.0,0.0,0.0,-1.9621,-1.9951,0.0,-2.138,-1.8251,-2.0395,-2.2781,-2.3969,-2.4344,-2.6149,-3.0362,-2.9178,-3.0362,-3.5673,-3.2391,-3.2324,-3.733,-3.8108,-3.8565,-3.8988,-3.9512,-3.9884,-4.007,-4.0607,-4.103,-4.13,-4.1984,-4.2515,-4.2939,-4.3321,-4.3497,-4.3497,-4.3497,-4.3497,-4.3497,-4.3497,-4.3497,-4.3497,-4.3497,-4.3497,-4.3497,-4.3497,-4.3497,-4.3497,-4.3497,-4.3497,-4.3497,-4.3497,-4.3497,-4.3497,-4.3497,-4.3497,-4.3497,-4.3497,-4.3497,-4.3497,-4.3497,-4.3497,-4.3497,-4.3497,-4.3497,-4.3699,-4.4505,-4.5147,-4.557,-4.5553,-4.493,-4.4272,-4.398,-4.4068,-4.4028,-4.3554,-4.3495,-4.3865,-4.4898,-4.6169,-4.7962,-5.0433,-5.0702,-5.0702,-5.0702,-5.0702,-5.0702,-5.0683,-5.0711,-5.0708,-5.0702,-5.0331,-5.0307,-5.0683,-5.0421,-5.0421,-5.0702,-5.0702,-5.0702,-5.0702,-5.0708,-5.0692,-3.114,-3.0497,-2.9685,-2.3816,-2.346,-2.3765,-2.0745,-2.231,-2.4015,-2.2598,-2.3968,-2.4763,-2.2665,-2.1634,-2.0873,-2.012,-2.0052,0.0,0.0,-1.7082,0.0,0.0,0.0,-2.3865,-2.6607,-2.297,-2.3494,-3.0852,-2.73,-2.83,-3.6383,-3.684,-3.7499,-3.8937,-3.9005,-3.9377,-4.007,-4.0607,-4.138,-4.2356,-4.16,-4.2012,-4.3479,-4.3479,-4.3497,-4.3497,-4.3497,-4.3497,-4.3497,-4.3497,-4.3497,-4.3497,-4.3497,-4.3497,-4.3497,-4.3497,-4.3497,-4.3497,-4.3497,-4.3497,-4.3497,-4.3497,-4.3497,-4.3497,-4.3497,-4.3497,-4.3497,-4.3497,-4.3497,-4.3497,-4.3497,-4.3497,-4.3497,-4.3497,-4.3497,-4.3497,-4.3534,-4.4176,-4.4745,-4.4745,-4.5736,-4.625,-4.5224,-4.5479,-4.5294,-4.3741,-4.349,-4.3528,-4.3549,-4.7637,-5.0562,-5.0702,-5.0702,-5.0683,-5.0683,-5.0683,-5.0683,-5.0702,-5.0702,-5.0702,-5.0702,-5.0683,-5.0663,-5.0702,-5.0683,-5.0683,-5.0702,-5.0702,-5.0702,-5.0702,-5.0702,-5.0702,-3.2713,-3.3558,-3.3457,-2.7452,-2.7452,-2.7621,-2.2665,-2.3444,-2.4678,-2.2716,-2.4069,-2.4932,-2.2716,-2.1701,-2.1092,-2.0839,-1.9942,-1.8758,0.0,-1.594,-1.5188,0.0,0.0,0.0,0.0,-2.2716,-2.4864,-2.9381,-2.8351,-2.9736,-3.4996,-3.6231,-3.7246,-3.8244,-3.8751,-3.9343,-4.007,-4.1013,-4.1455,-4.1426,-4.2289,-4.2814,-4.2976,-4.3339,-4.3497,-4.3497,-4.3497,-4.3497,-4.3497,-4.3497,-4.3497,-4.3497,-4.3497,-4.3497,-4.3497,-4.3497,-4.3497,-4.3497,-4.3497,-4.3497,-4.3497,-4.3497,-4.3497,-4.3497,-4.3497,-4.3864,-4.4287,-4.4287,-4.4672,-4.5094,-4.5094,-4.469,-4.4287,-4.4287,-4.3883,-4.3858,-4.5208,-4.5081,-4.5256,-4.712,-4.6779,-4.6195,-4.6379,-4.6581,-4.6709,-4.6672,-4.667,-4.6675,-4.6663,-4.8581,-4.9901,-4.9917,-5.0064,-5.0179,-5.0179,-5.0506,-5.0702,-5.0702,-5.0702,-5.0702,-5.0702,-5.0702,-5.0702,-5.0702,-5.0702,-5.0702,-5.0702,-5.0702,-5.0702,-5.0702,-5.0702,-5.0702,-3.481,-3.5673,-3.5537,-3.0311,-3.0108,-2.9837,-2.4661,-2.5203,-2.6251,-2.4272,-2.4797,-2.5575,-2.549,-2.3122,-2.1475,-2.2254,-2.0196,-1.7896,0.0,-1.5325,-1.4699,0.0,0.0,0.0,0.0,0.0,-2.2914,-2.8588,-2.774,-2.9194,-3.4218,-3.569,-3.684,-3.7872,-3.8362,-3.9089,-4.007,-4.1241,-4.1621,-4.1223,-4.2754,-4.3339,-4.2976,-4.3321,-4.3497,-4.3497,-4.3497,-4.3497,-4.3497,-4.3497,-4.3497,-4.3497,-4.3497,-4.3497,-4.3497,-4.3497,-4.3497,-4.3497,-4.3497,-4.3497,-4.3497,-4.3497,-4.3497,-4.3497,-4.3497,-4.4066,-4.4709,-4.4709,-4.5278,-4.5902,-4.5902,-4.5516,-4.5131,-4.5131,-4.4849,-4.4938,-4.6233,-4.6225,-4.6541,-4.8327,-4.7886,-4.7318,-4.7856,-4.7949,-4.7916,-4.7739,-4.8034,-4.8309,-4.8286,-4.8758,-4.9145,-4.9332,-4.9701,-4.9988,-5.0179,-5.0486,-5.0702,-5.0702,-5.0702,-5.0702,-5.0702,-5.0702,-5.0702,-5.0702,-5.0702,-5.0702,-5.0702,-5.0702,-5.0702,-5.0702,-5.0702,-5.0702]}]]